[[{"header":{"parameterUnit":"m.s-1","parameterCategory":1,"la1":31.0,"la2":29.5877,"lo1":-88.7671,"lo2":-86.6584,"dy":0.0162,"dx":0.0185,"nx":115,"ny":88,"refTime":"2024-07-31T00:00:00:Z","depth":0,"parameterNumber":2,"parameterNumberName":"U-component_of_WINDS"},"data":[0.0,0.0,0.0,0.0,0.0,0.0,0.0,0.0,0.0,0.0,0.0,0.0,0.0,0.0,0.0,0.0,0.0,0.0,0.0,0.0,0.0,0.0,0.0,0.0,0.0,0.0,0.0,0.0,0.0,0.0,0.0,0.0,0.0,0.0,0.0,0.0,0.0,0.0,0.0,0.0,0.0,0.0,0.0,0.0,0.0,0.0,0.0,0.0,0.0,0.0,0.0,0.0,0.0,0.0,0.0,0.0,0.0,0.0,0.0,0.0,0.0,0.0,0.0,0.0,0.0,0.0,0.0,0.0,0.0,0.0,0.0,0.0,0.0,0.0,0.0,0.0,0.0,0.0,0.0,0.0,0.0,0.0,0.0,0.0,0.0,0.0,0.0,0.0,0.0,0.0,0.0,0.0,0.0,0.0,0.0,0.0,0.0,0.0,0.0,0.0,0.0,0.0,0.0,0.0,0.0,0.0,0.0,0.0,0.0,0.0,0.0,0.0,0.0,0.0,0.0,0.0,0.0,0.0,0.0,0.0,0.0,0.0,0.0,0.0,0.0,0.0,0.0,0.0,0.0,0.0,0.0,0.0,0.0,0.0,0.0,0.0,0.0,0.0,0.0,0.0,0.0,0.0,0.0,0.0,0.0,0.0,0.0,0.0,0.0,0.0,0.0,0.0,0.0,0.0,0.0,0.0,0.0,0.0,0.0,0.0,0.0,0.0,0.0,0.0,0.0,0.0,0.0,0.0,0.0,0.0,0.0,0.0,0.0,0.0,0.0,0.0,0.0,0.0,0.0,0.0,0.0,0.0,0.0,0.0,0.0,0.0,0.0,0.0,0.0,0.0,0.0,0.0,0.0,0.0,0.0,0.0,0.0,0.0,0.0,0.0,0.0,0.0,0.0,0.0,0.0,0.0,0.0,0.0,0.0,0.0,0.0,0.0,0.0,0.0,0.0,0.0,0.0,0.0,0.0,0.0,0.0,0.0,0.0,0.0,0.0,0.0,0.0,0.0,0.0,0.0,0.0,0.0,0.0,0.0,0.0,0.0,0.0,0.0,0.0,0.0,0.0,0.0,0.0,0.0,0.0,0.0,0.0,0.0,0.0,0.0,0.0,0.0,0.0,0.0,0.0,0.0,0.0,0.0,0.0,0.0,0.0,0.0,0.0,0.0,0.0,0.0,0.0,0.0,0.0,0.0,0.0,0.0,0.0,0.0,0.0,0.0,0.0,0.0,0.0,0.0,0.0,0.0,0.0,0.0,0.0,0.0,0.0,0.0,0.0,0.0,0.0,0.0,0.0,0.0,0.0,0.0,0.0,0.0,0.0,0.0,0.0,0.0,0.0,0.0,0.0,0.0,0.0,0.0,0.0,0.0,0.0,0.0,0.0,0.0,0.0,0.0,0.0,0.0,0.0,0.0,0.0,0.0,0.0,0.0,0.0,0.0,0.0,0.0,0.0,0.0,0.0,0.0,0.0,0.0,0.0,0.0,0.0,0.0,0.0,0.0,0.0,0.0,0.0,0.0,0.0,0.0,0.0,0.0,0.0,0.0,0.0,0.0,0.0,0.0,0.0,0.0,0.0,0.0,0.0,0.0,0.0,0.0,0.0,0.0,0.0,0.0,0.0,0.0,0.0,0.0,0.0,0.0,0.0,0.0,0.0,0.0,0.0,0.0,0.0,0.0,0.0,0.0,0.0,0.0,0.0,0.0,0.0,0.0,0.0,0.0,0.0,0.0,0.0,0.0,0.0,0.0,0.0,0.0,0.0,0.0,0.0,0.0,0.0,0.0,0.0,0.0,0.0,0.0,0.0,0.0,0.0,0.0,0.0,0.0,0.0,0.0,0.0,0.0,0.0,0.0,0.0,0.0,0.0,0.0,0.0,0.0,0.0,0.0,0.0,0.0,0.0,0.0,0.0,0.0,0.0,0.0,0.0,0.0,0.0,0.0,0.0,0.0,0.0,0.0,0.0,0.0,0.0,0.0,0.0,0.0,0.0,0.0,0.0,0.0,0.0,0.0,0.0,0.0,0.0,0.0,0.0,0.0,0.0,0.0,0.0,0.0,0.0,0.0,0.0,0.0,0.0,0.0,0.0,0.0,0.0,0.0,0.0,0.0,0.0,0.0,0.0,0.0,0.0,0.0,0.0,0.0,0.0,0.0,0.0,0.0,0.0,0.0,0.0,0.0,0.0,0.0,0.0,0.0,0.0,0.0,0.0,0.0,0.0,0.0,0.0,0.0,0.0,0.0,0.0,0.0,0.0,0.0,0.0,0.0,0.0,0.0,0.0,0.0,0.0,0.0,0.0,0.0,0.0,0.0,0.0,0.0,0.0,0.0,0.0,0.0,0.0,0.0,0.0,0.0,0.0,0.0,0.0,0.0,0.0,0.0,0.0,0.0,0.0,0.0,0.0,0.0,0.0,0.0,0.0,0.0,0.0,0.0,0.0,0.0,0.0,0.0,0.0,0.0,0.0,0.0,0.0,0.0,0.0,0.0,0.0,0.0,0.0,0.0,0.0,0.0,0.0,0.0,0.0,0.0,0.0,0.0,0.0,0.0,0.0,0.0,0.0,0.0,0.0,0.0,0.0,0.0,0.0,0.0,0.0,0.0,0.0,0.0,0.0,0.0,0.0,0.0,0.0,0.0,0.0,0.0,0.0,0.0,0.0,0.0,0.0,0.0,0.0,0.0,0.0,0.0,0.0,0.0,0.0,0.0,0.0,0.0,0.0,0.0,0.0,0.0,0.0,0.0,0.0,0.0,0.0,0.0,0.0,0.0,0.0,0.0,0.0,0.0,0.0,0.0,0.0,0.0,0.0,0.0,0.0,0.0,0.0,0.0,0.0,0.0,0.0,0.0,0.0,0.0,0.0,0.0,0.0,0.0,0.0,0.0,0.0,0.0,0.0,0.0,0.0,0.0,0.0,0.0,0.0,0.0,0.0,0.0,0.0,0.0,0.0,0.0,0.0,0.0,0.0,0.0,0.0,0.0,0.0,0.0,0.0,0.0,0.0,0.0,0.0,0.0,0.0,0.0,0.0,0.0,0.0,0.0,0.0,0.0,0.0,0.0,0.0,0.0,0.0,0.0,0.0,0.0,0.0,0.0,0.0,0.0,0.0,0.0,0.0,0.0,0.0,0.0,0.0,0.0,0.0,0.0,0.0,0.0,0.0,0.0,0.0,0.0,0.0,0.0,0.0,0.0,0.0,0.0,0.0,0.0,0.0,0.0,0.0,0.0,0.0,0.0,0.0,0.0,0.0,0.0,0.0,0.0,0.0,0.0,0.0,0.0,0.0,0.0,0.0,0.0,0.0,0.0,0.0,0.0,0.0,0.0,0.0,0.0,0.0,0.0,0.0,0.0,0.0,0.0,0.0,0.0,0.0,0.0,0.0,0.0,0.0,0.0,0.0,0.0,0.0,0.0,0.0,0.0,0.0,0.0,0.0,0.0,0.0,0.0,0.0,0.0,0.0,0.0,0.0,0.0,0.0,0.0,0.0,0.0,0.0,0.0,0.0,0.0,0.0,0.0,0.0,0.0,0.0,0.0,0.0,0.0,0.0,0.0,0.0,0.0,0.0,0.0,0.0,0.0,0.0,0.0,0.0,0.0,0.0,0.0,0.0,0.0,0.0,0.0,0.0,0.0,0.0,0.0,0.0,0.0,0.0,0.0,0.0,0.0,0.0,0.0,0.0,0.0,0.0,0.0,0.0,0.0,0.0,0.0,0.0,0.0,0.0,0.0,0.0,0.0,0.0,0.0,0.0,0.0,0.0,0.0,0.0,0.0,0.0,0.0,0.0,0.0,0.0,0.0,0.0,0.0,0.0,0.0,0.0,0.0,0.0,0.0,0.0,0.0,0.0,0.0,0.0,0.0,0.0,0.0,0.0,0.0,0.0,0.0,0.0,0.0,0.0,0.0,0.0,0.0,0.0,0.0,0.0,0.0,0.0,0.0,0.0,0.0,0.0,0.0,0.0,0.0,0.0,0.0,0.0,0.0,0.0,0.0,0.0,0.0,0.0,0.0,0.0,0.0,0.0,0.0,0.0,0.0,0.0,0.0,0.0,0.0,0.0,0.0,0.0,0.0,0.0,0.0,0.0,0.0,0.0,0.0,0.0,0.0,0.0,0.0,0.0,0.0,0.0,0.0,0.0,0.0,0.0,0.0,0.0,0.0,0.0,0.0,0.0,0.0,0.0,0.0,0.0,0.0,0.0,0.0,0.0,0.0,0.0,0.0,0.0,0.0,0.0,0.0,0.0,0.0,0.0,0.0,-2.1652,0.0,0.0,0.0,0.0,0.0,0.0,0.0,0.0,0.0,0.0,0.0,0.0,0.0,0.0,0.0,0.0,0.0,0.0,0.0,0.0,0.0,0.0,0.0,0.0,0.0,0.0,0.0,0.0,0.0,0.0,0.0,0.0,0.0,0.0,0.0,0.0,0.0,0.0,0.0,0.0,0.0,0.0,0.0,0.0,0.0,0.0,0.0,0.0,0.0,0.0,0.0,0.0,0.0,0.0,0.0,0.0,0.0,0.0,0.0,0.0,0.0,0.0,0.0,0.0,0.0,0.0,0.0,0.0,0.0,0.0,0.0,0.0,0.0,0.0,0.0,0.0,0.0,0.0,0.0,0.0,0.0,0.0,0.0,0.0,0.0,0.0,0.0,0.0,0.0,0.0,0.0,0.0,0.0,0.0,0.0,0.0,0.0,0.0,0.0,0.0,0.0,0.0,0.0,0.0,0.0,0.0,0.0,0.0,0.0,0.0,-2.5094,-2.4985,-2.3943,-2.2959,-2.2018,0.0,0.0,0.0,0.0,0.0,0.0,0.0,0.0,0.0,0.0,0.0,0.0,0.0,0.0,0.0,0.0,0.0,0.0,0.0,0.0,0.0,0.0,0.0,0.0,0.0,0.0,0.0,0.0,0.0,0.0,0.0,0.0,0.0,0.0,0.0,0.0,0.0,0.0,0.0,0.0,0.0,0.0,0.0,0.0,0.0,0.0,0.0,0.0,0.0,0.0,0.0,0.0,0.0,0.0,0.0,0.0,0.0,0.0,0.0,0.0,0.0,0.0,0.0,0.0,0.0,0.0,0.0,0.0,0.0,0.0,0.0,0.0,0.0,0.0,0.0,0.0,0.0,0.0,0.0,0.0,0.0,0.0,0.0,0.0,0.0,0.0,0.0,0.0,0.0,0.0,0.0,0.0,0.0,0.0,0.0,0.0,0.0,0.0,0.0,0.0,0.0,0.0,0.0,0.0,0.0,0.0,0.0,0.0,0.0,0.0,0.0,0.0,-2.4707,-2.366,-2.2511,0.0,0.0,0.0,0.0,0.0,0.0,0.0,0.0,0.0,0.0,0.0,0.0,0.0,0.0,0.0,0.0,0.0,0.0,0.0,0.0,0.0,0.0,0.0,0.0,0.0,0.0,0.0,0.0,0.0,0.0,0.0,0.0,0.0,0.0,0.0,0.0,0.0,0.0,0.0,0.0,0.0,0.0,0.0,0.0,0.0,0.0,0.0,0.0,0.0,0.0,0.0,0.0,0.0,0.0,0.0,0.0,0.0,0.0,0.0,0.0,0.0,0.0,0.0,0.0,0.0,0.0,0.0,0.0,0.0,0.0,0.0,0.0,0.0,0.0,0.0,0.0,0.0,0.0,0.0,0.0,0.0,0.0,0.0,0.0,0.0,0.0,0.0,0.0,0.0,0.0,0.0,0.0,0.0,0.0,0.0,0.0,0.0,0.0,0.0,0.0,0.0,0.0,0.0,0.0,0.0,0.0,0.0,0.0,0.0,0.0,-2.6023,-2.7566,-2.7098,0.0,-2.4118,0.0,0.0,0.0,0.0,0.0,0.0,0.0,0.0,0.0,0.0,0.0,0.0,0.0,0.0,0.0,0.0,0.0,0.0,0.0,0.0,0.0,0.0,0.0,0.0,0.0,0.0,0.0,0.0,0.0,0.0,0.0,0.0,0.0,0.0,0.0,0.0,0.0,0.0,0.0,0.0,0.0,0.0,0.0,0.0,0.0,0.0,0.0,0.0,0.0,0.0,0.0,0.0,0.0,0.0,0.0,0.0,0.0,0.0,0.0,0.0,0.0,0.0,0.0,0.0,0.0,0.0,0.0,0.0,0.0,0.0,0.0,0.0,0.0,0.0,0.0,0.0,0.0,0.0,0.0,0.0,0.0,0.0,0.0,0.0,0.0,0.0,0.0,0.0,0.0,0.0,0.0,0.0,0.0,0.0,0.0,0.0,0.0,0.0,0.0,0.0,0.0,0.0,0.0,0.0,0.0,0.0,0.0,0.0,0.0,0.0,-2.7178,-2.789,-2.7023,-2.5874,0.0,0.0,0.0,0.0,0.0,0.0,0.0,0.0,0.0,0.0,0.0,0.0,0.0,0.0,0.0,0.0,0.0,0.0,0.0,0.0,0.0,0.0,0.0,0.0,0.0,0.0,0.0,0.0,0.0,0.0,0.0,0.0,0.0,0.0,0.0,0.0,0.0,0.0,0.0,0.0,0.0,0.0,0.0,0.0,0.0,0.0,0.0,0.0,0.0,0.0,0.0,0.0,0.0,0.0,0.0,0.0,0.0,0.0,0.0,0.0,0.0,0.0,0.0,0.0,0.0,0.0,0.0,0.0,0.0,0.0,0.0,0.0,0.0,0.0,0.0,0.0,0.0,0.0,0.0,0.0,0.0,0.0,0.0,0.0,0.0,0.0,0.0,0.0,0.0,0.0,0.0,0.0,0.0,0.0,0.0,0.0,0.0,0.0,0.0,0.0,0.0,0.0,0.0,0.0,0.0,0.0,0.0,0.0,0.0,0.0,-2.7505,-2.8063,-2.8326,-2.7531,-2.6255,-2.4541,0.0,0.0,0.0,0.0,0.0,0.0,0.0,0.0,0.0,0.0,0.0,0.0,0.0,0.0,0.0,0.0,0.0,0.0,0.0,0.0,0.0,0.0,0.0,0.0,0.0,0.0,0.0,0.0,0.0,0.0,0.0,0.0,0.0,0.0,0.0,0.0,0.0,0.0,0.0,0.0,0.0,0.0,0.0,0.0,0.0,0.0,0.0,0.0,0.0,0.0,0.0,0.0,0.0,0.0,0.0,0.0,0.0,0.0,0.0,0.0,0.0,0.0,0.0,0.0,0.0,0.0,0.0,0.0,0.0,0.0,0.0,0.0,0.0,0.0,0.0,0.0,0.0,0.0,0.0,0.0,0.0,0.0,0.0,0.0,0.0,0.0,0.0,0.0,0.0,0.0,0.0,0.0,0.0,0.0,0.0,0.0,0.0,0.0,0.0,0.0,0.0,0.0,0.0,0.0,0.0,0.0,0.0,0.0,0.0,-2.8659,-2.8466,-2.9641,-2.9501,-2.7811,0.0,0.0,0.0,0.0,0.0,0.0,0.0,0.0,0.0,0.0,0.0,0.0,0.0,0.0,0.0,0.0,0.0,0.0,0.0,0.0,0.0,0.0,0.0,0.0,0.0,0.0,0.0,0.0,0.0,0.0,0.0,0.0,0.0,0.0,0.0,0.0,0.0,0.0,0.0,0.0,0.0,0.0,0.0,0.0,0.0,0.0,0.0,0.0,0.0,0.0,0.0,0.0,0.0,0.0,0.0,0.0,0.0,0.0,0.0,0.0,0.0,0.0,0.0,0.0,0.0,0.0,0.0,0.0,0.0,0.0,0.0,0.0,0.0,0.0,0.0,0.0,0.0,0.0,0.0,0.0,0.0,0.0,0.0,0.0,0.0,0.0,0.0,0.0,0.0,0.0,0.0,0.0,0.0,0.0,0.0,0.0,0.0,0.0,0.0,0.0,0.0,0.0,0.0,0.0,0.0,0.0,0.0,0.0,0.0,-2.7096,-2.8121,-2.992,-3.2362,-3.0257,-2.8112,0.0,0.0,0.0,0.0,0.0,0.0,0.0,0.0,0.0,0.0,0.0,0.0,0.0,0.0,0.0,0.0,0.0,0.0,0.0,0.0,0.0,0.0,0.0,0.0,0.0,0.0,0.0,0.0,0.0,0.0,0.0,0.0,0.0,0.0,0.0,0.0,0.0,0.0,0.0,0.0,0.0,0.0,0.0,0.0,0.0,0.0,0.0,0.0,0.0,0.0,0.0,0.0,0.0,0.0,0.0,0.0,0.0,0.0,0.0,0.0,0.0,0.0,0.0,0.0,0.0,0.0,0.0,0.0,0.0,0.0,0.0,0.0,0.0,0.0,0.0,0.0,0.0,0.0,0.0,0.0,0.0,0.0,0.0,0.0,0.0,0.0,0.0,0.0,0.0,0.0,0.0,0.0,0.0,0.0,0.0,0.0,0.0,0.0,0.0,0.0,0.0,0.0,0.0,0.0,0.0,0.0,0.0,0.0,0.0,-2.6962,0.0,-3.1251,0.0,-3.0448,-2.8153,0.0,0.0,0.0,0.0,0.0,0.0,0.0,0.0,0.0,0.0,0.0,0.0,0.0,0.0,0.0,0.0,0.0,0.0,0.0,0.0,0.0,0.0,0.0,0.0,0.0,0.0,0.0,0.0,0.0,0.0,0.0,0.0,0.0,0.0,0.0,0.0,0.0,0.0,0.0,0.0,0.0,0.0,0.0,0.0,0.0,0.0,0.0,0.0,0.0,0.0,0.0,0.0,0.0,0.0,0.0,0.0,0.0,0.0,0.0,0.0,0.0,0.0,0.0,0.0,0.0,0.0,0.0,0.0,0.0,0.0,0.0,0.0,0.0,0.0,0.0,0.0,0.0,0.0,0.0,0.0,0.0,0.0,0.0,0.0,0.0,0.0,0.0,0.0,0.0,0.0,0.0,0.0,0.0,0.0,0.0,0.0,0.0,0.0,0.0,0.0,0.0,0.0,0.0,0.0,0.0,0.0,0.0,0.0,-2.6981,-3.0192,-3.1904,-3.2252,-3.1121,-3.0182,-2.7977,0.0,0.0,0.0,0.0,0.0,0.0,0.0,0.0,0.0,0.0,0.0,0.0,0.0,0.0,0.0,0.0,0.0,0.0,0.0,0.0,0.0,0.0,0.0,0.0,0.0,0.0,0.0,0.0,0.0,0.0,0.0,0.0,0.0,0.0,0.0,0.0,0.0,0.0,0.0,0.0,0.0,0.0,0.0,0.0,0.0,0.0,0.0,0.0,0.0,0.0,0.0,0.0,0.0,0.0,0.0,0.0,0.0,0.0,0.0,0.0,0.0,0.0,0.0,0.0,0.0,0.0,0.0,0.0,0.0,0.0,0.0,0.0,0.0,0.0,0.0,0.0,0.0,0.0,0.0,0.0,0.0,0.0,0.0,0.0,0.0,0.0,0.0,0.0,0.0,0.0,0.0,0.0,0.0,0.0,0.0,0.0,0.0,0.0,0.0,0.0,0.0,0.0,0.0,0.0,0.0,0.0,0.0,0.0,0.0,-2.9531,-3.1198,-3.2598,-3.3593,-3.0627,-2.858,0.0,0.0,0.0,0.0,0.0,0.0,0.0,0.0,0.0,0.0,0.0,0.0,0.0,0.0,0.0,0.0,0.0,0.0,0.0,0.0,0.0,0.0,0.0,0.0,0.0,0.0,0.0,0.0,0.0,0.0,0.0,0.0,0.0,0.0,0.0,0.0,0.0,0.0,0.0,0.0,0.0,0.0,0.0,0.0,0.0,0.0,0.0,0.0,0.0,0.0,0.0,0.0,0.0,0.0,0.0,0.0,0.0,0.0,0.0,0.0,0.0,0.0,0.0,0.0,0.0,0.0,0.0,0.0,0.0,0.0,0.0,0.0,0.0,0.0,0.0,0.0,0.0,0.0,0.0,0.0,0.0,0.0,0.0,0.0,0.0,0.0,0.0,0.0,0.0,0.0,0.0,0.0,0.0,0.0,0.0,0.0,0.0,0.0,0.0,0.0,0.0,0.0,0.0,0.0,0.0,0.0,0.0,0.0,0.0,-3.107,-3.2679,-3.399,-3.4868,-3.1686,-2.9586,-2.8773,0.0,0.0,0.0,0.0,0.0,0.0,0.0,0.0,0.0,0.0,0.0,0.0,0.0,0.0,0.0,0.0,0.0,0.0,0.0,0.0,0.0,0.0,0.0,0.0,0.0,0.0,0.0,0.0,0.0,0.0,0.0,0.0,0.0,0.0,0.0,0.0,0.0,0.0,0.0,0.0,0.0,0.0,0.0,0.0,0.0,0.0,0.0,0.0,0.0,0.0,0.0,0.0,0.0,0.0,0.0,0.0,0.0,0.0,0.0,0.0,0.0,0.0,0.0,0.0,0.0,0.0,0.0,0.0,0.0,0.0,0.0,0.0,0.0,0.0,0.0,0.0,0.0,0.0,0.0,0.0,0.0,0.0,0.0,0.0,0.0,0.0,0.0,0.0,0.0,0.0,0.0,0.0,0.0,0.0,0.0,0.0,0.0,0.0,0.0,0.0,0.0,0.0,0.0,0.0,0.0,0.0,0.0,0.0,-3.4263,-3.5911,-3.6135,-3.4896,-3.3157,-3.0941,0.0,0.0,0.0,0.0,0.0,0.0,0.0,0.0,0.0,0.0,0.0,0.0,0.0,0.0,0.0,0.0,0.0,0.0,0.0,0.0,0.0,0.0,0.0,0.0,0.0,0.0,0.0,0.0,0.0,0.0,0.0,0.0,0.0,0.0,0.0,0.0,0.0,0.0,0.0,0.0,0.0,0.0,0.0,0.0,0.0,0.0,0.0,0.0,0.0,0.0,0.0,0.0,0.0,0.0,0.0,0.0,0.0,0.0,0.0,0.0,0.0,0.0,0.0,0.0,0.0,0.0,0.0,0.0,0.0,0.0,0.0,0.0,0.0,0.0,0.0,0.0,0.0,0.0,0.0,0.0,0.0,0.0,0.0,0.0,0.0,0.0,0.0,0.0,0.0,0.0,0.0,0.0,0.0,0.0,0.0,0.0,0.0,0.0,0.0,0.0,0.0,0.0,0.0,0.0,0.0,0.0,0.0,0.0,0.0,-3.5141,-3.6796,-3.7275,-3.6434,-3.3762,-3.1447,0.0,0.0,0.0,0.0,0.0,0.0,0.0,0.0,0.0,0.0,0.0,0.0,0.0,0.0,0.0,0.0,0.0,0.0,0.0,0.0,0.0,0.0,0.0,0.0,0.0,0.0,0.0,0.0,0.0,0.0,0.0,0.0,0.0,0.0,0.0,0.0,0.0,0.0,0.0,0.0,0.0,0.0,0.0,0.0,0.0,0.0,0.0,0.0,0.0,0.0,0.0,0.0,0.0,0.0,0.0,0.0,0.0,0.0,0.0,0.0,0.0,0.0,0.0,0.0,0.0,0.0,0.0,0.0,0.0,0.0,0.0,0.0,0.0,0.0,0.0,0.0,0.0,0.0,0.0,0.0,0.0,0.0,0.0,0.0,0.0,0.0,0.0,0.0,0.0,0.0,0.0,0.0,0.0,0.0,0.0,0.0,0.0,0.0,0.0,0.0,0.0,0.0,0.0,0.0,0.0,0.0,0.0,0.0,-3.4834,-3.6519,-3.7759,-3.7991,-3.7152,-3.4669,-3.2328,0.0,0.0,0.0,0.0,0.0,0.0,0.0,0.0,0.0,0.0,0.0,0.0,0.0,0.0,0.0,0.0,0.0,0.0,0.0,0.0,0.0,0.0,0.0,0.0,0.0,0.0,0.0,0.0,0.0,0.0,0.0,0.0,0.0,0.0,0.0,0.0,0.0,0.0,0.0,0.0,0.0,0.0,0.0,0.0,0.0,0.0,0.0,0.0,0.0,0.0,0.0,0.0,0.0,0.0,0.0,0.0,0.0,0.0,0.0,0.0,0.0,0.0,0.0,0.0,0.0,0.0,0.0,0.0,0.0,0.0,0.0,0.0,0.0,0.0,0.0,0.0,0.0,0.0,0.0,0.0,0.0,0.0,0.0,0.0,0.0,0.0,0.0,0.0,0.0,0.0,0.0,0.0,0.0,0.0,0.0,0.0,0.0,0.0,0.0,0.0,0.0,0.0,0.0,0.0,0.0,0.0,0.0,0.0,-3.6212,-3.7712,-3.8325,-3.8128,-3.707,-3.5507,-3.3251,0.0,0.0,0.0,0.0,0.0,0.0,0.0,0.0,0.0,0.0,0.0,0.0,0.0,0.0,0.0,0.0,0.0,0.0,0.0,0.0,0.0,0.0,0.0,0.0,0.0,0.0,0.0,0.0,0.0,0.0,0.0,0.0,0.0,0.0,0.0,0.0,0.0,0.0,0.0,0.0,0.0,0.0,0.0,0.0,0.0,0.0,0.0,0.0,0.0,0.0,0.0,0.0,0.0,0.0,0.0,0.0,0.0,0.0,0.0,0.0,0.0,0.0,0.0,0.0,0.0,0.0,0.0,0.0,0.0,0.0,0.0,0.0,0.0,0.0,0.0,0.0,0.0,0.0,0.0,0.0,0.0,0.0,0.0,0.0,0.0,0.0,0.0,0.0,0.0,0.0,0.0,0.0,0.0,0.0,0.0,0.0,0.0,0.0,0.0,0.0,0.0,0.0,0.0,0.0,0.0,0.0,0.0,0.0,-3.5673,-3.6019,-3.6559,-3.6634,-3.6189,-3.5015,-3.3059,0.0,0.0,0.0,0.0,0.0,0.0,0.0,0.0,0.0,0.0,0.0,0.0,0.0,0.0,0.0,0.0,0.0,0.0,0.0,0.0,0.0,0.0,0.0,0.0,0.0,0.0,0.0,0.0,0.0,0.0,0.0,0.0,0.0,0.0,0.0,0.0,0.0,0.0,0.0,0.0,0.0,0.0,0.0,0.0,0.0,0.0,0.0,0.0,-2.8308,0.0,0.0,0.0,0.0,0.0,0.0,0.0,0.0,0.0,0.0,0.0,0.0,0.0,0.0,0.0,0.0,0.0,0.0,0.0,0.0,0.0,0.0,0.0,0.0,0.0,0.0,0.0,0.0,0.0,0.0,0.0,0.0,0.0,0.0,0.0,0.0,0.0,0.0,0.0,0.0,0.0,0.0,0.0,0.0,0.0,0.0,0.0,0.0,0.0,0.0,0.0,0.0,0.0,0.0,0.0,0.0,0.0,0.0,0.0,-3.5612,-3.5868,-3.6023,-3.5976,-3.5702,-3.4653,-3.2847,0.0,0.0,0.0,0.0,0.0,0.0,0.0,0.0,0.0,0.0,0.0,0.0,0.0,0.0,0.0,0.0,0.0,0.0,0.0,0.0,0.0,0.0,0.0,0.0,0.0,0.0,0.0,0.0,0.0,0.0,0.0,0.0,0.0,0.0,0.0,0.0,0.0,0.0,0.0,0.0,0.0,0.0,0.0,0.0,0.0,0.0,0.0,0.0,0.0,0.0,0.0,0.0,0.0,0.0,0.0,0.0,0.0,0.0,0.0,0.0,0.0,0.0,0.0,0.0,0.0,0.0,0.0,0.0,0.0,0.0,0.0,0.0,0.0,0.0,0.0,0.0,0.0,0.0,0.0,0.0,0.0,0.0,0.0,0.0,0.0,0.0,0.0,0.0,0.0,0.0,0.0,0.0,0.0,0.0,0.0,0.0,0.0,0.0,0.0,0.0,0.0,0.0,0.0,0.0,0.0,0.0,0.0,-3.3589,-3.5377,-3.6067,-3.5797,-3.5525,-3.5291,-3.433,-3.2596,-3.0106,0.0,0.0,0.0,0.0,0.0,0.0,0.0,0.0,0.0,0.0,0.0,0.0,0.0,0.0,0.0,0.0,0.0,0.0,0.0,0.0,0.0,0.0,0.0,0.0,0.0,0.0,0.0,0.0,0.0,0.0,0.0,0.0,0.0,0.0,0.0,0.0,0.0,0.0,-2.4704,-2.6825,0.0,0.0,0.0,0.0,0.0,0.0,0.0,0.0,-3.1219,0.0,0.0,0.0,0.0,0.0,0.0,0.0,0.0,0.0,0.0,0.0,0.0,0.0,0.0,0.0,0.0,0.0,0.0,0.0,0.0,0.0,0.0,0.0,0.0,0.0,0.0,0.0,0.0,0.0,0.0,0.0,0.0,0.0,0.0,0.0,0.0,0.0,0.0,0.0,0.0,0.0,0.0,0.0,0.0,0.0,0.0,0.0,0.0,0.0,0.0,0.0,0.0,0.0,0.0,0.0,0.0,-3.2442,-3.2831,-3.3718,-3.5249,-3.4762,-3.4463,-3.4405,-3.4009,-3.2357,-2.9409,0.0,0.0,0.0,0.0,0.0,0.0,0.0,0.0,0.0,0.0,0.0,0.0,0.0,0.0,0.0,0.0,0.0,0.0,0.0,0.0,0.0,0.0,0.0,0.0,0.0,0.0,0.0,0.0,0.0,0.0,0.0,0.0,0.0,0.0,0.0,0.0,0.0,0.0,0.0,-2.9304,-3.1158,0.0,0.0,0.0,0.0,0.0,0.0,0.0,0.0,-3.2596,0.0,0.0,0.0,0.0,0.0,0.0,0.0,0.0,0.0,0.0,0.0,0.0,0.0,0.0,0.0,0.0,0.0,0.0,0.0,0.0,0.0,0.0,0.0,0.0,0.0,0.0,0.0,0.0,0.0,0.0,0.0,0.0,0.0,0.0,0.0,0.0,0.0,0.0,0.0,0.0,0.0,0.0,0.0,0.0,0.0,0.0,0.0,0.0,0.0,0.0,0.0,0.0,0.0,0.0,0.0,-3.1219,-3.2798,-3.3951,-3.4598,-3.4349,-3.4135,-3.3981,-3.3053,-3.1439,0.0,0.0,0.0,0.0,0.0,0.0,0.0,0.0,0.0,0.0,0.0,0.0,0.0,0.0,0.0,0.0,0.0,0.0,0.0,0.0,0.0,0.0,0.0,0.0,0.0,0.0,0.0,0.0,0.0,0.0,0.0,0.0,0.0,0.0,0.0,0.0,0.0,0.0,0.0,0.0,-3.0503,-3.2467,-3.3683,0.0,0.0,0.0,0.0,0.0,0.0,-3.3476,-3.3281,0.0,0.0,0.0,0.0,0.0,0.0,0.0,0.0,0.0,0.0,0.0,0.0,0.0,0.0,0.0,0.0,0.0,0.0,0.0,0.0,0.0,0.0,0.0,0.0,0.0,0.0,0.0,0.0,0.0,0.0,0.0,0.0,0.0,0.0,0.0,0.0,0.0,0.0,0.0,0.0,0.0,0.0,0.0,0.0,0.0,0.0,0.0,0.0,0.0,0.0,0.0,0.0,0.0,0.0,0.0,-2.9535,-3.2354,-3.3875,-3.395,-3.3899,-3.3778,-3.3532,-3.2149,-3.0577,0.0,0.0,0.0,0.0,0.0,0.0,0.0,0.0,0.0,0.0,0.0,0.0,0.0,0.0,0.0,0.0,0.0,0.0,0.0,0.0,0.0,0.0,0.0,0.0,0.0,0.0,0.0,0.0,0.0,0.0,0.0,0.0,0.0,0.0,0.0,0.0,0.0,0.0,0.0,0.0,0.0,-3.4179,-3.5133,-3.5536,0.0,0.0,0.0,0.0,-3.4541,-3.4559,0.0,0.0,0.0,0.0,0.0,0.0,0.0,0.0,0.0,0.0,0.0,0.0,0.0,0.0,0.0,0.0,0.0,0.0,0.0,0.0,0.0,0.0,0.0,0.0,0.0,0.0,0.0,0.0,0.0,0.0,0.0,0.0,0.0,0.0,0.0,0.0,0.0,0.0,0.0,0.0,0.0,0.0,0.0,0.0,0.0,0.0,0.0,0.0,0.0,0.0,0.0,0.0,0.0,0.0,0.0,0.0,-2.8609,-3.0177,-3.1693,-3.3033,-3.289,-3.275,-3.2729,-3.1861,-3.0313,0.0,0.0,0.0,0.0,0.0,0.0,0.0,0.0,0.0,0.0,0.0,0.0,0.0,0.0,0.0,0.0,0.0,0.0,0.0,0.0,0.0,0.0,0.0,0.0,0.0,0.0,0.0,0.0,0.0,0.0,0.0,0.0,0.0,0.0,0.0,0.0,0.0,0.0,0.0,0.0,0.0,-3.7551,-3.6321,-3.7386,-3.7991,0.0,0.0,-3.707,-3.707,-3.707,0.0,0.0,0.0,0.0,0.0,0.0,0.0,0.0,0.0,0.0,0.0,0.0,0.0,0.0,0.0,0.0,0.0,0.0,0.0,0.0,0.0,0.0,0.0,0.0,0.0,0.0,0.0,0.0,0.0,0.0,0.0,0.0,0.0,0.0,0.0,0.0,0.0,0.0,0.0,0.0,0.0,0.0,0.0,0.0,0.0,0.0,0.0,0.0,0.0,0.0,0.0,0.0,0.0,0.0,0.0,-2.7291,-2.8144,-3.0009,-3.1585,-3.2718,-3.2213,-3.2137,-3.2583,-3.0485,-2.8881,0.0,0.0,0.0,0.0,0.0,0.0,0.0,0.0,0.0,0.0,0.0,0.0,0.0,0.0,0.0,0.0,0.0,0.0,0.0,0.0,0.0,0.0,0.0,0.0,0.0,0.0,0.0,0.0,0.0,0.0,0.0,0.0,0.0,0.0,0.0,0.0,0.0,0.0,0.0,0.0,0.0,0.0,-3.7015,-3.7973,0.0,0.0,0.0,-3.7511,-3.7511,0.0,0.0,0.0,0.0,0.0,0.0,0.0,0.0,0.0,0.0,0.0,0.0,0.0,0.0,0.0,0.0,0.0,0.0,0.0,0.0,0.0,0.0,0.0,0.0,0.0,0.0,0.0,0.0,0.0,0.0,0.0,0.0,0.0,0.0,0.0,0.0,0.0,0.0,0.0,0.0,0.0,0.0,0.0,0.0,0.0,0.0,0.0,0.0,0.0,0.0,0.0,0.0,0.0,0.0,0.0,0.0,0.0,-2.7559,-2.9873,-3.1384,-3.1959,-3.1403,-3.1384,-3.1922,-2.9255,0.0,0.0,0.0,0.0,0.0,0.0,0.0,0.0,0.0,0.0,0.0,0.0,0.0,0.0,0.0,0.0,0.0,0.0,0.0,0.0,0.0,0.0,0.0,0.0,0.0,0.0,0.0,-2.3309,0.0,0.0,0.0,0.0,0.0,0.0,0.0,0.0,0.0,0.0,0.0,0.0,0.0,0.0,-3.7037,-3.7456,-3.834,-3.8707,0.0,0.0,-3.7511,-3.7511,-3.6831,-3.6106,0.0,0.0,0.0,0.0,0.0,0.0,0.0,0.0,0.0,0.0,0.0,0.0,0.0,0.0,0.0,0.0,0.0,0.0,0.0,0.0,0.0,0.0,0.0,0.0,0.0,0.0,0.0,0.0,0.0,0.0,0.0,0.0,0.0,0.0,0.0,0.0,0.0,0.0,0.0,0.0,0.0,0.0,0.0,0.0,0.0,0.0,0.0,0.0,0.0,0.0,0.0,0.0,0.0,0.0,0.0,-2.6759,-2.9072,-3.0301,-3.0356,-3.032,-3.0301,-3.0338,-2.8698,-2.7291,0.0,0.0,0.0,0.0,0.0,0.0,0.0,0.0,0.0,0.0,0.0,0.0,0.0,0.0,0.0,0.0,0.0,0.0,0.0,0.0,0.0,0.0,0.0,0.0,0.0,0.0,0.0,0.0,0.0,0.0,0.0,0.0,0.0,0.0,0.0,0.0,0.0,0.0,0.0,0.0,0.0,-3.8285,-3.7603,-3.8833,-3.9533,0.0,0.0,-3.7511,-3.7511,-3.6817,-3.6013,-3.5178,0.0,0.0,0.0,0.0,0.0,0.0,0.0,0.0,0.0,0.0,0.0,0.0,0.0,0.0,0.0,0.0,0.0,0.0,0.0,0.0,0.0,0.0,0.0,0.0,0.0,0.0,0.0,0.0,0.0,0.0,0.0,0.0,0.0,0.0,0.0,0.0,0.0,0.0,0.0,0.0,0.0,0.0,0.0,0.0,0.0,0.0,0.0,0.0,0.0,0.0,0.0,0.0,0.0,-2.6602,-2.6638,-2.8491,-2.9714,-3.0173,-2.9721,-2.9714,-3.0173,-2.8172,-2.6757,0.0,0.0,0.0,0.0,0.0,0.0,0.0,0.0,0.0,0.0,0.0,0.0,0.0,0.0,0.0,0.0,0.0,0.0,0.0,0.0,0.0,0.0,0.0,0.0,0.0,0.0,0.0,0.0,-2.464,-2.4934,-2.4952,0.0,0.0,0.0,0.0,0.0,0.0,0.0,0.0,0.0,0.0,-3.8043,-3.8193,-3.8762,0.0,0.0,-3.8432,-3.8046,-3.7584,-3.6831,-3.6009,-3.5151,-3.4229,0.0,0.0,0.0,0.0,0.0,0.0,0.0,0.0,0.0,0.0,0.0,0.0,0.0,0.0,0.0,0.0,0.0,0.0,0.0,0.0,0.0,0.0,0.0,0.0,0.0,0.0,0.0,0.0,0.0,0.0,0.0,0.0,0.0,0.0,0.0,0.0,0.0,0.0,0.0,0.0,0.0,0.0,0.0,0.0,0.0,0.0,0.0,0.0,0.0,0.0,0.0,0.0,-2.6602,-2.662,-2.8198,-2.9262,-2.9824,-2.9168,-2.9149,-2.9739,-2.7613,-2.6277,0.0,0.0,0.0,0.0,0.0,0.0,0.0,0.0,0.0,0.0,0.0,0.0,0.0,0.0,0.0,0.0,0.0,0.0,0.0,0.0,0.0,0.0,0.0,0.0,0.0,0.0,0.0,0.0,-2.5062,-2.5384,-2.5403,0.0,0.0,0.0,0.0,0.0,0.0,0.0,0.0,0.0,0.0,-3.7713,-3.8248,-3.834,-3.8322,-3.834,-3.8138,-3.7881,-3.7566,-3.6831,-3.6021,-3.5268,0.0,0.0,0.0,0.0,0.0,0.0,0.0,0.0,0.0,0.0,0.0,0.0,0.0,0.0,0.0,0.0,0.0,0.0,0.0,0.0,0.0,0.0,0.0,0.0,0.0,0.0,0.0,0.0,0.0,0.0,0.0,0.0,0.0,0.0,0.0,0.0,0.0,0.0,0.0,0.0,0.0,0.0,0.0,0.0,0.0,0.0,0.0,0.0,0.0,0.0,0.0,0.0,0.0,-2.6583,-2.6602,-2.8113,-2.8975,-2.9019,-2.862,-2.8602,-2.8922,-2.7078,-2.5877,-2.5557,0.0,0.0,0.0,0.0,0.0,0.0,0.0,0.0,0.0,0.0,0.0,0.0,0.0,0.0,0.0,0.0,0.0,0.0,0.0,0.0,0.0,0.0,0.0,0.0,0.0,0.0,-2.5264,-2.5374,-2.5374,0.0,0.0,0.0,0.0,0.0,0.0,0.0,0.0,0.0,0.0,-3.645,-3.7511,-3.7514,-3.7547,-3.7603,-3.7584,-3.6927,-3.6633,-3.7386,-3.6798,-3.6117,0.0,0.0,0.0,0.0,0.0,0.0,0.0,0.0,0.0,0.0,0.0,0.0,0.0,0.0,0.0,0.0,0.0,0.0,0.0,0.0,0.0,0.0,0.0,0.0,0.0,0.0,0.0,-2.5493,-2.5007,0.0,0.0,0.0,0.0,0.0,0.0,0.0,0.0,0.0,0.0,0.0,-2.6727,-2.7177,0.0,0.0,0.0,0.0,0.0,0.0,0.0,0.0,0.0,0.0,0.0,0.0,-2.5487,-2.6191,-2.6763,-2.7447,-2.8214,-2.7833,-2.7594,-2.7541,-2.6338,-2.5025,-2.3697,0.0,0.0,0.0,0.0,0.0,0.0,0.0,0.0,0.0,0.0,0.0,0.0,0.0,0.0,0.0,0.0,0.0,0.0,0.0,0.0,0.0,0.0,0.0,0.0,0.0,-2.5099,0.0,0.0,0.0,0.0,0.0,0.0,0.0,0.0,0.0,0.0,0.0,-3.5048,-3.5366,-3.6767,-3.7602,-3.7108,-3.7765,-3.8285,0.0,0.0,0.0,0.0,0.0,0.0,0.0,0.0,0.0,0.0,0.0,0.0,0.0,0.0,-3.2628,-3.1427,-3.0615,-3.0089,-3.0089,0.0,0.0,0.0,0.0,0.0,0.0,0.0,0.0,0.0,0.0,0.0,0.0,0.0,0.0,-2.63,0.0,-2.5833,0.0,0.0,0.0,0.0,0.0,0.0,0.0,0.0,-2.7842,-2.7952,-2.7464,-2.7839,-2.7727,0.0,-2.7101,-2.6626,0.0,0.0,0.0,0.0,0.0,0.0,0.0,0.0,-2.4746,-2.5416,-2.5763,-2.631,-2.7049,-2.6685,-2.6449,-2.6357,-2.5464,-2.4244,-2.276,-2.2453,-2.2313,0.0,0.0,0.0,0.0,0.0,0.0,0.0,0.0,0.0,0.0,0.0,0.0,0.0,0.0,0.0,0.0,0.0,0.0,0.0,0.0,0.0,0.0,0.0,-2.5604,0.0,0.0,0.0,0.0,0.0,0.0,0.0,0.0,0.0,-3.252,-3.4337,-3.5661,-3.5695,-3.6825,-3.729,-3.6249,0.0,0.0,0.0,0.0,0.0,0.0,0.0,-3.5164,-3.4621,-3.4126,-3.3651,-3.3225,-3.3118,-3.3063,-3.2805,0.0,0.0,-3.2138,-3.1376,-3.0937,-3.1207,-3.0852,-3.0565,-3.0818,-3.0649,-3.048,0.0,0.0,0.0,0.0,0.0,0.0,0.0,0.0,-2.6712,-2.6704,0.0,-2.6631,0.0,0.0,0.0,0.0,0.0,0.0,0.0,0.0,-2.8608,-2.8982,-2.8922,-2.8547,-2.8376,-2.8368,-2.799,-2.7419,-2.6653,-2.6185,0.0,0.0,0.0,0.0,0.0,0.0,-2.4352,-2.4422,-2.5116,-2.5501,-2.5569,-2.5232,-2.5201,-2.5485,-2.4497,-2.3549,-2.2721,-2.2422,-2.2313,-2.2313,-2.2313,0.0,0.0,0.0,0.0,0.0,0.0,0.0,0.0,0.0,0.0,0.0,0.0,0.0,0.0,0.0,0.0,0.0,0.0,0.0,0.0,-2.6544,0.0,0.0,0.0,0.0,0.0,0.0,0.0,0.0,0.0,0.0,-3.2702,-3.45,-3.5895,-3.5878,0.0,0.0,0.0,0.0,-3.4588,-3.3913,-3.3772,-3.4055,-3.4783,-3.4853,-3.4676,-3.4243,0.0,0.0,-3.2496,-3.2869,-3.3072,-3.2395,-3.2801,-3.3322,-3.3254,-3.2645,-3.2446,-3.3068,-3.2087,-3.1478,-3.2005,-3.1565,-3.114,-2.9384,0.0,0.0,0.0,0.0,-2.7695,-2.7787,-2.8308,-2.8308,-2.7978,-2.7457,-2.7457,0.0,0.0,0.0,0.0,0.0,0.0,-2.8117,-2.8627,-2.8585,-2.8565,-2.8552,-2.8197,-2.8051,-2.8016,-2.7418,-2.6852,-2.6336,-2.568,-2.4909,-2.4029,0.0,0.0,0.0,0.0,-2.3277,-2.3972,-2.3698,-2.394,-2.4797,-2.4444,-2.4168,-2.4038,-2.3226,-2.2678,-2.2412,-2.2335,-2.2313,-2.2313,-2.2313,0.0,0.0,0.0,0.0,0.0,0.0,0.0,0.0,0.0,0.0,0.0,0.0,0.0,0.0,0.0,0.0,0.0,0.0,0.0,-2.5237,-2.5619,-2.6048,0.0,0.0,0.0,0.0,0.0,0.0,0.0,0.0,0.0,-3.3905,-3.5264,-3.6063,0.0,0.0,-3.5494,-3.45,-3.4657,-3.4783,-3.4587,0.0,0.0,0.0,-3.3962,-3.362,-3.3618,-3.3196,-3.2713,-3.2385,-3.2036,-3.1749,-3.1529,-3.1681,-3.1833,-3.185,-3.2087,-3.2344,-3.2513,-3.1833,-3.1275,-3.1427,-3.1345,-3.1173,-3.0766,-3.0124,-2.9335,-2.8987,-2.895,-2.8491,-2.8558,-2.8987,-2.8987,-2.873,-2.8282,-2.8282,-2.7824,-2.7034,-2.6103,0.0,0.0,0.0,-2.7344,-2.8118,-2.7551,-2.7466,-2.7696,-2.7105,-2.6796,-2.6764,-2.6184,-2.5756,-2.5519,-2.507,-2.4454,-2.3724,0.0,0.0,-2.2554,-2.2388,-2.2612,-2.321,-2.2794,-2.289,-2.3611,-2.3389,-2.315,-2.2967,-2.2533,-2.2313,-2.2313,-2.2313,-2.2313,-2.2313,-2.2313,-2.2313,0.0,0.0,0.0,0.0,0.0,0.0,0.0,0.0,0.0,0.0,0.0,-2.3643,-2.3907,0.0,0.0,0.0,-2.4701,-2.5415,-2.595,-2.6499,0.0,0.0,0.0,0.0,0.0,0.0,0.0,-3.3616,-3.4104,-3.4336,-3.4489,-3.5164,-3.5582,-3.5444,-3.5173,-3.471,-3.3971,0.0,-3.3767,-3.3488,-3.3435,-3.3342,-3.3053,-3.2636,-3.24,-3.2503,-3.1918,-3.1427,-3.1413,-3.0838,-3.0364,-3.033,-3.0328,-3.0311,-3.0311,-3.0702,-3.1125,-3.1343,-3.1089,-3.07,-3.0395,-3.033,-3.0347,-3.1549,-3.0124,-2.9335,-2.8987,-2.8987,-2.8987,-2.8987,-2.8987,-2.8987,-2.8987,-2.8987,-2.8987,-2.8528,-2.7647,-2.667,0.0,0.0,-2.5761,-2.6037,-2.6663,-2.5914,-2.5954,-2.6591,-2.5562,-2.5048,-2.5034,-2.462,-2.4421,-2.4406,-2.4337,-2.3983,-2.334,-2.3308,-2.297,-2.233,-2.2313,-2.2313,-2.2313,-2.2313,-2.2313,-2.2313,-2.2313,-2.2313,-2.2313,-2.2313,-2.2313,-2.2313,-2.2313,-2.2313,-2.2313,-2.2313,-2.2313,-2.2313,0.0,0.0,0.0,0.0,0.0,0.0,0.0,0.0,0.0,0.0,0.0,0.0,0.0,0.0,0.0,-2.5817,0.0,-2.7771,-2.8431,0.0,0.0,0.0,-3.0091,-3.0336,-3.2444,-3.3757,-3.3431,0.0,0.0,0.0,0.0,-3.4658,-3.5329,-3.4776,-3.4066,-3.3406,-3.2686,-3.1972,-3.1438,-3.1176,-3.1142,-3.1252,-3.1097,-3.1012,-3.0987,-3.0463,-3.0074,-3.004,-2.955,-2.9077,-2.9094,-2.901,-2.9027,-2.901,-2.9128,-2.9213,-2.982,-2.9989,-2.9803,-2.9264,-2.9111,-2.9145,-3.0558,-3.0136,-2.9335,-2.8987,-2.8987,-2.8987,-2.8987,-2.8987,-2.8987,-2.8987,-2.8987,-2.8987,-2.8216,-2.6895,-2.7255,-2.6588,-2.522,-2.5721,-2.5936,-2.5856,-2.5419,-2.5331,-2.5478,-2.4903,-2.4641,-2.4592,-2.396,-2.3663,-2.3613,-2.3105,-2.2736,-2.2564,-2.2564,-2.2479,-2.2313,-2.2313,-2.2313,-2.2313,-2.2313,-2.2313,-2.2313,-2.2313,-2.2313,-2.2313,-2.2313,-2.2313,-2.2313,-2.2313,-2.2313,-2.2313,-2.2313,-2.2313,-2.2313,-2.2313,0.0,0.0,0.0,0.0,0.0,0.0,0.0,0.0,0.0,-2.3881,-2.4252,0.0,-2.4569,0.0,-2.6291,-2.7103,-2.8084,-2.8114,0.0,0.0,-3.0209,-3.074,-3.2412,-3.2662,-3.287,-3.3339,-3.3728,-3.3863,-3.3694,-3.366,-3.3728,-3.3914,-3.3271,-3.2767,-3.2564,-3.1918,-3.1393,-3.1173,-3.0717,-3.0362,-3.0328,-2.9871,-2.9568,-2.9517,-2.9364,-2.9262,-2.9245,-2.9128,-2.8993,-2.8993,-2.8993,-2.8993,-2.8959,-2.8993,-2.879,-2.8518,-2.8822,-2.9194,-2.9027,-2.8976,-2.8976,-2.9989,-2.9629,-2.9189,-2.8987,-2.8987,-2.8987,-2.8987,-2.8987,-2.8987,-2.8987,-2.8987,-2.862,-2.7758,-2.6609,-2.6538,-2.5846,-2.4706,-2.4622,-2.46,-2.4586,-2.4088,-2.4024,-2.4319,-2.3779,-2.3526,-2.3511,-2.3105,-2.2919,-2.2885,-2.2513,-2.2313,-2.2313,-2.2313,-2.2313,-2.2313,-2.2313,-2.2313,-2.2313,-2.2313,-2.2313,-2.2313,-2.2313,-2.2313,-2.2313,-2.2313,-2.2313,-2.2313,-2.2313,-2.2313,-2.2313,-2.2313,-2.2313,-2.2313,-2.2313,-2.2313,0.0,0.0,0.0,0.0,0.0,0.0,0.0,0.0,0.0,0.0,0.0,-2.568,0.0,-2.7486,0.0,-2.9231,-2.9328,-2.982,-3.1072,-3.1123,-3.1562,-3.2801,-3.2831,-3.2933,-3.3339,-3.3389,-3.3389,-3.3389,-3.3119,-3.2916,-3.2899,-3.2005,-3.1546,-3.2073,-3.141,-3.0717,-3.0683,-3.0091,-2.9617,-2.9617,-2.9281,-2.8993,-2.8976,-2.8705,-2.8467,-2.845,-2.818,-2.7977,-2.7977,-2.7977,-2.7977,-2.7977,-2.7977,-2.7807,-2.7537,-2.7655,-2.7943,-2.7977,-2.7977,-2.7977,-2.9641,-2.9005,-2.8987,-2.895,-2.8858,-2.884,-2.8858,-2.884,-2.873,-2.8693,-2.8656,-2.7952,-2.72,-2.6389,-2.5405,-2.4698,-2.4192,-2.3225,-2.2948,-2.3204,-2.2598,-2.2634,-2.3224,-2.26,-2.2313,-2.2313,-2.2313,-2.2313,-2.2313,-2.2313,-2.2313,-2.2313,-2.2313,-2.2313,-2.2313,-2.2313,-2.2313,-2.2313,-2.2313,-2.2313,-2.2313,-2.2313,-2.2313,-2.2313,-2.2313,-2.2313,-2.2313,-2.2313,-2.2313,-2.2313,-2.2313,-2.2313,-2.2313,-2.2313,-2.2313,0.0,-2.2313,0.0,0.0,0.0,0.0,0.0,0.0,0.0,0.0,-2.6149,-2.7078,-2.8506,-2.9021,-2.9683,-3.0591,-3.0997,-3.119,-3.1207,-3.1785,-3.2158,-3.2192,-3.273,-3.3119,-3.3119,-3.3119,-3.3102,-3.2882,-3.2408,-3.2005,-3.1735,-3.0784,-3.0446,-3.1447,-3.0717,-2.9956,-2.9973,-2.9348,-2.8789,-2.8671,-2.8671,-2.8604,-2.8587,-2.8112,-2.7672,-2.7672,-2.7182,-2.6742,-2.6742,-2.6708,-2.6607,-2.6556,-2.6505,-2.642,-2.637,-2.6387,-2.6471,-2.6573,-2.6623,-2.6522,-2.9133,-2.8987,-2.8987,-2.8601,-2.8026,-2.8037,-2.8026,-2.797,-2.7336,-2.7042,-2.7042,-2.6877,-2.6392,-2.565,-2.5397,-2.461,-2.3431,-2.32,-2.2906,-2.2513,-2.2364,-2.2364,-2.2499,-2.2347,-2.2313,-2.2313,-2.2313,-2.2313,-2.2313,-2.2313,-2.2313,-2.2313,-2.2313,-2.2313,0.0,0.0,0.0,0.0,-2.2313,-2.2313,-2.2313,-2.2313,-2.2313,-2.2313,-2.2313,0.0,-2.2313,-2.2313,-2.2313,-2.2313,-2.2313,0.0,0.0,0.0,0.0,0.0,0.0,0.0,0.0,0.0,0.0,0.0,-2.5365,-2.5493,-2.6,-2.7503,-2.8813,-2.9695,-3.0385,-3.0874,-3.1053,-3.1164,-3.119,-3.1207,-3.1326,-3.1393,-3.141,-3.1546,-3.1613,-3.1613,-3.1613,-3.1376,-3.0886,-3.0598,-3.0294,-2.9839,-2.9399,-2.9314,-2.9585,-2.9399,-2.923,-2.9144,-2.8484,-2.7773,-2.7215,-2.7148,-2.7148,-2.7114,-2.7063,-2.6894,-2.6843,-2.6793,-2.6657,-2.664,-2.6218,-2.5812,-2.5812,-2.5321,-2.5015,-2.4931,-2.4948,-2.51,-2.5676,-2.5795,-2.5642,-2.8748,0.0,-2.84,-2.7923,0.0,-2.6778,-2.6623,-2.6623,-2.6612,-2.6374,-2.6007,-2.6007,-2.5566,-2.4795,-2.4639,-2.4071,-2.3189,-2.3033,-2.2704,-2.231,-2.2313,-2.2313,-2.2313,-2.2313,-2.2313,-2.2313,-2.2313,-2.2313,-2.2313,-2.2313,-2.2313,-2.2313,-2.2313,-2.2313,-2.2313,-2.2313,-2.2313,-2.2313,-2.2313,-2.2313,-2.2313,-2.2313,-2.2313,-2.2313,0.0,0.0,0.0,0.0,0.0,0.0,0.0,0.0,0.0,0.0,0.0,-2.2313,-2.2313,-2.2448,-2.2852,-2.3511,-2.4271,-2.4983,-2.5727,-2.6368,-2.6888,-2.8201,-2.9296,-3.004,-3.0768,-3.1055,-3.07,-3.097,-3.0922,-3.0226,-3.0429,-3.0531,-3.0194,-3.011,-3.0127,-3.011,-3.0127,-2.9939,-2.9617,-2.955,-2.9414,-2.9044,-2.8619,-2.8264,-2.7994,-2.818,-2.8298,-2.7927,-2.7215,-2.659,-2.6218,-2.5811,-2.5642,-2.5608,-2.5592,-2.5608,-2.5608,-2.5608,-2.5608,-2.5608,-2.5303,-2.505,-2.5033,-2.4745,-2.4508,-2.4508,-2.4508,-2.444,-2.4594,-2.4797,-2.4965,-2.8381,-2.7787,-2.7651,-2.7126,-2.6337,-2.5668,-2.5311,-2.5246,0.0,0.0,0.0,-2.5191,-2.4842,-2.4198,-2.3907,-2.3599,-2.3288,-2.3009,-2.273,-2.247,-2.2388,-2.2402,-2.2457,-2.2405,-2.236,-2.236,-2.236,-2.2349,-2.2313,-2.2313,-2.2313,-2.2313,-2.2313,-2.2313,-2.2313,-2.2313,-2.2313,-2.2313,-2.2313,-2.2313,-2.2313,-2.2313,-2.2313,-2.2313,-2.2313,-2.2313,-2.2313,-2.2313,-2.2313,-2.2313,-2.2313,-2.2313,-2.2313,-2.2313,-2.2313,-2.2313,-2.2313,-2.2364,-2.2499,-2.3613,-2.4423,-2.4677,-2.5929,-2.7012,-2.7756,-2.8416,-2.9093,-2.9837,-3.0463,-3.0567,-2.9989,-3.0429,-3.0347,-2.9128,-2.9533,-2.9651,-2.9111,-2.8993,-2.9061,-2.8993,-2.9061,-2.8942,-2.8824,-2.879,-2.8636,-2.835,-2.7723,-2.7148,-2.6573,-2.6759,-2.6894,-2.6386,-2.5828,-2.5439,-2.5321,-2.4982,-2.4525,-2.4626,-2.4575,-2.4508,-2.4508,-2.4508,-2.4508,-2.4626,-2.4423,-2.4321,-2.4305,-2.4135,-2.4135,-2.4118,-2.4118,-2.3917,-2.3444,-2.3695,-2.4003,-2.7897,-2.7743,-2.7053,-2.63,-2.5558,-2.5429,-2.5007,-2.4392,-2.4502,-2.4483,-2.4383,-2.4373,-2.4328,-2.4199,-2.4161,-2.3937,-2.3621,-2.3577,-2.338,0.0,-2.2776,-2.2802,-2.3051,-2.2776,-2.2647,-2.2647,-2.2665,-2.2527,-2.2338,-2.2296,-2.2313,-2.2313,-2.2313,-2.2313,-2.2313,-2.2313,-2.2313,-2.2313,-2.2313,-2.2313,-2.2313,-2.2313,-2.2313,-2.2313,-2.2313,-2.2313,-2.2313,-2.2313,-2.2313,-2.2313,-2.2313,-2.2313,-2.2313,-2.2313,-2.2313,-2.2313,-2.2313,-2.2567,-2.319,-2.3458,-2.4103,-2.5338,-2.6218,-2.7012,-2.7722,-2.7891,-2.8315,-2.9077,-2.9297,-2.9281,-2.9162,-2.9281,-2.9281,-2.8993,-2.9077,-2.9094,-2.8908,-2.8908,-2.8891,-2.8874,-2.8993,-2.8636,-2.8044,-2.7926,-2.7435,-2.6437,-2.6065,-2.5659,-2.51,-2.4897,-2.4914,-2.4829,-2.4745,-2.466,-2.4626,-2.4575,-2.4372,-2.4508,-2.4406,-2.4321,-2.4305,-2.4305,-2.4321,-2.444,-2.3932,-2.3594,-2.3528,-2.3004,-2.2835,-2.2769,-2.2801,-2.2682,-2.2564,-2.2654,-2.2567,-2.6898,-2.6476,-2.6109,-2.5503,-2.4768,-2.475,-2.4548,-2.4208,-2.4199,-2.4199,-2.4199,-2.4199,-2.4199,-2.418,-2.4006,-2.3837,-2.3692,-2.3522,-2.3346,-2.3189,-2.3045,-2.3045,-2.3177,-2.3045,-2.2972,-2.2967,-2.2972,-2.2815,-2.2541,-2.2527,-2.2453,-2.231,-2.2313,-2.2313,-2.2313,-2.2313,-2.2313,-2.2313,-2.2313,-2.2313,-2.2313,-2.2313,-2.2313,-2.2313,-2.2313,-2.2313,-2.2313,-2.2313,-2.2313,-2.2313,-2.2313,-2.2313,-2.2313,-2.2313,-2.2313,-2.2313,-2.2313,-2.2462,-2.2784,-2.3173,-2.3849,-2.4931,-2.5676,-2.6234,-2.6573,-2.735,-2.7942,-2.8332,-2.8739,-2.8824,-2.8433,-2.8756,-2.8671,-2.7842,-2.8095,-2.818,-2.7825,-2.774,-2.7757,-2.774,-2.7757,-2.7452,-2.6708,-2.6607,-2.6235,-2.5169,-2.4712,-2.4289,-2.3932,-2.3562,-2.3628,-2.4288,-2.4186,-2.3949,-2.3898,-2.3545,-2.3342,-2.3291,-2.3308,-2.3291,-2.3308,-2.3308,-2.3325,-2.3291,-2.3004,-2.2835,-2.2818,-2.2564,-2.2347,-2.2313,-2.2313,-2.2313,-2.2296,-2.212,-2.1869,-2.598,-2.5403,-2.5201,-2.4768,-2.4218,-2.4199,-2.4199,-2.4199,-2.4199,-2.4199,-2.4199,-2.4199,-2.4199,-2.417,-2.3945,-2.3816,-2.3774,-2.3526,-2.3444,-2.3432,-2.3346,-2.3357,-2.3414,-2.3357,-2.3288,-2.32,-2.3189,-2.2996,-2.2647,-2.2612,-2.2497,-2.2324,-2.2313,-2.2313,-2.2313,-2.2313,-2.2313,-2.2313,-2.2313,-2.2313,-2.2313,-2.2313,-2.2313,-2.2313,-2.2313,-2.2313,-2.2313,-2.2313,-2.2313,-2.2313,-2.2313,-2.2313,-2.2313,-2.2313,-2.2313,-2.2313,-2.2313,-2.2313,-2.2347,-2.2987,-2.3661,-2.4203,-2.4932,-2.5355,-2.5439,-2.637,-2.7215,-2.7553,-2.8078,-2.8197,-2.774,-2.8061,-2.7927,-2.6674,-2.6928,-2.6945,-2.6336,-2.6201,-2.62,-2.6201,-2.6184,-2.5997,-2.5507,-2.5338,-2.505,-2.4372,-2.3628,-2.319,-2.3088,-2.2632,-2.2868,-2.346,-2.3494,-2.3173,-2.3122,-2.275,-2.2415,-2.2313,-2.2364,-2.2431,-2.2431,-2.2364,-2.233,-2.2415,-2.2381,-2.2364,-2.233,-2.2313,-2.2313,-2.2313,-2.2313,-2.2313,-2.2282,-2.1959,-2.1643,-2.5476,-2.5283,-2.4622,-2.4263,-2.4199,-2.4199,-2.4199,-2.4199,-2.4199,-2.4199,-2.4199,-2.4199,-2.4199,-2.4208,-2.4161,-2.4141,-2.4123,-2.4113,-2.4084,-2.4054,-2.3795,-2.3816,-2.4026,-2.3795,-2.3482,-2.3265,-2.3224,-2.2982,-2.2443,-2.2346,-2.2338,-2.2296,-2.2313,-2.2313,-2.2313,-2.2313,-2.2313,-2.2313,-2.2313,-2.2313,-2.2313,-2.2313,-2.2313,-2.2313,-2.2313,-2.2313,-2.2313,-2.2313,-2.2313,-2.2313,-2.2313,-2.2313,-2.2313,-2.2313,-2.2313,-2.2313,-2.2313,-2.2313,-2.2347,-2.2987,-2.3393,-2.3528,-2.4186,-2.4609,-2.4609,-2.4745,-2.5422,-2.6437,-2.6843,-2.6843,-2.681,-2.6894,-2.6573,-2.5862,-2.5812,-2.5524,-2.4982,-2.4677,-2.4694,-2.4726,-2.488,-2.4677,-2.4643,-2.4558,-2.4271,-2.3594,-2.297,-2.2533,-2.2516,-2.2446,-2.2313,-2.2533,-2.2431,-2.2465,-2.2448,-2.2381,-2.2313,-2.2313,-2.2313,-2.2313,-2.2313,-2.2313,-2.2313,-2.2313,-2.2313,-2.2313,-2.2313,-2.2313,-2.2313,-2.2279,-2.2262,-2.2245,-2.222,-2.1809,-2.1492,-2.4792,-2.4677,-2.4337,-2.4199,-2.4199,-2.4199,-2.4199,-2.4199,-2.4199,-2.4199,-2.4199,-2.4199,-2.4199,-2.4199,-2.4199,-2.4199,-2.4199,-2.4199,-2.4199,-2.4198,-2.4064,-2.4074,-2.417,-2.4074,-2.3917,-2.3806,-2.3795,-2.3473,-2.2875,-2.2484,-2.2313,-2.2313,-2.2313,-2.2313,-2.2313,-2.2313,-2.2313,-2.2313,-2.2313,-2.2313,-2.2313,-2.2313,-2.2313,-2.2313,-2.2313,-2.2313,-2.2313,-2.2313,-2.2313,-2.2313,-2.2313,-2.2313,-2.2313,-2.2313,-2.2313,-2.2313,-2.2313,-2.2313,-2.2313,-2.2598,-2.2767,-2.2767,-2.3427,-2.3864,-2.3866,-2.4237,-2.4778,-2.5252,-2.5388,-2.5405,-2.5422,-2.5405,-2.5286,-2.5,-2.4932,-2.4797,-2.4558,-2.4491,-2.4508,-2.4508,-2.4491,-2.4288,-2.3881,-2.346,-2.3105,-2.2784,-2.2446,-2.2313,-2.2313,-2.2313,-2.2313,-2.2313,-2.2313,-2.2313,-2.2313,-2.2313,-2.2313,-2.2313,-2.2313,-2.2313,-2.2313,-2.2313,-2.2313,-2.2296,-2.2245,-2.2245,-2.2313,-2.2313,-2.2313,-2.2164,-2.1772,-2.1491,-2.0796,-2.0668,-2.0542,-2.433,-2.4209,-2.4199,-2.4199,-2.4199,-2.4199,-2.4199,-2.4199,-2.4199,-2.4199,-2.4199,-2.4199,-2.4199,-2.4199,-2.4199,-2.4199,-2.4199,-2.4199,-2.4199,-2.4199,-2.4199,-2.4199,-2.4199,-2.4199,-2.4151,-2.4074,-2.4026,-2.3764,-2.3206,-2.2699,-2.2415,-2.2398,-2.2335,-2.2313,-2.2313,-2.2313,-2.2313,-2.2313,-2.2313,-2.2313,-2.2313,-2.2313,-2.2313,-2.2313,-2.2313,-2.2313,-2.2313,-2.2313,-2.2313,-2.2313,-2.2313,-2.2313,-2.2313,-2.2313,-2.2313,-2.2313,-2.2313,-2.2313,-2.2313,-2.2313,-2.2313,-2.2347,-2.2835,-2.3105,-2.3173,-2.3594,-2.3881,-2.3883,-2.3915,-2.4,-2.4474,-2.4508,-2.4423,-2.4254,-2.4203,-2.4135,-2.39,-2.3898,-2.3848,-2.3883,-2.3748,-2.3729,-2.3173,-2.2699,-2.2381,-2.2347,-2.233,-2.2313,-2.2313,-2.2313,-2.2313,-2.2313,-2.2313,-2.2313,-2.2313,-2.2313,-2.2313,-2.2313,-2.2313,-2.2313,-2.2313,-2.2313,-2.2107,-2.1955,-2.2023,-2.1803,-2.1417,-2.1519,-2.1616,-2.1457,-2.1073,-2.0502,-1.9764,-1.9601,-1.938,-2.4199,-2.4199,-2.4199,-2.4199,-2.4199,-2.4199,-2.4199,-2.4199,-2.4199,-2.4199,-2.4199,-2.4199,-2.4199,-2.4199,-2.4199,-2.4199,-2.4199,-2.4199,-2.4199,-2.4199,-2.4199,-2.4199,-2.4199,-2.419,-2.4044,-2.3816,-2.3785,-2.3555,-2.3165,-2.2835,-2.2699,-2.2647,-2.2429,-2.2313,-2.2313,-2.2313,-2.2313,-2.2313,-2.2313,-2.2313,-2.2313,-2.2313,-2.2313,-2.2313,-2.2313,-2.2313,-2.2313,-2.2313,-2.2313,-2.2313,-2.2313,-2.2313,-2.2313,-2.2313,-2.2313,-2.2313,-2.2313,-2.2313,-2.2313,-2.2313,-2.2313,-2.2313,-2.2381,-2.2381,-2.2465,-2.255,-2.26,-2.2465,-2.2584,-2.3054,-2.4101,-2.4237,-2.4051,-2.3528,-2.3444,-2.3156,-2.255,-2.2634,-2.2431,-2.2499,-2.26,-2.26,-2.2415,-2.233,-2.2313,-2.2313,-2.2313,-2.2313,-2.2313,-2.2313,-2.2313,-2.2313,-2.2313,-2.2313,-2.2296,-2.2296,-2.2296,-2.2144,-2.2073,-2.2161,-2.2262,-2.2229,-2.182,-2.1498,-2.1312,-2.0957,-2.0369,-2.0115,-2.0139,-2.0056,-1.9957,-1.9416,-1.8867,-1.8636,-1.8397,-2.4321,-2.4199,-2.4199,-2.4199,-2.4199,-2.4199,-2.4199,-2.4199,-2.4199,-2.4199,-2.4199,-2.4199,-2.4199,-2.4199,-2.4199,-2.4199,-2.4199,-2.4199,-2.4199,-2.4199,-2.4199,-2.4199,-2.4199,-2.4199,-2.4151,-2.4006,-2.3795,-2.3432,-2.2903,-2.2594,-2.2436,-2.244,-2.2363,-2.2313,-2.2313,-2.2313,-2.2313,-2.2313,-2.2313,-2.2313,-2.2313,-2.2313,-2.2313,-2.2313,-2.2313,-2.2313,-2.2313,-2.2313,-2.2313,-2.2313,-2.2313,-2.2313,-2.2313,-2.2313,-2.2313,-2.2313,-2.2313,-2.2313,-2.2313,-2.2313,-2.2313,-2.2313,-2.2313,-2.2313,-2.2313,-2.2313,-2.2313,-2.2313,-2.2313,-2.2634,-2.2902,-2.3105,-2.2987,-2.2784,-2.2685,-2.2617,-2.2398,-2.2313,-2.2313,-2.2313,-2.2313,-2.2313,-2.2313,-2.2313,-2.2313,-2.2313,-2.2313,-2.2313,-2.2313,-2.2313,-2.2262,-2.2296,-2.2296,-2.211,-2.1583,-2.2043,-2.2178,-2.1769,-2.1529,-2.1211,-2.1147,-2.1062,-2.069,-2.0589,-2.0437,-2.0302,-1.9782,-1.9714,-1.953,-1.9144,-1.9018,-1.8564,-1.806,-1.7802,-1.7487,-2.4312,-2.4209,-2.4199,-2.4199,-2.4199,-2.4199,-2.4199,-2.4199,-2.4199,-2.4199,-2.4199,-2.4199,-2.4199,-2.4199,-2.4199,-2.4199,-2.4199,-2.4199,-2.4199,-2.4199,-2.4199,-2.4199,-2.4199,-2.4199,-2.4199,-2.417,-2.3986,-2.3599,-2.3189,-2.2883,-2.2769,-2.2782,-2.2558,-2.244,-2.2412,-2.2363,-2.2313,-2.2313,-2.2313,-2.2313,-2.2313,-2.2313,-2.2313,-2.2313,-2.2313,-2.2313,-2.2313,-2.2313,-2.2313,-2.2313,-2.2313,-2.2313,-2.2313,-2.2313,-2.2313,-2.2313,-2.2313,-2.2313,-2.2313,-2.2313,-2.2313,-2.2313,-2.2313,-2.2313,-2.2313,-2.2313,-2.2313,-2.2313,-2.2313,-2.2313,-2.2313,-2.233,-2.2313,-2.2313,-2.2313,-2.2313,-2.2313,-2.2313,-2.2313,-2.2313,-2.2313,-2.2313,-2.2313,-2.2313,-2.2313,-2.2313,-2.2313,-2.2313,-2.2313,-2.209,-2.1955,-2.189,-2.1603,-2.1282,-2.091,-2.1096,-2.1235,-2.0893,-2.0788,-2.0433,-2.0132,-1.9951,-1.9782,-1.9681,-1.9579,-1.9495,-1.941,-1.9338,-1.9014,-1.8545,-1.812,-1.7691,-1.7287,-1.6911,-1.6801,-2.4199,-2.4199,-2.4199,-2.4199,-2.4199,-2.4199,-2.4199,-2.4199,-2.4199,-2.4199,-2.4199,-2.4199,-2.4199,-2.4199,-2.4199,-2.4199,-2.4199,-2.4199,-2.4199,-2.4199,-2.4199,-2.4199,-2.4199,-2.4199,-2.417,-2.4151,-2.4161,-2.4123,-2.3966,-2.3617,-2.3466,-2.3477,-2.289,-2.2548,-2.2622,-2.2361,-2.2279,-2.2229,-2.2245,-2.2296,-2.2296,-2.2245,-2.2195,-2.2212,-2.2212,-2.2212,-2.2245,-2.2279,-2.2279,-2.2229,-2.2279,-2.2296,-2.2313,-2.2313,-2.2313,-2.2313,-2.2313,-2.2313,-2.2313,-2.2313,-2.2313,-2.2313,-2.2313,-2.2313,-2.2313,-2.2313,-2.2313,-2.2313,-2.2313,-2.2313,-2.2313,-2.2313,-2.2313,-2.2313,-2.2313,-2.2313,-2.2313,-2.2313,-2.2313,-2.2313,-2.2313,-2.2313,-2.2313,-2.2313,-2.2313,-2.2313,-2.2313,-2.2313,-2.2229,-2.1786,-2.1326,-2.114,-2.0842,-2.0441,-2.0204,-2.0018,-1.9985,-1.9934,-1.998,-1.9828,-1.9575,-1.9372,-1.9135,-1.9017,-1.8899,-1.8797,-1.8566,-1.8481,-1.8264,-1.7823,-1.7359,-1.7176,-1.6969,-1.6773,-1.6501,-2.4199,-2.4199,-2.4199,-2.4199,-2.4199,-2.4199,-2.4199,-2.4199,-2.4199,-2.4199,-2.4199,-2.4199,-2.4199,-2.4199,-2.4199,-2.4199,-2.4199,-2.4199,-2.4199,-2.4199,-2.4199,-2.4199,-2.4199,-2.4199,-2.4074,-2.3896,-2.3847,-2.3753,-2.3522,-2.323,-2.3021,-2.2923,-2.2643,-2.2163,-2.1776,-2.2061,-2.2107,-2.1651,-2.204,-2.2313,-2.2245,-2.1803,-2.1549,-2.1546,-2.1532,-2.1546,-2.1563,-2.2023,-2.204,-2.1613,-2.2023,-2.2313,-2.2296,-2.2313,-2.2313,-2.2313,-2.2313,-2.2313,-2.2313,-2.2313,-2.2313,-2.2313,-2.2313,-2.2313,-2.2313,-2.2313,-2.2313,-2.2313,-2.2313,-2.2313,-2.2313,-2.2313,-2.2313,-2.2313,-2.2313,-2.2313,-2.2313,-2.2313,-2.2313,-2.2313,-2.2313,-2.2313,-2.2313,-2.2313,-2.2296,-2.2245,-2.2262,-2.2262,-2.2127,-2.1498,-2.1241,-2.114,-2.0471,-1.9664,-1.9406,-1.9203,-1.9135,-1.9118,-1.9135,-1.9152,-1.8932,-1.878,-1.8544,-1.8408,-1.829,-1.8138,-1.7901,-1.7766,-1.7681,-1.7636,-1.7542,-1.7301,-1.7039,-1.6633,-1.6148,-2.4409,-2.4419,-2.4348,-2.4312,-2.4303,-2.4237,-2.4199,-2.4199,-2.4199,-2.4199,-2.4199,-2.4199,-2.4199,-2.4199,-2.4199,-2.4199,-2.4199,-2.4199,-2.4199,-2.4199,-2.4199,-2.4199,-2.4199,-2.4199,-2.4103,-2.3945,-2.3896,-2.3785,-2.3577,-2.3369,-2.3277,-2.32,-2.2588,-2.2039,-2.1506,-2.1432,-2.1278,-2.1224,-2.1363,-2.1603,-2.1684,-2.1143,-2.0754,-2.0737,-2.0754,-2.0754,-2.0801,-2.1228,-2.1366,-2.1292,-2.1664,-2.1887,-2.1904,-2.2124,-2.2313,-2.2313,-2.2313,-2.2313,-2.2313,-2.2313,-2.2313,-2.2313,-2.2313,-2.2313,-2.2313,-2.2313,-2.2313,-2.2313,-2.2313,-2.2313,-2.2313,-2.2313,-2.2313,-2.2313,-2.2313,-2.2313,-2.2313,-2.2313,-2.2313,-2.2313,-2.2313,-2.2313,-2.2313,-2.2313,-2.2175,-2.2006,-2.1904,-2.1701,-2.1434,-2.0771,-2.0564,-2.0226,-1.9502,-1.8899,-1.8577,-1.842,-1.8302,-1.8302,-1.8302,-1.8307,-1.8205,-1.816,-1.8036,-1.8053,-1.7969,-1.7986,-1.7789,-1.7789,-1.7738,-1.7727,-1.753,-1.6915,-1.6378,-1.5793,-1.5358,-2.4782,-2.4746,-2.4567,-2.4469,-2.4418,-2.4266,-2.4199,-2.4199,-2.4199,-2.4199,-2.4199,-2.4199,-2.4199,-2.4199,-2.4199,-2.4199,-2.4199,-2.4199,-2.4098,-2.4043,-2.4025,-2.4061,-2.4171,-2.4199,-2.418,-2.417,-2.4161,-2.4161,-2.4074,-2.3996,-2.4124,-2.3737,-2.2653,-2.1938,-2.1499,-2.0592,-2.0471,-2.0716,-2.0386,-2.0504,-2.1072,-2.0365,-1.9934,-1.9947,-1.9947,-1.9947,-1.9963,-2.0048,-2.0382,-2.1004,-2.1021,-2.0987,-2.1211,-2.182,-2.2026,-2.1975,-2.2161,-2.2093,-2.2144,-2.2243,-2.2229,-2.2127,-2.2229,-2.2313,-2.2313,-2.2313,-2.2313,-2.2313,-2.2313,-2.2313,-2.2313,-2.2313,-2.2313,-2.2313,-2.2313,-2.2313,-2.2313,-2.2313,-2.2313,-2.2313,-2.2313,-2.2262,-2.2178,-2.2144,-2.182,-2.1329,-2.1123,-2.0839,-2.0369,-1.9862,-1.9147,-1.8809,-1.8691,-1.8374,-1.8138,-1.8121,-1.802,-1.7963,-1.7845,-1.7665,-1.7648,-1.7631,-1.7529,-1.7563,-1.758,-1.7648,-1.7715,-1.7648,-1.758,-1.7462,-1.6998,-1.6284,-1.5727,-1.5248,-1.4987,-2.4623,-2.4375,-2.4471,-2.4419,-2.4284,-2.4209,-2.4199,-2.4199,-2.4209,-2.4228,-2.4199,-2.4199,-2.4209,-2.4199,-2.4199,-2.4199,-2.4199,-2.4171,-2.3823,-2.3373,-2.3318,-2.3676,-2.4098,-2.4171,-2.4171,-2.419,-2.4089,-2.4199,-2.418,-2.3886,-2.3513,-2.2916,-2.2271,-2.128,-2.0198,-2.0188,-1.9952,-1.9658,-1.9913,-2.0031,-2.0132,-1.9575,-1.9198,-1.9198,-1.9181,-1.9181,-1.9181,-1.9198,-1.9553,-2.0183,-1.9773,-1.979,-2.0281,-2.0585,-2.0771,-2.0795,-2.1177,-2.1211,-2.0978,-2.1637,-2.1972,-2.1613,-2.1887,-2.2296,-2.2313,-2.2296,-2.2296,-2.2313,-2.2313,-2.2313,-2.2313,-2.2313,-2.2313,-2.2313,-2.2324,-2.2324,-2.2313,-2.2313,-2.2313,-2.2313,-2.2296,-2.2023,-2.1684,-2.1448,-2.1177,-2.0551,-2.0302,-2.0183,-1.9676,-1.9287,-1.8707,-1.864,-1.8471,-1.8087,-1.7822,-1.7822,-1.78,-1.7732,-1.754,-1.7219,-1.7219,-1.7219,-1.7077,-1.6959,-1.6915,-1.6948,-1.7185,-1.7287,-1.723,-1.7027,-1.6637,-1.6026,-1.5512,-1.5049,-1.487,-2.4876,-2.4655,-2.47,-2.4648,-2.4522,-2.4468,-2.4444,-2.4444,-2.4462,-2.4401,-2.4358,-2.433,-2.4294,-2.4199,-2.4199,-2.4199,-2.4171,-2.3859,-2.3428,-2.3043,-2.2666,-2.296,-2.3437,-2.3419,-2.352,-2.4061,-2.352,-2.34,-2.351,-2.3175,-2.2652,-2.2158,-2.1432,-2.052,-1.9689,-1.9258,-1.9257,-1.8951,-1.9084,-1.9203,-1.9456,-1.8814,-1.8488,-1.8437,-1.8425,-1.8437,-1.8437,-1.8425,-1.881,-1.941,-1.9337,-1.9274,-1.9672,-2.003,-2.0105,-2.0044,-2.045,-2.0471,-2.0268,-2.0893,-2.1096,-2.0856,-2.1147,-2.1468,-2.1718,-2.1837,-2.1887,-2.2245,-2.2296,-2.2313,-2.2313,-2.2313,-2.2313,-2.2324,-2.2385,-2.2412,-2.2321,-2.2313,-2.2313,-2.2245,-2.2023,-2.1715,-2.1207,-2.0936,-2.0348,-1.9778,-1.9553,-1.9333,-1.9,-1.8707,-1.8471,-1.8352,-1.8217,-1.7867,-1.7512,-1.7439,-1.7134,-1.7084,-1.6779,-1.6525,-1.6424,-1.6485,-1.6417,-1.6231,-1.6231,-1.6282,-1.6468,-1.6559,-1.6424,-1.6231,-1.6045,-1.5644,-1.5014,-1.4552,-1.4445,-2.5269,-2.5238,-2.5071,-2.4998,-2.493,-2.4849,-2.476,-2.479,-2.4768,-2.4579,-2.4333,-2.4346,-2.4033,-2.3961,-2.3648,-2.3878,-2.3823,-2.3125,-2.2804,-2.2345,-2.1914,-2.1849,-2.2483,-2.229,-2.2694,-2.34,-2.24,-2.2382,-2.2602,-2.2172,-2.1804,-2.1451,-2.0497,-1.9893,-1.9473,-1.8655,-1.8387,-1.866,-1.8415,-1.8511,-1.8779,-1.8353,-1.8064,-1.8036,-1.7946,-1.7963,-1.7957,-1.7957,-1.8274,-1.9189,-1.9174,-1.9057,-1.9189,-1.9763,-1.9869,-1.9726,-1.9727,-1.9828,-1.9811,-1.9883,-2.0035,-1.998,-2.0002,-2.0268,-2.0919,-2.1089,-2.1262,-2.1721,-2.2121,-2.2238,-2.2388,-2.2363,-2.2374,-2.2378,-2.2508,-2.2426,-2.231,-2.2309,-2.2371,-2.2255,-2.1653,-2.133,-2.084,-2.0387,-1.9662,-1.8949,-1.8775,-1.864,-1.8425,-1.8222,-1.8053,-1.7969,-1.7817,-1.7648,-1.732,-1.7027,-1.6604,-1.6282,-1.5849,-1.5544,-1.5334,-1.5368,-1.5477,-1.5477,-1.5477,-1.5477,-1.5544,-1.5561,-1.5629,-1.546,-1.5308,-1.473,-1.412,-1.3804,-1.3609,-2.5149,-2.4903,-2.4968,-2.493,-2.4849,-2.4818,-2.4811,-2.4792,-2.4792,-2.4328,-2.3694,-2.3561,-2.3103,-2.2399,-2.2482,-2.2326,-2.2437,-2.2134,-2.1712,-2.0933,-2.0189,-2.0317,-2.1051,-2.1408,-2.1959,-2.2271,-2.2051,-2.1886,-2.1923,-2.1739,-2.1427,-2.0743,-2.0404,-1.9928,-1.9183,-1.8894,-1.8667,-1.8653,-1.8463,-1.8468,-1.853,-1.8332,-1.8072,-1.8057,-1.7894,-1.7933,-1.8035,-1.7922,-1.8132,-1.8488,-1.84,-1.824,-1.8296,-1.8421,-1.8501,-1.8579,-1.8865,-1.8882,-1.8611,-1.9241,-1.9714,-1.9232,-1.9558,-2.0052,-2.0183,-2.0251,-2.0318,-2.0658,-2.1225,-2.1863,-2.2275,-2.253,-2.2418,-2.2293,-2.2085,-2.1853,-2.1895,-2.2432,-2.2469,-2.2098,-2.1754,-2.1284,-1.9964,-1.967,-1.899,-1.8274,-1.8036,-1.7952,-1.7884,-1.7789,-1.7698,-1.7631,-1.7371,-1.7151,-1.6728,-1.6316,-1.5757,-1.5385,-1.4969,-1.4716,-1.4488,-1.4471,-1.4674,-1.4733,-1.4723,-1.4733,-1.4749,-1.5105,-1.5257,-1.4909,-1.4562,-1.4179,-1.3763,-1.329,-1.306,-2.5206,-2.5056,-2.5113,-2.5101,-2.5031,-2.5024,-2.4815,-2.451,-2.4472,-2.3898,-2.3071,-2.2849,-2.245,-2.1902,-2.1845,-2.1812,-2.1684,-2.1327,-2.0739,-2.0042,-1.9499,-1.9572,-1.984,-2.0472,-2.0913,-2.15,-2.0913,-2.0831,-2.1015,-2.0821,-2.0325,-1.9989,-1.9862,-1.9502,-1.9029,-1.8905,-1.8715,-1.8639,-1.8595,-1.8595,-1.8556,-1.8341,-1.8103,-1.8035,-1.7872,-1.7889,-1.796,-1.7883,-1.7977,-1.8089,-1.796,-1.7861,-1.7971,-1.7982,-1.7944,-1.7907,-1.8099,-1.8234,-1.8172,-1.8442,-1.8763,-1.8448,-1.8797,-1.9118,-1.9355,-1.9473,-1.9693,-1.9989,-2.0505,-2.1023,-2.1366,-2.14,-2.1485,-2.1574,-2.1441,-2.1317,-2.1467,-2.1639,-2.1571,-2.1078,-2.0626,-2.0079,-1.9407,-1.905,-1.8618,-1.7997,-1.7935,-1.7867,-1.7867,-1.7749,-1.7445,-1.727,-1.6959,-1.6604,-1.6136,-1.5561,-1.4834,-1.4445,-1.4099,-1.3946,-1.3811,-1.3862,-1.398,-1.4048,-1.4124,-1.3988,-1.4048,-1.4454,-1.464,-1.4217,-1.3879,-1.3726,-1.3539,-1.3241,-1.3095,-2.5308,-2.5308,-2.5308,-2.5308,-2.5308,-2.5279,-2.4928,-2.4385,-2.4144,-2.3576,-2.2579,-2.2287,-2.1906,-2.1622,-2.1448,-2.148,-2.1258,-2.0815,-2.0059,-1.9557,-1.9446,-1.9398,-1.9478,-1.9609,-2.005,-2.1151,-2.016,-1.9877,-2.0023,-1.9701,-1.9572,-1.9321,-1.9186,-1.9183,-1.9018,-1.8843,-1.8789,-1.8771,-1.8771,-1.8762,-1.8734,-1.8518,-1.827,-1.8078,-1.8025,-1.8057,-1.8103,-1.804,-1.7971,-1.7916,-1.7889,-1.796,-1.8072,-1.8166,-1.8156,-1.7927,-1.8061,-1.8065,-1.807,-1.8078,-1.809,-1.7916,-1.7923,-1.8184,-1.8653,-1.8788,-1.9009,-1.9464,-1.9884,-2.0202,-2.0174,-2.0561,-2.0598,-2.0633,-2.0806,-2.0884,-2.0896,-2.0342,-1.9928,-2.0212,-2.019,-1.9815,-1.9145,-1.8654,-1.8202,-1.7833,-1.7805,-1.7772,-1.7755,-1.7648,-1.7354,-1.6898,-1.657,-1.5666,-1.5097,-1.4894,-1.4141,-1.3938,-1.3523,-1.3472,-1.343,-1.3532,-1.3667,-1.3549,-1.3549,-1.3515,-1.3532,-1.3786,-1.3786,-1.3413,-1.343,-1.3498,-1.3387,-1.3216,-1.3156,-2.5308,-2.5308,-2.5308,-2.5288,-2.5288,-2.5288,-2.5115,-2.4986,-2.4202,-2.3525,-2.2503,-2.1787,-2.0979,-2.0439,-2.017,-2.0164,-2.0257,-2.0037,-1.9823,-1.9541,-1.9506,-1.9449,-1.9312,-1.9297,-1.9536,-1.9554,-1.9352,-1.9444,-1.9491,-1.9352,-1.9297,-1.9282,-1.9251,-1.9219,-1.9212,-1.9178,-1.9113,-1.9081,-1.9097,-1.9097,-1.9056,-1.8913,-1.8659,-1.842,-1.8371,-1.8479,-1.8623,-1.8547,-1.8469,-1.8432,-1.8249,-1.8061,-1.8068,-1.8156,-1.829,-1.8341,-1.8381,-1.8343,-1.8353,-1.8403,-1.845,-1.842,-1.8259,-1.8135,-1.8289,-1.8193,-1.842,-1.8711,-1.938,-2.0026,-2.0991,-2.0654,-2.0942,-2.0954,-2.0543,-2.0317,-2.0144,-1.9607,-1.9254,-1.994,-1.9965,-1.973,-1.9001,-1.8454,-1.8217,-1.7868,-1.7668,-1.7596,-1.7546,-1.7428,-1.7219,-1.6695,-1.6164,-1.503,-1.3955,-1.387,-1.3599,-1.3642,-1.3447,-1.3447,-1.3413,-1.3396,-1.3396,-1.3396,-1.3396,-1.343,-1.343,-1.3396,-1.3396,-1.3396,-1.3396,-1.3396,-1.3346,-1.3294,-1.332,-2.4678,-2.4683,-2.4678,-2.4683,-2.4683,-2.4659,-2.4139,-2.3327,-2.2889,-2.2247,-2.1474,-2.0838,-2.0373,-1.9977,-1.9819,-1.9809,-1.9803,-1.9726,-1.9656,-1.9582,-1.9499,-1.942,-1.9331,-1.9294,-1.9279,-1.9297,-1.9297,-1.9294,-1.9279,-1.9297,-1.9279,-1.9279,-1.9279,-1.9279,-1.9279,-1.9263,-1.9279,-1.9279,-1.9279,-1.9279,-1.9282,-1.9111,-1.8878,-1.8688,-1.8604,-1.8678,-1.8707,-1.8706,-1.8585,-1.8556,-1.8487,-1.842,-1.843,-1.8506,-1.8537,-1.8469,-1.8547,-1.8604,-1.8595,-1.8595,-1.8576,-1.8576,-1.8469,-1.842,-1.8391,-1.8338,-1.8252,-1.8478,-1.8653,-1.9255,-1.9553,-1.9785,-1.9769,-1.9823,-1.9603,-1.9588,-1.9549,-1.9093,-1.9341,-1.9704,-1.9117,-1.8788,-1.8708,-1.8332,-1.8225,-1.7955,-1.7567,-1.7379,-1.7264,-1.6999,-1.6712,-1.5944,-1.5293,-1.4566,-1.3608,-1.3532,-1.3405,-1.3396,-1.3396,-1.3396,-1.3396,-1.3396,-1.3396,-1.3396,-1.3396,-1.3396,-1.3396,-1.3396,-1.3396,-1.3396,-1.3396,-1.3396,-1.3396,-1.3396,-1.3396,-2.3867,-2.3867,-2.3845,-2.3841,-2.3841,-2.3836,-2.3105,-2.1908,-2.1658,-2.1269,-2.0565,-2.0248,-2.0107,-2.0022,-1.9972,-1.9909,-1.9888,-1.9799,-1.9763,-1.9682,-1.9573,-1.9476,-1.9412,-1.9398,-1.9434,-1.9451,-1.9448,-1.9354,-1.9286,-1.9279,-1.9279,-1.9279,-1.9279,-1.9279,-1.9279,-1.9279,-1.9279,-1.9279,-1.9279,-1.9279,-1.9251,-1.9142,-1.8966,-1.8753,-1.8735,-1.878,-1.8816,-1.8825,-1.8753,-1.8716,-1.8688,-1.8752,-1.8887,-1.8976,-1.8807,-1.8489,-1.8614,-1.8725,-1.8744,-1.8762,-1.8807,-1.8825,-1.8716,-1.8679,-1.8688,-1.8651,-1.866,-1.867,-1.8788,-1.8806,-1.8883,-1.853,-1.8606,-1.8747,-1.8822,-1.8752,-1.9106,-1.9084,-1.9052,-1.8923,-1.8181,-1.8173,-1.8444,-1.8078,-1.7961,-1.7569,-1.7189,-1.6639,-1.6492,-1.6197,-1.5764,-1.492,-1.4278,-1.3888,-1.3489,-1.3539,-1.3429,-1.3396,-1.3396,-1.3396,-1.3396,-1.3396,-1.3405,-1.3421,-1.3396,-1.3396,-1.3396,-1.3396,-1.3396,-1.3396,-1.3396,-1.3396,-1.3396,-1.3396,-1.3396,-2.3035,-2.3028,-2.297,-2.297,-2.2941,-2.2941,-2.2859,-2.2459,-2.1713,-2.1485,-2.1089,-2.0569,-2.0253,-2.0233,-2.0229,-2.022,-2.0208,-2.0121,-2.0026,-1.9887,-1.9844,-1.9765,-1.9731,-1.9756,-1.9682,-1.9663,-1.9707,-1.9572,-1.9419,-1.9339,-1.9335,-1.9342,-1.9346,-1.9301,-1.9369,-1.9376,-1.9279,-1.9294,-1.9294,-1.9294,-1.9305,-1.9285,-1.9212,-1.9196,-1.918,-1.9146,-1.9121,-1.9113,-1.9082,-1.8966,-1.8949,-1.8861,-1.8734,-1.8887,-1.8958,-1.8974,-1.9074,-1.9219,-1.9162,-1.913,-1.9121,-1.9081,-1.9016,-1.8975,-1.894,-1.8958,-1.8949,-1.8958,-1.9066,-1.9107,-1.8999,-1.8957,-1.8949,-1.8852,-1.877,-1.8807,-1.8974,-1.9041,-1.9016,-1.8739,-1.8204,-1.8467,-1.8759,-1.8165,-1.7636,-1.7215,-1.6771,-1.6199,-1.5723,-1.5433,-1.5177,-1.4444,-1.4074,-1.3703,-1.3565,-1.3581,-1.3551,-1.3479,-1.3471,-1.3471,-1.3502,-1.3527,-1.3429,-1.3438,-1.3421,-1.3413,-1.3396,-1.3396,-1.3396,-1.3396,-1.3396,-1.3396,-1.3396,-1.3396,-1.3396,-2.1794,-2.2222,-2.2194,-2.2178,-2.2178,-2.2178,-2.1888,-2.1426,-2.1038,-2.0859,-2.0781,-2.0485,-2.0287,-2.0308,-2.0288,-2.0285,-2.0277,-2.0178,-2.0083,-2.0003,-1.9943,-1.9874,-1.9821,-1.9809,-1.9809,-1.9832,-1.9803,-1.9731,-1.9593,-1.958,-1.9592,-1.9585,-1.9592,-1.96,-1.9565,-1.9592,-1.9605,-1.9579,-1.953,-1.9459,-1.9449,-1.9365,-1.9286,-1.9286,-1.9294,-1.9286,-1.9286,-1.9279,-1.9266,-1.9174,-1.9174,-1.9123,-1.9031,-1.9107,-1.9174,-1.9182,-1.9227,-1.9282,-1.9271,-1.9286,-1.9279,-1.9271,-1.9212,-1.9164,-1.9156,-1.9166,-1.9158,-1.9174,-1.9235,-1.9251,-1.9166,-1.906,-1.9036,-1.8949,-1.8834,-1.8861,-1.8896,-1.8887,-1.886,-1.8555,-1.8248,-1.8231,-1.808,-1.7367,-1.6855,-1.6693,-1.613,-1.5506,-1.5063,-1.4747,-1.4495,-1.4199,-1.3976,-1.3796,-1.3771,-1.3771,-1.3731,-1.3696,-1.3688,-1.3696,-1.3711,-1.3688,-1.3567,-1.3493,-1.3526,-1.3477,-1.3421,-1.3396,-1.3396,-1.3396,-1.3396,-1.3396,-1.3396,-1.3396,-1.3396,-2.0894,-2.1411,-2.1409,-2.1377,-2.1357,-2.1377,-2.1044,-2.0445,-2.0424,-2.0383,-2.0329,-2.0316,-2.0323,-2.0327,-2.031,-2.0295,-2.0288,-2.0127,-2.0083,-2.0012,-1.9982,-1.9952,-1.9971,-1.9955,-1.9955,-1.9925,-1.9981,-1.9936,-1.9931,-1.9909,-1.9888,-1.9815,-1.9695,-1.975,-1.9792,-1.978,-1.9768,-1.9762,-1.9676,-1.9643,-1.9642,-1.953,-1.9462,-1.9427,-1.9402,-1.9365,-1.9365,-1.9305,-1.9297,-1.9289,-1.9274,-1.9259,-1.9232,-1.9312,-1.9357,-1.9387,-1.9445,-1.9476,-1.9434,-1.9383,-1.9301,-1.9279,-1.9279,-1.9248,-1.9263,-1.9279,-1.9279,-1.9266,-1.9282,-1.9212,-1.9127,-1.9052,-1.901,-1.8976,-1.8905,-1.8914,-1.8824,-1.8547,-1.8331,-1.8041,-1.764,-1.7125,-1.6857,-1.625,-1.5967,-1.6017,-1.5546,-1.4865,-1.4521,-1.4253,-1.415,-1.4032,-1.4058,-1.3906,-1.3791,-1.382,-1.3824,-1.3853,-1.3863,-1.3791,-1.3741,-1.3673,-1.3565,-1.3548,-1.3578,-1.3548,-1.3486,-1.3438,-1.3396,-1.3396,-1.3396,-1.3396,-1.3396,-1.3396,-1.3396,-2.0625,-2.0682,-2.0543,-2.0531,-2.055,-2.0486,-2.049,-2.0404,-2.0397,-2.0412,-2.0377,-2.0377,-2.0385,-2.0374,-2.0316,-2.0292,-2.0298,-2.0288,-2.0254,-2.0261,-2.0269,-2.0203,-2.0199,-2.0214,-2.023,-2.0249,-2.019,-2.019,-2.0229,-2.0134,-2.0002,-1.9824,-1.9803,-1.9756,-1.9803,-1.9888,-1.9882,-1.9871,-1.9796,-1.9778,-1.9792,-1.9737,-1.9738,-1.9713,-1.9643,-1.9569,-1.9569,-1.9416,-1.9346,-1.9346,-1.935,-1.9361,-1.9416,-1.9495,-1.955,-1.9577,-1.9463,-1.947,-1.9432,-1.9293,-1.9261,-1.9268,-1.9228,-1.9143,-1.9077,-1.9224,-1.926,-1.9187,-1.9168,-1.9271,-1.9214,-1.9152,-1.9069,-1.8981,-1.8848,-1.8573,-1.8314,-1.7824,-1.7598,-1.7455,-1.7047,-1.6468,-1.6084,-1.5594,-1.5359,-1.5415,-1.5189,-1.4534,-1.4353,-1.4132,-1.409,-1.4043,-1.417,-1.4049,-1.3768,-1.3788,-1.3983,-1.3927,-1.3859,-1.3734,-1.363,-1.3583,-1.3627,-1.3565,-1.3572,-1.3565,-1.3549,-1.3494,-1.3454,-1.3421,-1.3396,-1.3396,-1.3396,-1.3396,-1.3396,-2.0539,-2.054,-2.0488,-2.0505,-2.0516,-2.0535,-2.0516,-2.0516,-2.0516,-2.0455,-2.0391,-2.0354,-2.0335,-2.0329,-2.0319,-2.0319,-2.0347,-2.0351,-2.0346,-2.0334,-2.0343,-2.0323,-2.0337,-2.0346,-2.0355,-2.036,-2.0334,-2.0302,-2.0272,-2.0223,-2.0174,-2.005,-1.9997,-2.0079,-2.0112,-2.0079,-2.0084,-2.0046,-1.9987,-1.9933,-1.9893,-1.983,-1.9809,-1.9797,-1.9774,-1.9713,-1.9695,-1.9582,-1.9564,-1.9559,-1.9516,-1.9536,-1.9579,-1.9688,-1.9726,-1.9626,-1.9396,-1.913,-1.9068,-1.8895,-1.8788,-1.87,-1.87,-1.868,-1.8606,-1.8581,-1.8563,-1.8654,-1.8974,-1.9081,-1.9256,-1.9219,-1.9162,-1.902,-1.8703,-1.8282,-1.7812,-1.7251,-1.6912,-1.6772,-1.6283,-1.5701,-1.5383,-1.5081,-1.4916,-1.4806,-1.4538,-1.4314,-1.4213,-1.4143,-1.4149,-1.4162,-1.427,-1.4289,-1.4038,-1.4103,-1.42,-1.4022,-1.3859,-1.3826,-1.3743,-1.3756,-1.3793,-1.3698,-1.3581,-1.3573,-1.3557,-1.3534,-1.3501,-1.3485,-1.3437,-1.3396,-1.3396,-1.3413,-1.3396,-2.0475,-2.0474,-2.0475,-2.0487,-2.0539,-2.054,-2.0561,-2.0565,-2.0565,-2.0525,-2.0468,-2.0397,-2.0381,-2.0377,-2.0363,-2.0377,-2.042,-2.0391,-2.0363,-2.0354,-2.0376,-2.0363,-2.0361,-2.0355,-2.0356,-2.0371,-2.0338,-2.0294,-2.0319,-2.0171,-2.021,-2.0272,-2.0334,-2.0313,-2.0273,-2.0288,-2.0288,-2.0269,-2.0193,-2.0097,-2.0064,-2.0026,-1.9976,-1.9946,-1.9909,-1.9863,-1.9824,-1.9738,-1.9695,-1.9713,-1.9707,-1.9701,-1.978,-1.9849,-1.9858,-1.9604,-1.9184,-1.8658,-1.8572,-1.8284,-1.8142,-1.8031,-1.8037,-1.7981,-1.7899,-1.789,-1.7979,-1.8313,-1.858,-1.8746,-1.8849,-1.8647,-1.8342,-1.8023,-1.7896,-1.7536,-1.7109,-1.6625,-1.6338,-1.608,-1.5518,-1.4988,-1.4982,-1.4769,-1.4738,-1.4641,-1.4538,-1.4405,-1.4368,-1.435,-1.4387,-1.4393,-1.4441,-1.4416,-1.4393,-1.4295,-1.42,-1.4042,-1.3938,-1.4022,-1.4008,-1.3969,-1.3906,-1.3805,-1.3718,-1.3611,-1.3589,-1.3589,-1.3588,-1.3569,-1.3508,-1.3445,-1.3453,-1.3462,-1.3421,-2.0406,-2.0391,-2.0389,-2.0389,-2.0389,-2.0395,-2.0441,-2.0507,-2.0489,-2.0502,-2.0547,-2.0546,-2.0526,-2.0525,-2.0455,-2.0454,-2.0454,-2.0416,-2.0375,-2.038,-2.0394,-2.0391,-2.0362,-2.0361,-2.0359,-2.038,-2.033,-2.0316,-2.0383,-2.0305,-2.0346,-2.0359,-2.0353,-2.0363,-2.0296,-2.0296,-2.0296,-2.0292,-2.0273,-2.0246,-2.0241,-2.022,-2.0212,-2.0176,-2.0083,-2.0026,-1.9973,-1.9869,-1.983,-1.9877,-1.9843,-1.9819,-1.9863,-1.9977,-2.0017,-1.995,-1.9256,-1.8874,-1.8778,-1.7857,-1.736,-1.7281,-1.731,-1.7297,-1.7286,-1.7356,-1.7465,-1.7711,-1.7801,-1.7808,-1.7758,-1.7693,-1.7435,-1.7238,-1.7128,-1.6844,-1.6432,-1.5933,-1.5596,-1.5451,-1.4848,-1.4331,-1.4472,-1.4524,-1.4543,-1.4518,-1.4506,-1.4476,-1.444,-1.4464,-1.4488,-1.4488,-1.4488,-1.4464,-1.4405,-1.4301,-1.4193,-1.4024,-1.4004,-1.411,-1.4078,-1.3983,-1.3934,-1.3913,-1.3827,-1.3709,-1.3673,-1.3659,-1.3756,-1.3817,-1.3609,-1.3524,-1.3524,-1.3501,-1.3438,-2.0062,-2.0069,-2.0153,-2.0182,-2.0176,-2.0323,-2.042,-2.0412,-2.0417,-2.0416,-2.0399,-2.0402,-2.0402,-2.0385,-2.0385,-2.0385,-2.0417,-2.0415,-2.0385,-2.0352,-2.037,-2.0369,-2.035,-2.0368,-2.038,-2.0383,-2.0345,-2.0311,-2.0332,-2.0348,-2.0343,-2.0341,-2.035,-2.0365,-2.0371,-2.036,-2.0349,-2.0299,-2.0302,-2.0301,-2.03,-2.0296,-2.0292,-2.0296,-2.0218,-2.0174,-2.0165,-2.0017,-1.9992,-2.005,-2.0007,-1.9988,-2.0055,-2.0178,-2.0182,-1.986,-1.9104,-1.7561,-1.6859,-1.604,-1.6173,-1.6394,-1.6591,-1.6583,-1.6536,-1.6492,-1.6704,-1.6973,-1.7101,-1.7204,-1.7355,-1.7306,-1.7114,-1.688,-1.667,-1.623,-1.578,-1.5208,-1.4788,-1.4788,-1.4441,-1.4393,-1.4464,-1.4488,-1.4488,-1.4488,-1.4488,-1.4488,-1.4476,-1.4476,-1.4488,-1.4488,-1.4482,-1.4464,-1.4405,-1.4362,-1.435,-1.4276,-1.4201,-1.4214,-1.4156,-1.4058,-1.4051,-1.4072,-1.3948,-1.3827,-1.3798,-1.3837,-1.4042,-1.4083,-1.3798,-1.3611,-1.3589,-1.3527,-1.3413,-1.9862,-1.9872,-1.9955,-1.9964,-1.9979,-2.0237,-2.0357,-2.0378,-2.0381,-2.037,-2.0351,-2.0336,-2.0334,-2.0332,-2.0279,-2.032,-2.0385,-2.0331,-2.0373,-2.0327,-2.037,-2.0384,-2.0362,-2.0352,-2.0359,-2.0367,-2.034,-2.0302,-2.0342,-2.0336,-2.0341,-2.0345,-2.0331,-2.0371,-2.0382,-2.0377,-2.0366,-2.0335,-2.0344,-2.033,-2.0328,-2.0314,-2.0287,-2.0295,-2.0292,-2.0285,-2.0273,-2.0229,-2.0161,-2.0222,-2.0219,-2.0172,-2.0269,-2.0311,-2.0321,-1.9851,-1.8727,-1.7054,-1.5852,-1.5411,-1.5632,-1.5856,-1.5912,-1.588,-1.5813,-1.5817,-1.6065,-1.6318,-1.6484,-1.663,-1.6766,-1.6715,-1.6333,-1.6073,-1.5889,-1.5435,-1.5245,-1.4688,-1.4567,-1.4523,-1.4493,-1.4488,-1.4499,-1.4488,-1.4488,-1.4488,-1.4488,-1.4493,-1.4499,-1.4488,-1.4488,-1.4488,-1.4488,-1.4476,-1.447,-1.4464,-1.4464,-1.4482,-1.4416,-1.4338,-1.4344,-1.4289,-1.4276,-1.4227,-1.4105,-1.4011,-1.3948,-1.3997,-1.4103,-1.4069,-1.3881,-1.3751,-1.3659,-1.3606,-1.3527,-1.9773,-1.9773,-1.9773,-1.9773,-1.9843,-2.0125,-2.0257,-2.0285,-2.0352,-2.0355,-2.0377,-2.0325,-2.0289,-2.0313,-2.0228,-2.0222,-2.0285,-2.0221,-2.0244,-2.0298,-2.0275,-2.0308,-2.0301,-2.0288,-2.0308,-2.0332,-2.0342,-2.0318,-2.0379,-2.0361,-2.0365,-2.0389,-2.0365,-2.0378,-2.0374,-2.039,-2.0377,-2.0378,-2.0368,-2.0371,-2.0357,-2.0332,-2.0311,-2.031,-2.0312,-2.0317,-2.0306,-2.0295,-2.0288,-2.0313,-2.0308,-2.0298,-2.0316,-2.0359,-2.0379,-1.9821,-1.8551,-1.7108,-1.5663,-1.5315,-1.5304,-1.5444,-1.5361,-1.5262,-1.5287,-1.5389,-1.5631,-1.5755,-1.5872,-1.596,-1.6043,-1.5554,-1.5074,-1.4969,-1.4912,-1.4737,-1.4709,-1.4545,-1.4533,-1.4522,-1.4505,-1.4505,-1.4539,-1.4539,-1.4567,-1.4561,-1.4573,-1.4567,-1.4556,-1.4493,-1.4493,-1.4488,-1.4488,-1.4488,-1.4488,-1.4488,-1.4488,-1.4488,-1.4488,-1.4447,-1.447,-1.447,-1.4411,-1.4338,-1.4264,-1.4207,-1.4162,-1.4096,-1.4031,-1.3987,-1.4039,-1.3924,-1.3866,-1.3805,-1.3739,-1.9243,-1.9232,-1.9328,-1.936,-1.9423,-1.979,-2.0012,-2.0073,-2.0092,-2.0119,-2.01,-2.0011,-1.9996,-1.9969,-1.995,-1.9931,-1.9936,-1.9945,-1.9941,-1.9964,-1.9994,-2.005,-2.009,-2.0126,-2.0185,-2.026,-2.0294,-2.028,-2.0308,-2.0314,-2.0321,-2.0321,-2.0341,-2.0338,-2.0366,-2.0387,-2.0387,-2.0389,-2.0386,-2.0392,-2.0372,-2.032,-2.0324,-2.0342,-2.0357,-2.0359,-2.0357,-2.0351,-2.0351,-2.0362,-2.0374,-2.0366,-2.0368,-2.0322,-2.0136,-1.8714,-1.7936,-1.7177,-1.5682,-1.5286,-1.5299,-1.5289,-1.5265,-1.5226,-1.5215,-1.5237,-1.5371,-1.5427,-1.5456,-1.5555,-1.5551,-1.5155,-1.4847,-1.4799,-1.4756,-1.4717,-1.4692,-1.4661,-1.4651,-1.4624,-1.4603,-1.4592,-1.4619,-1.4645,-1.4666,-1.4651,-1.4659,-1.464,-1.4608,-1.4554,-1.4539,-1.4533,-1.4528,-1.4533,-1.4499,-1.4488,-1.4488,-1.4488,-1.4488,-1.4488,-1.4482,-1.4482,-1.4488,-1.4458,-1.4387,-1.4381,-1.4387,-1.4295,-1.4195,-1.4289,-1.4332,-1.4182,-1.4058,-1.4024,-1.3945,-1.8834,-1.8852,-1.8929,-1.896,-1.9018,-1.9265,-1.9448,-1.9563,-1.979,-1.9863,-1.976,-1.9661,-1.9644,-1.9613,-1.9493,-1.948,-1.9638,-1.9461,-1.9443,-1.9649,-1.962,-1.9773,-1.9852,-1.9927,-1.9997,-2.0084,-2.0102,-2.005,-2.0116,-2.0165,-2.0182,-2.0289,-2.0304,-2.0292,-2.0314,-2.0337,-2.0352,-2.0373,-2.0394,-2.0389,-2.0371,-2.033,-2.0326,-2.0358,-2.037,-2.0381,-2.0379,-2.0373,-2.0362,-2.0378,-2.0378,-2.0419,-2.0428,-2.0382,-1.9641,-1.8396,-1.7909,-1.6971,-1.5719,-1.5318,-1.5329,-1.5328,-1.5306,-1.5272,-1.5248,-1.524,-1.5245,-1.5247,-1.5225,-1.521,-1.5133,-1.5032,-1.4996,-1.4942,-1.4919,-1.4881,-1.4864,-1.4832,-1.4794,-1.4771,-1.4756,-1.4718,-1.4747,-1.4771,-1.478,-1.4776,-1.4776,-1.4776,-1.4732,-1.4666,-1.463,-1.4627,-1.4592,-1.4576,-1.4537,-1.4528,-1.4522,-1.4516,-1.4488,-1.4488,-1.4488,-1.4488,-1.4488,-1.4488,-1.4482,-1.447,-1.4458,-1.447,-1.4441,-1.4488,-1.4488,-1.4375,-1.4276,-1.427,-1.4175,-1.8471,-1.8471,-1.8491,-1.8492,-1.8569,-1.8717,-1.8768,-1.8829,-1.9351,-1.9551,-1.9351,-1.9349,-1.9307,-1.9232,-1.9034,-1.9065,-1.9135,-1.9026,-1.905,-1.9316,-1.9283,-1.9413,-1.9638,-1.9755,-1.979,-1.9784,-1.9838,-1.9904,-1.9863,-1.9933,-2.0079,-2.026,-2.0233,-2.0186,-2.0179,-2.02,-2.0199,-2.0196,-2.0239,-2.029,-2.0373,-2.0354,-2.0307,-2.0315,-2.0327,-2.0332,-2.0332,-2.0311,-2.0301,-2.036,-2.04,-2.0461,-2.0467,-2.0428,-1.945,-1.8538,-1.7975,-1.6911,-1.5871,-1.5351,-1.537,-1.5356,-1.5349,-1.5322,-1.5299,-1.5237,-1.5201,-1.5195,-1.5189,-1.5189,-1.514,-1.5098,-1.5058,-1.5033,-1.5026,-1.5004,-1.4984,-1.494,-1.4885,-1.4863,-1.4827,-1.4827,-1.4843,-1.4865,-1.4888,-1.4879,-1.4879,-1.4879,-1.4857,-1.4766,-1.4742,-1.4732,-1.4712,-1.4673,-1.4651,-1.4619,-1.4584,-1.4556,-1.4539,-1.4493,-1.4493,-1.4493,-1.4488,-1.4488,-1.4488,-1.4488,-1.4482,-1.4493,-1.4493,-1.4488,-1.4488,-1.4488,-1.447,-1.4453,-1.4381,-1.7541,-1.753,-1.7513,-1.7791,-1.8186,-1.8258,-1.8251,-1.827,-1.8408,-1.8645,-1.886,-1.8813,-1.8771,-1.8708,-1.8582,-1.8609,-1.8654,-1.8518,-1.8681,-1.8753,-1.8797,-1.9012,-1.9298,-1.9364,-1.9489,-1.9731,-1.9809,-1.9725,-1.9736,-1.9813,-1.9877,-1.992,-1.996,-1.9981,-1.9976,-1.9964,-1.9988,-2.0007,-2.0021,-2.0148,-2.0325,-2.0347,-2.032,-2.0352,-2.0363,-2.0363,-2.0369,-2.0373,-2.036,-2.0397,-2.0397,-2.0416,-2.0414,-2.0398,-1.9528,-1.8309,-1.781,-1.6827,-1.5912,-1.5348,-1.5382,-1.539,-1.5365,-1.537,-1.5333,-1.5253,-1.5201,-1.5201,-1.5195,-1.5195,-1.5189,-1.5171,-1.5143,-1.513,-1.5124,-1.5117,-1.5127,-1.5056,-1.4973,-1.4942,-1.4923,-1.4929,-1.4966,-1.4973,-1.4977,-1.4977,-1.4973,-1.4954,-1.4973,-1.492,-1.4909,-1.4875,-1.4854,-1.4808,-1.4776,-1.4737,-1.471,-1.469,-1.468,-1.4611,-1.4528,-1.4556,-1.4594,-1.4516,-1.4488,-1.4545,-1.4567,-1.4511,-1.4511,-1.4545,-1.4561,-1.4594,-1.4556,-1.4528,-1.4488,-1.7024,-1.7024,-1.7024,-1.7202,-1.7495,-1.7535,-1.7427,-1.7289,-1.7249,-1.727,-1.7433,-1.7738,-1.7969,-1.7943,-1.7874,-1.7943,-1.7954,-1.7831,-1.7965,-1.8097,-1.8258,-1.8543,-1.8753,-1.8927,-1.9018,-1.9246,-1.9284,-1.928,-1.9484,-1.9549,-1.9556,-1.9725,-1.9767,-1.9755,-1.9786,-1.9797,-1.9761,-1.9821,-1.9761,-1.9901,-2.0148,-2.0149,-2.0239,-2.0301,-2.0344,-2.0344,-2.0358,-2.0346,-2.0349,-2.0366,-2.0385,-2.0377,-2.0238,-1.9949,-1.9134,-1.8104,-1.7358,-1.6715,-1.5751,-1.5329,-1.5373,-1.5377,-1.5351,-1.5327,-1.5385,-1.5301,-1.5248,-1.5258,-1.5207,-1.5195,-1.5195,-1.518,-1.5196,-1.5204,-1.5218,-1.5226,-1.5209,-1.5198,-1.5152,-1.5146,-1.513,-1.513,-1.5145,-1.5101,-1.5098,-1.5107,-1.5088,-1.5062,-1.5062,-1.5052,-1.504,-1.5026,-1.4965,-1.4915,-1.485,-1.4832,-1.4841,-1.4823,-1.4794,-1.4756,-1.4712,-1.4692,-1.4671,-1.4645,-1.4664,-1.471,-1.4705,-1.4654,-1.468,-1.4741,-1.4731,-1.4716,-1.4669,-1.4627,-1.4611,-1.6208,-1.6281,-1.6236,-1.6299,-1.6391,-1.6446,-1.6262,-1.6008,-1.6025,-1.5815,-1.5612,-1.637,-1.6774,-1.6966,-1.6878,-1.6999,-1.7044,-1.7007,-1.7194,-1.7471,-1.7586,-1.7873,-1.8172,-1.8426,-1.8579,-1.868,-1.8744,-1.8919,-1.9123,-1.9136,-1.9265,-1.9575,-1.9651,-1.9632,-1.9651,-1.9632,-1.9529,-1.9489,-1.9489,-1.9575,-1.971,-1.9871,-2.005,-2.0184,-2.0229,-2.0229,-2.0223,-2.0219,-2.0215,-2.0282,-2.0291,-2.0158,-1.9909,-1.9485,-1.8553,-1.7654,-1.6967,-1.6237,-1.5509,-1.5289,-1.5336,-1.5337,-1.5306,-1.5312,-1.5365,-1.5346,-1.5296,-1.5278,-1.5221,-1.5218,-1.5221,-1.521,-1.5248,-1.5251,-1.5269,-1.5283,-1.5272,-1.5276,-1.5272,-1.5289,-1.5284,-1.5284,-1.5258,-1.5202,-1.5204,-1.5198,-1.5195,-1.5195,-1.5186,-1.5149,-1.5124,-1.5107,-1.5065,-1.5,-1.4956,-1.4952,-1.4991,-1.4923,-1.4892,-1.4902,-1.4876,-1.4818,-1.4799,-1.4832,-1.4864,-1.485,-1.4855,-1.4804,-1.4864,-1.4886,-1.4841,-1.4804,-1.4809,-1.4775,-1.4755,-1.3576,-1.3563,-1.3549,-1.3752,-1.4112,-1.4523,-1.4674,-1.4726,-1.5036,-1.5018,-1.4669,-1.4503,-1.5037,-1.6362,-1.6367,-1.6391,-1.6362,-1.626,-1.656,-1.6923,-1.6849,-1.7125,-1.7483,-1.7792,-1.8166,-1.8316,-1.8405,-1.8624,-1.869,-1.8699,-1.8753,-1.8893,-1.8875,-1.8858,-1.8868,-1.8875,-1.896,-1.8977,-1.8993,-1.9,-1.9195,-1.9433,-1.9802,-1.9888,-1.9893,-1.9893,-1.989,-1.9882,-1.9964,-2.0058,-2.0142,-1.9891,-1.9473,-1.9004,-1.8162,-1.7196,-1.6522,-1.5993,-1.5468,-1.5306,-1.5303,-1.5324,-1.5287,-1.5285,-1.5324,-1.5312,-1.529,-1.5283,-1.5255,-1.5259,-1.5252,-1.522,-1.5248,-1.5233,-1.5248,-1.5238,-1.5245,-1.5243,-1.5248,-1.5255,-1.5245,-1.5241,-1.5248,-1.5221,-1.5207,-1.5198,-1.5195,-1.5195,-1.5195,-1.5195,-1.5195,-1.5173,-1.5164,-1.5158,-1.5149,-1.5117,-1.5114,-1.5047,-1.4988,-1.4992,-1.4977,-1.4894,-1.4889,-1.4952,-1.4951,-1.4921,-1.4925,-1.4952,-1.4928,-1.4932,-1.4913,-1.4886,-1.4904,-1.4904,-1.4863]},{"header":{"parameterUnit":"m.s-1","parameterCategory":1,"la1":31.0,"la2":29.5877,"lo1":-88.7671,"lo2":-86.6584,"dy":0.0162,"dx":0.0185,"nx":115,"ny":88,"refTime":"2024-07-31T00:00:00:Z","depth":0,"parameterNumber":3,"parameterNumberName":"V-component_of_WINDS"},"data":[0.0,0.0,0.0,0.0,0.0,0.0,0.0,0.0,0.0,0.0,0.0,0.0,0.0,0.0,0.0,0.0,0.0,0.0,0.0,0.0,0.0,0.0,0.0,0.0,0.0,0.0,0.0,0.0,0.0,0.0,0.0,0.0,0.0,0.0,0.0,0.0,0.0,0.0,0.0,0.0,0.0,0.0,0.0,0.0,0.0,0.0,0.0,0.0,0.0,0.0,0.0,0.0,0.0,0.0,0.0,0.0,0.0,0.0,0.0,0.0,0.0,0.0,0.0,0.0,0.0,0.0,0.0,0.0,0.0,0.0,0.0,0.0,0.0,0.0,0.0,0.0,0.0,0.0,0.0,0.0,0.0,0.0,0.0,0.0,0.0,0.0,0.0,0.0,0.0,0.0,0.0,0.0,0.0,0.0,0.0,0.0,0.0,0.0,0.0,0.0,0.0,0.0,0.0,0.0,0.0,0.0,0.0,0.0,0.0,0.0,0.0,0.0,0.0,0.0,0.0,0.0,0.0,0.0,0.0,0.0,0.0,0.0,0.0,0.0,0.0,0.0,0.0,0.0,0.0,0.0,0.0,0.0,0.0,0.0,0.0,0.0,0.0,0.0,0.0,0.0,0.0,0.0,0.0,0.0,0.0,0.0,0.0,0.0,0.0,0.0,0.0,0.0,0.0,0.0,0.0,0.0,0.0,0.0,0.0,0.0,0.0,0.0,0.0,0.0,0.0,0.0,0.0,0.0,0.0,0.0,0.0,0.0,0.0,0.0,0.0,0.0,0.0,0.0,0.0,0.0,0.0,0.0,0.0,0.0,0.0,0.0,0.0,0.0,0.0,0.0,0.0,0.0,0.0,0.0,0.0,0.0,0.0,0.0,0.0,0.0,0.0,0.0,0.0,0.0,0.0,0.0,0.0,0.0,0.0,0.0,0.0,0.0,0.0,0.0,0.0,0.0,0.0,0.0,0.0,0.0,0.0,0.0,0.0,0.0,0.0,0.0,0.0,0.0,0.0,0.0,0.0,0.0,0.0,0.0,0.0,0.0,0.0,0.0,0.0,0.0,0.0,0.0,0.0,0.0,0.0,0.0,0.0,0.0,0.0,0.0,0.0,0.0,0.0,0.0,0.0,0.0,0.0,0.0,0.0,0.0,0.0,0.0,0.0,0.0,0.0,0.0,0.0,0.0,0.0,0.0,0.0,0.0,0.0,0.0,0.0,0.0,0.0,0.0,0.0,0.0,0.0,0.0,0.0,0.0,0.0,0.0,0.0,0.0,0.0,0.0,0.0,0.0,0.0,0.0,0.0,0.0,0.0,0.0,0.0,0.0,0.0,0.0,0.0,0.0,0.0,0.0,0.0,0.0,0.0,0.0,0.0,0.0,0.0,0.0,0.0,0.0,0.0,0.0,0.0,0.0,0.0,0.0,0.0,0.0,0.0,0.0,0.0,0.0,0.0,0.0,0.0,0.0,0.0,0.0,0.0,0.0,0.0,0.0,0.0,0.0,0.0,0.0,0.0,0.0,0.0,0.0,0.0,0.0,0.0,0.0,0.0,0.0,0.0,0.0,0.0,0.0,0.0,0.0,0.0,0.0,0.0,0.0,0.0,0.0,0.0,0.0,0.0,0.0,0.0,0.0,0.0,0.0,0.0,0.0,0.0,0.0,0.0,0.0,0.0,0.0,0.0,0.0,0.0,0.0,0.0,0.0,0.0,0.0,0.0,0.0,0.0,0.0,0.0,0.0,0.0,0.0,0.0,0.0,0.0,0.0,0.0,0.0,0.0,0.0,0.0,0.0,0.0,0.0,0.0,0.0,0.0,0.0,0.0,0.0,0.0,0.0,0.0,0.0,0.0,0.0,0.0,0.0,0.0,0.0,0.0,0.0,0.0,0.0,0.0,0.0,0.0,0.0,0.0,0.0,0.0,0.0,0.0,0.0,0.0,0.0,0.0,0.0,0.0,0.0,0.0,0.0,0.0,0.0,0.0,0.0,0.0,0.0,0.0,0.0,0.0,0.0,0.0,0.0,0.0,0.0,0.0,0.0,0.0,0.0,0.0,0.0,0.0,0.0,0.0,0.0,0.0,0.0,0.0,0.0,0.0,0.0,0.0,0.0,0.0,0.0,0.0,0.0,0.0,0.0,0.0,0.0,0.0,0.0,0.0,0.0,0.0,0.0,0.0,0.0,0.0,0.0,0.0,0.0,0.0,0.0,0.0,0.0,0.0,0.0,0.0,0.0,0.0,0.0,0.0,0.0,0.0,0.0,0.0,0.0,0.0,0.0,0.0,0.0,0.0,0.0,0.0,0.0,0.0,0.0,0.0,0.0,0.0,0.0,0.0,0.0,0.0,0.0,0.0,0.0,0.0,0.0,0.0,0.0,0.0,0.0,0.0,0.0,0.0,0.0,0.0,0.0,0.0,0.0,0.0,0.0,0.0,0.0,0.0,0.0,0.0,0.0,0.0,0.0,0.0,0.0,0.0,0.0,0.0,0.0,0.0,0.0,0.0,0.0,0.0,0.0,0.0,0.0,0.0,0.0,0.0,0.0,0.0,0.0,0.0,0.0,0.0,0.0,0.0,0.0,0.0,0.0,0.0,0.0,0.0,0.0,0.0,0.0,0.0,0.0,0.0,0.0,0.0,0.0,0.0,0.0,0.0,0.0,0.0,0.0,0.0,0.0,0.0,0.0,0.0,0.0,0.0,0.0,0.0,0.0,0.0,0.0,0.0,0.0,0.0,0.0,0.0,0.0,0.0,0.0,0.0,0.0,0.0,0.0,0.0,0.0,0.0,0.0,0.0,0.0,0.0,0.0,0.0,0.0,0.0,0.0,0.0,0.0,0.0,0.0,0.0,0.0,0.0,0.0,0.0,0.0,0.0,0.0,0.0,0.0,0.0,0.0,0.0,0.0,0.0,0.0,0.0,0.0,0.0,0.0,0.0,0.0,0.0,0.0,0.0,0.0,0.0,0.0,0.0,0.0,0.0,0.0,0.0,0.0,0.0,0.0,0.0,0.0,0.0,0.0,0.0,0.0,0.0,0.0,0.0,0.0,0.0,0.0,0.0,0.0,0.0,0.0,0.0,0.0,0.0,0.0,0.0,0.0,0.0,0.0,0.0,0.0,0.0,0.0,0.0,0.0,0.0,0.0,0.0,0.0,0.0,0.0,0.0,0.0,0.0,0.0,0.0,0.0,0.0,0.0,0.0,0.0,0.0,0.0,0.0,0.0,0.0,0.0,0.0,0.0,0.0,0.0,0.0,0.0,0.0,0.0,0.0,0.0,0.0,0.0,0.0,0.0,0.0,0.0,0.0,0.0,0.0,0.0,0.0,0.0,0.0,0.0,0.0,0.0,0.0,0.0,0.0,0.0,0.0,0.0,0.0,0.0,0.0,0.0,0.0,0.0,0.0,0.0,0.0,0.0,0.0,0.0,0.0,0.0,0.0,0.0,0.0,0.0,0.0,0.0,0.0,0.0,0.0,0.0,0.0,0.0,0.0,0.0,0.0,0.0,0.0,0.0,0.0,0.0,0.0,0.0,0.0,0.0,0.0,0.0,0.0,0.0,0.0,0.0,0.0,0.0,0.0,0.0,0.0,0.0,0.0,0.0,0.0,0.0,0.0,0.0,0.0,0.0,0.0,0.0,0.0,0.0,0.0,0.0,0.0,0.0,0.0,0.0,0.0,0.0,0.0,0.0,0.0,0.0,0.0,0.0,0.0,0.0,0.0,0.0,0.0,0.0,0.0,0.0,0.0,0.0,0.0,0.0,0.0,0.0,0.0,0.0,0.0,0.0,0.0,0.0,0.0,0.0,0.0,0.0,0.0,0.0,0.0,0.0,0.0,0.0,0.0,0.0,0.0,0.0,0.0,0.0,0.0,0.0,0.0,0.0,0.0,0.0,0.0,0.0,0.0,0.0,0.0,0.0,0.0,0.0,0.0,0.0,0.0,0.0,0.0,0.0,0.0,0.0,0.0,0.0,0.0,0.0,0.0,0.0,0.0,0.0,0.0,0.0,0.0,0.0,0.0,0.0,0.0,0.0,0.0,0.0,0.0,0.0,0.0,0.0,0.0,0.0,0.0,0.0,0.0,0.0,0.0,0.0,0.0,0.0,0.0,0.0,0.0,0.0,0.0,0.0,0.0,0.0,0.0,0.0,0.0,0.0,0.0,0.0,0.0,0.0,0.0,0.0,0.0,0.0,0.0,0.0,0.0,0.0,0.0,0.0,0.0,0.0,0.0,0.0,0.0,0.0,0.0,0.0,0.0,0.0,-0.6801,0.0,0.0,0.0,0.0,0.0,0.0,0.0,0.0,0.0,0.0,0.0,0.0,0.0,0.0,0.0,0.0,0.0,0.0,0.0,0.0,0.0,0.0,0.0,0.0,0.0,0.0,0.0,0.0,0.0,0.0,0.0,0.0,0.0,0.0,0.0,0.0,0.0,0.0,0.0,0.0,0.0,0.0,0.0,0.0,0.0,0.0,0.0,0.0,0.0,0.0,0.0,0.0,0.0,0.0,0.0,0.0,0.0,0.0,0.0,0.0,0.0,0.0,0.0,0.0,0.0,0.0,0.0,0.0,0.0,0.0,0.0,0.0,0.0,0.0,0.0,0.0,0.0,0.0,0.0,0.0,0.0,0.0,0.0,0.0,0.0,0.0,0.0,0.0,0.0,0.0,0.0,0.0,0.0,0.0,0.0,0.0,0.0,0.0,0.0,0.0,0.0,0.0,0.0,0.0,0.0,0.0,0.0,0.0,0.0,0.0,-0.5191,-0.5511,-0.6331,-0.6801,-0.681,0.0,0.0,0.0,0.0,0.0,0.0,0.0,0.0,0.0,0.0,0.0,0.0,0.0,0.0,0.0,0.0,0.0,0.0,0.0,0.0,0.0,0.0,0.0,0.0,0.0,0.0,0.0,0.0,0.0,0.0,0.0,0.0,0.0,0.0,0.0,0.0,0.0,0.0,0.0,0.0,0.0,0.0,0.0,0.0,0.0,0.0,0.0,0.0,0.0,0.0,0.0,0.0,0.0,0.0,0.0,0.0,0.0,0.0,0.0,0.0,0.0,0.0,0.0,0.0,0.0,0.0,0.0,0.0,0.0,0.0,0.0,0.0,0.0,0.0,0.0,0.0,0.0,0.0,0.0,0.0,0.0,0.0,0.0,0.0,0.0,0.0,0.0,0.0,0.0,0.0,0.0,0.0,0.0,0.0,0.0,0.0,0.0,0.0,0.0,0.0,0.0,0.0,0.0,0.0,0.0,0.0,0.0,0.0,0.0,0.0,0.0,0.0,-0.6649,-0.7318,-0.726,0.0,0.0,0.0,0.0,0.0,0.0,0.0,0.0,0.0,0.0,0.0,0.0,0.0,0.0,0.0,0.0,0.0,0.0,0.0,0.0,0.0,0.0,0.0,0.0,0.0,0.0,0.0,0.0,0.0,0.0,0.0,0.0,0.0,0.0,0.0,0.0,0.0,0.0,0.0,0.0,0.0,0.0,0.0,0.0,0.0,0.0,0.0,0.0,0.0,0.0,0.0,0.0,0.0,0.0,0.0,0.0,0.0,0.0,0.0,0.0,0.0,0.0,0.0,0.0,0.0,0.0,0.0,0.0,0.0,0.0,0.0,0.0,0.0,0.0,0.0,0.0,0.0,0.0,0.0,0.0,0.0,0.0,0.0,0.0,0.0,0.0,0.0,0.0,0.0,0.0,0.0,0.0,0.0,0.0,0.0,0.0,0.0,0.0,0.0,0.0,0.0,0.0,0.0,0.0,0.0,0.0,0.0,0.0,0.0,0.0,-0.4706,-0.4954,-0.66,0.0,-0.8541,0.0,0.0,0.0,0.0,0.0,0.0,0.0,0.0,0.0,0.0,0.0,0.0,0.0,0.0,0.0,0.0,0.0,0.0,0.0,0.0,0.0,0.0,0.0,0.0,0.0,0.0,0.0,0.0,0.0,0.0,0.0,0.0,0.0,0.0,0.0,0.0,0.0,0.0,0.0,0.0,0.0,0.0,0.0,0.0,0.0,0.0,0.0,0.0,0.0,0.0,0.0,0.0,0.0,0.0,0.0,0.0,0.0,0.0,0.0,0.0,0.0,0.0,0.0,0.0,0.0,0.0,0.0,0.0,0.0,0.0,0.0,0.0,0.0,0.0,0.0,0.0,0.0,0.0,0.0,0.0,0.0,0.0,0.0,0.0,0.0,0.0,0.0,0.0,0.0,0.0,0.0,0.0,0.0,0.0,0.0,0.0,0.0,0.0,0.0,0.0,0.0,0.0,0.0,0.0,0.0,0.0,0.0,0.0,0.0,0.0,-0.4792,-0.4918,-0.6239,-0.7267,0.0,0.0,0.0,0.0,0.0,0.0,0.0,0.0,0.0,0.0,0.0,0.0,0.0,0.0,0.0,0.0,0.0,0.0,0.0,0.0,0.0,0.0,0.0,0.0,0.0,0.0,0.0,0.0,0.0,0.0,0.0,0.0,0.0,0.0,0.0,0.0,0.0,0.0,0.0,0.0,0.0,0.0,0.0,0.0,0.0,0.0,0.0,0.0,0.0,0.0,0.0,0.0,0.0,0.0,0.0,0.0,0.0,0.0,0.0,0.0,0.0,0.0,0.0,0.0,0.0,0.0,0.0,0.0,0.0,0.0,0.0,0.0,0.0,0.0,0.0,0.0,0.0,0.0,0.0,0.0,0.0,0.0,0.0,0.0,0.0,0.0,0.0,0.0,0.0,0.0,0.0,0.0,0.0,0.0,0.0,0.0,0.0,0.0,0.0,0.0,0.0,0.0,0.0,0.0,0.0,0.0,0.0,0.0,0.0,0.0,-0.485,-0.5169,-0.5763,-0.6641,-0.7281,-0.7708,0.0,0.0,0.0,0.0,0.0,0.0,0.0,0.0,0.0,0.0,0.0,0.0,0.0,0.0,0.0,0.0,0.0,0.0,0.0,0.0,0.0,0.0,0.0,0.0,0.0,0.0,0.0,0.0,0.0,0.0,0.0,0.0,0.0,0.0,0.0,0.0,0.0,0.0,0.0,0.0,0.0,0.0,0.0,0.0,0.0,0.0,0.0,0.0,0.0,0.0,0.0,0.0,0.0,0.0,0.0,0.0,0.0,0.0,0.0,0.0,0.0,0.0,0.0,0.0,0.0,0.0,0.0,0.0,0.0,0.0,0.0,0.0,0.0,0.0,0.0,0.0,0.0,0.0,0.0,0.0,0.0,0.0,0.0,0.0,0.0,0.0,0.0,0.0,0.0,0.0,0.0,0.0,0.0,0.0,0.0,0.0,0.0,0.0,0.0,0.0,0.0,0.0,0.0,0.0,0.0,0.0,0.0,0.0,0.0,-0.5053,-0.5856,-0.77,-0.8147,-0.8436,0.0,0.0,0.0,0.0,0.0,0.0,0.0,0.0,0.0,0.0,0.0,0.0,0.0,0.0,0.0,0.0,0.0,0.0,0.0,0.0,0.0,0.0,0.0,0.0,0.0,0.0,0.0,0.0,0.0,0.0,0.0,0.0,0.0,0.0,0.0,0.0,0.0,0.0,0.0,0.0,0.0,0.0,0.0,0.0,0.0,0.0,0.0,0.0,0.0,0.0,0.0,0.0,0.0,0.0,0.0,0.0,0.0,0.0,0.0,0.0,0.0,0.0,0.0,0.0,0.0,0.0,0.0,0.0,0.0,0.0,0.0,0.0,0.0,0.0,0.0,0.0,0.0,0.0,0.0,0.0,0.0,0.0,0.0,0.0,0.0,0.0,0.0,0.0,0.0,0.0,0.0,0.0,0.0,0.0,0.0,0.0,0.0,0.0,0.0,0.0,0.0,0.0,0.0,0.0,0.0,0.0,0.0,0.0,0.0,-0.4808,-0.4958,-0.5545,-0.6694,-0.7334,-0.7598,0.0,0.0,0.0,0.0,0.0,0.0,0.0,0.0,0.0,0.0,0.0,0.0,0.0,0.0,0.0,0.0,0.0,0.0,0.0,0.0,0.0,0.0,0.0,0.0,0.0,0.0,0.0,0.0,0.0,0.0,0.0,0.0,0.0,0.0,0.0,0.0,0.0,0.0,0.0,0.0,0.0,0.0,0.0,0.0,0.0,0.0,0.0,0.0,0.0,0.0,0.0,0.0,0.0,0.0,0.0,0.0,0.0,0.0,0.0,0.0,0.0,0.0,0.0,0.0,0.0,0.0,0.0,0.0,0.0,0.0,0.0,0.0,0.0,0.0,0.0,0.0,0.0,0.0,0.0,0.0,0.0,0.0,0.0,0.0,0.0,0.0,0.0,0.0,0.0,0.0,0.0,0.0,0.0,0.0,0.0,0.0,0.0,0.0,0.0,0.0,0.0,0.0,0.0,0.0,0.0,0.0,0.0,0.0,0.0,-0.4784,0.0,-0.5757,0.0,-0.7205,-0.7445,0.0,0.0,0.0,0.0,0.0,0.0,0.0,0.0,0.0,0.0,0.0,0.0,0.0,0.0,0.0,0.0,0.0,0.0,0.0,0.0,0.0,0.0,0.0,0.0,0.0,0.0,0.0,0.0,0.0,0.0,0.0,0.0,0.0,0.0,0.0,0.0,0.0,0.0,0.0,0.0,0.0,0.0,0.0,0.0,0.0,0.0,0.0,0.0,0.0,0.0,0.0,0.0,0.0,0.0,0.0,0.0,0.0,0.0,0.0,0.0,0.0,0.0,0.0,0.0,0.0,0.0,0.0,0.0,0.0,0.0,0.0,0.0,0.0,0.0,0.0,0.0,0.0,0.0,0.0,0.0,0.0,0.0,0.0,0.0,0.0,0.0,0.0,0.0,0.0,0.0,0.0,0.0,0.0,0.0,0.0,0.0,0.0,0.0,0.0,0.0,0.0,0.0,0.0,0.0,0.0,0.0,0.0,0.0,-0.4788,-0.5358,-0.5661,-0.6452,-0.7904,-0.7946,-0.8221,0.0,0.0,0.0,0.0,0.0,0.0,0.0,0.0,0.0,0.0,0.0,0.0,0.0,0.0,0.0,0.0,0.0,0.0,0.0,0.0,0.0,0.0,0.0,0.0,0.0,0.0,0.0,0.0,0.0,0.0,0.0,0.0,0.0,0.0,0.0,0.0,0.0,0.0,0.0,0.0,0.0,0.0,0.0,0.0,0.0,0.0,0.0,0.0,0.0,0.0,0.0,0.0,0.0,0.0,0.0,0.0,0.0,0.0,0.0,0.0,0.0,0.0,0.0,0.0,0.0,0.0,0.0,0.0,0.0,0.0,0.0,0.0,0.0,0.0,0.0,0.0,0.0,0.0,0.0,0.0,0.0,0.0,0.0,0.0,0.0,0.0,0.0,0.0,0.0,0.0,0.0,0.0,0.0,0.0,0.0,0.0,0.0,0.0,0.0,0.0,0.0,0.0,0.0,0.0,0.0,0.0,0.0,0.0,0.0,-0.5174,-0.5501,-0.641,-0.791,-0.7707,-0.796,0.0,0.0,0.0,0.0,0.0,0.0,0.0,0.0,0.0,0.0,0.0,0.0,0.0,0.0,0.0,0.0,0.0,0.0,0.0,0.0,0.0,0.0,0.0,0.0,0.0,0.0,0.0,0.0,0.0,0.0,0.0,0.0,0.0,0.0,0.0,0.0,0.0,0.0,0.0,0.0,0.0,0.0,0.0,0.0,0.0,0.0,0.0,0.0,0.0,0.0,0.0,0.0,0.0,0.0,0.0,0.0,0.0,0.0,0.0,0.0,0.0,0.0,0.0,0.0,0.0,0.0,0.0,0.0,0.0,0.0,0.0,0.0,0.0,0.0,0.0,0.0,0.0,0.0,0.0,0.0,0.0,0.0,0.0,0.0,0.0,0.0,0.0,0.0,0.0,0.0,0.0,0.0,0.0,0.0,0.0,0.0,0.0,0.0,0.0,0.0,0.0,0.0,0.0,0.0,0.0,0.0,0.0,0.0,0.0,-0.5443,-0.5762,-0.6722,-0.8371,-0.79,-0.8205,-0.9349,0.0,0.0,0.0,0.0,0.0,0.0,0.0,0.0,0.0,0.0,0.0,0.0,0.0,0.0,0.0,0.0,0.0,0.0,0.0,0.0,0.0,0.0,0.0,0.0,0.0,0.0,0.0,0.0,0.0,0.0,0.0,0.0,0.0,0.0,0.0,0.0,0.0,0.0,0.0,0.0,0.0,0.0,0.0,0.0,0.0,0.0,0.0,0.0,0.0,0.0,0.0,0.0,0.0,0.0,0.0,0.0,0.0,0.0,0.0,0.0,0.0,0.0,0.0,0.0,0.0,0.0,0.0,0.0,0.0,0.0,0.0,0.0,0.0,0.0,0.0,0.0,0.0,0.0,0.0,0.0,0.0,0.0,0.0,0.0,0.0,0.0,0.0,0.0,0.0,0.0,0.0,0.0,0.0,0.0,0.0,0.0,0.0,0.0,0.0,0.0,0.0,0.0,0.0,0.0,0.0,0.0,0.0,0.0,-0.6003,-0.6332,-0.7352,-0.9065,-0.8536,-0.8799,0.0,0.0,0.0,0.0,0.0,0.0,0.0,0.0,0.0,0.0,0.0,0.0,0.0,0.0,0.0,0.0,0.0,0.0,0.0,0.0,0.0,0.0,0.0,0.0,0.0,0.0,0.0,0.0,0.0,0.0,0.0,0.0,0.0,0.0,0.0,0.0,0.0,0.0,0.0,0.0,0.0,0.0,0.0,0.0,0.0,0.0,0.0,0.0,0.0,0.0,0.0,0.0,0.0,0.0,0.0,0.0,0.0,0.0,0.0,0.0,0.0,0.0,0.0,0.0,0.0,0.0,0.0,0.0,0.0,0.0,0.0,0.0,0.0,0.0,0.0,0.0,0.0,0.0,0.0,0.0,0.0,0.0,0.0,0.0,0.0,0.0,0.0,0.0,0.0,0.0,0.0,0.0,0.0,0.0,0.0,0.0,0.0,0.0,0.0,0.0,0.0,0.0,0.0,0.0,0.0,0.0,0.0,0.0,0.0,-0.6196,-0.6488,-0.7626,-0.9592,-0.8692,-0.9017,0.0,0.0,0.0,0.0,0.0,0.0,0.0,0.0,0.0,0.0,0.0,0.0,0.0,0.0,0.0,0.0,0.0,0.0,0.0,0.0,0.0,0.0,0.0,0.0,0.0,0.0,0.0,0.0,0.0,0.0,0.0,0.0,0.0,0.0,0.0,0.0,0.0,0.0,0.0,0.0,0.0,0.0,0.0,0.0,0.0,0.0,0.0,0.0,0.0,0.0,0.0,0.0,0.0,0.0,0.0,0.0,0.0,0.0,0.0,0.0,0.0,0.0,0.0,0.0,0.0,0.0,0.0,0.0,0.0,0.0,0.0,0.0,0.0,0.0,0.0,0.0,0.0,0.0,0.0,0.0,0.0,0.0,0.0,0.0,0.0,0.0,0.0,0.0,0.0,0.0,0.0,0.0,0.0,0.0,0.0,0.0,0.0,0.0,0.0,0.0,0.0,0.0,0.0,0.0,0.0,0.0,0.0,0.0,-0.6142,-0.648,-0.7083,-0.8205,-0.9781,-0.9006,-0.9346,0.0,0.0,0.0,0.0,0.0,0.0,0.0,0.0,0.0,0.0,0.0,0.0,0.0,0.0,0.0,0.0,0.0,0.0,0.0,0.0,0.0,0.0,0.0,0.0,0.0,0.0,0.0,0.0,0.0,0.0,0.0,0.0,0.0,0.0,0.0,0.0,0.0,0.0,0.0,0.0,0.0,0.0,0.0,0.0,0.0,0.0,0.0,0.0,0.0,0.0,0.0,0.0,0.0,0.0,0.0,0.0,0.0,0.0,0.0,0.0,0.0,0.0,0.0,0.0,0.0,0.0,0.0,0.0,0.0,0.0,0.0,0.0,0.0,0.0,0.0,0.0,0.0,0.0,0.0,0.0,0.0,0.0,0.0,0.0,0.0,0.0,0.0,0.0,0.0,0.0,0.0,0.0,0.0,0.0,0.0,0.0,0.0,0.0,0.0,0.0,0.0,0.0,0.0,0.0,0.0,0.0,0.0,0.0,-0.6426,-0.6692,-0.7754,-0.8759,-0.963,-0.9431,-0.981,0.0,0.0,0.0,0.0,0.0,0.0,0.0,0.0,0.0,0.0,0.0,0.0,0.0,0.0,0.0,0.0,0.0,0.0,0.0,0.0,0.0,0.0,0.0,0.0,0.0,0.0,0.0,0.0,0.0,0.0,0.0,0.0,0.0,0.0,0.0,0.0,0.0,0.0,0.0,0.0,0.0,0.0,0.0,0.0,0.0,0.0,0.0,0.0,0.0,0.0,0.0,0.0,0.0,0.0,0.0,0.0,0.0,0.0,0.0,0.0,0.0,0.0,0.0,0.0,0.0,0.0,0.0,0.0,0.0,0.0,0.0,0.0,0.0,0.0,0.0,0.0,0.0,0.0,0.0,0.0,0.0,0.0,0.0,0.0,0.0,0.0,0.0,0.0,0.0,0.0,0.0,0.0,0.0,0.0,0.0,0.0,0.0,0.0,0.0,0.0,0.0,0.0,0.0,0.0,0.0,0.0,0.0,0.0,-0.633,-0.6392,-0.7521,-0.8542,-0.9528,-1.004,-1.0503,0.0,0.0,0.0,0.0,0.0,0.0,0.0,0.0,0.0,0.0,0.0,0.0,0.0,0.0,0.0,0.0,0.0,0.0,0.0,0.0,0.0,0.0,0.0,0.0,0.0,0.0,0.0,0.0,0.0,0.0,0.0,0.0,0.0,0.0,0.0,0.0,0.0,0.0,0.0,0.0,0.0,0.0,0.0,0.0,0.0,0.0,0.0,0.0,-1.0338,0.0,0.0,0.0,0.0,0.0,0.0,0.0,0.0,0.0,0.0,0.0,0.0,0.0,0.0,0.0,0.0,0.0,0.0,0.0,0.0,0.0,0.0,0.0,0.0,0.0,0.0,0.0,0.0,0.0,0.0,0.0,0.0,0.0,0.0,0.0,0.0,0.0,0.0,0.0,0.0,0.0,0.0,0.0,0.0,0.0,0.0,0.0,0.0,0.0,0.0,0.0,0.0,0.0,0.0,0.0,0.0,0.0,0.0,0.0,-0.656,-0.7094,-0.8151,-0.9179,-1.0195,-1.0968,-1.127,0.0,0.0,0.0,0.0,0.0,0.0,0.0,0.0,0.0,0.0,0.0,0.0,0.0,0.0,0.0,0.0,0.0,0.0,0.0,0.0,0.0,0.0,0.0,0.0,0.0,0.0,0.0,0.0,0.0,0.0,0.0,0.0,0.0,0.0,0.0,0.0,0.0,0.0,0.0,0.0,0.0,0.0,0.0,0.0,0.0,0.0,0.0,0.0,0.0,0.0,0.0,0.0,0.0,0.0,0.0,0.0,0.0,0.0,0.0,0.0,0.0,0.0,0.0,0.0,0.0,0.0,0.0,0.0,0.0,0.0,0.0,0.0,0.0,0.0,0.0,0.0,0.0,0.0,0.0,0.0,0.0,0.0,0.0,0.0,0.0,0.0,0.0,0.0,0.0,0.0,0.0,0.0,0.0,0.0,0.0,0.0,0.0,0.0,0.0,0.0,0.0,0.0,0.0,0.0,0.0,0.0,0.0,-0.6112,-0.6957,-0.7955,-0.9091,-1.0103,-1.0958,-1.1821,-1.1864,-1.0995,0.0,0.0,0.0,0.0,0.0,0.0,0.0,0.0,0.0,0.0,0.0,0.0,0.0,0.0,0.0,0.0,0.0,0.0,0.0,0.0,0.0,0.0,0.0,0.0,0.0,0.0,0.0,0.0,0.0,0.0,0.0,0.0,0.0,0.0,0.0,0.0,0.0,0.0,-0.8991,-0.973,0.0,0.0,0.0,0.0,0.0,0.0,0.0,0.0,-1.1363,0.0,0.0,0.0,0.0,0.0,0.0,0.0,0.0,0.0,0.0,0.0,0.0,0.0,0.0,0.0,0.0,0.0,0.0,0.0,0.0,0.0,0.0,0.0,0.0,0.0,0.0,0.0,0.0,0.0,0.0,0.0,0.0,0.0,0.0,0.0,0.0,0.0,0.0,0.0,0.0,0.0,0.0,0.0,0.0,0.0,0.0,0.0,0.0,0.0,0.0,0.0,0.0,0.0,0.0,0.0,0.0,-0.5757,-0.6642,-0.7359,-0.7855,-0.964,-1.066,-1.0848,-1.1793,-1.1777,-1.074,0.0,0.0,0.0,0.0,0.0,0.0,0.0,0.0,0.0,0.0,0.0,0.0,0.0,0.0,0.0,0.0,0.0,0.0,0.0,0.0,0.0,0.0,0.0,0.0,0.0,0.0,0.0,0.0,0.0,0.0,0.0,0.0,0.0,0.0,0.0,0.0,0.0,0.0,0.0,-1.0629,-1.1302,0.0,0.0,0.0,0.0,0.0,0.0,0.0,0.0,-1.1864,0.0,0.0,0.0,0.0,0.0,0.0,0.0,0.0,0.0,0.0,0.0,0.0,0.0,0.0,0.0,0.0,0.0,0.0,0.0,0.0,0.0,0.0,0.0,0.0,0.0,0.0,0.0,0.0,0.0,0.0,0.0,0.0,0.0,0.0,0.0,0.0,0.0,0.0,0.0,0.0,0.0,0.0,0.0,0.0,0.0,0.0,0.0,0.0,0.0,0.0,0.0,0.0,0.0,0.0,0.0,-0.6992,-0.7874,-0.8662,-0.9352,-1.0297,-1.105,-1.1576,-1.1745,-1.1443,0.0,0.0,0.0,0.0,0.0,0.0,0.0,0.0,0.0,0.0,0.0,0.0,0.0,0.0,0.0,0.0,0.0,0.0,0.0,0.0,0.0,0.0,0.0,0.0,0.0,0.0,0.0,0.0,0.0,0.0,0.0,0.0,0.0,0.0,0.0,0.0,0.0,0.0,0.0,0.0,-1.1102,-1.1817,-1.2301,0.0,0.0,0.0,0.0,0.0,0.0,-1.2184,-1.2319,0.0,0.0,0.0,0.0,0.0,0.0,0.0,0.0,0.0,0.0,0.0,0.0,0.0,0.0,0.0,0.0,0.0,0.0,0.0,0.0,0.0,0.0,0.0,0.0,0.0,0.0,0.0,0.0,0.0,0.0,0.0,0.0,0.0,0.0,0.0,0.0,0.0,0.0,0.0,0.0,0.0,0.0,0.0,0.0,0.0,0.0,0.0,0.0,0.0,0.0,0.0,0.0,0.0,0.0,0.0,-0.7948,-0.8897,-0.9834,-1.0664,-1.0892,-1.1384,-1.2204,-1.1662,-1.1129,0.0,0.0,0.0,0.0,0.0,0.0,0.0,0.0,0.0,0.0,0.0,0.0,0.0,0.0,0.0,0.0,0.0,0.0,0.0,0.0,0.0,0.0,0.0,0.0,0.0,0.0,0.0,0.0,0.0,0.0,0.0,0.0,0.0,0.0,0.0,0.0,0.0,0.0,0.0,0.0,0.0,-1.2482,-1.2831,-1.2978,0.0,0.0,0.0,0.0,-1.2572,-1.2579,0.0,0.0,0.0,0.0,0.0,0.0,0.0,0.0,0.0,0.0,0.0,0.0,0.0,0.0,0.0,0.0,0.0,0.0,0.0,0.0,0.0,0.0,0.0,0.0,0.0,0.0,0.0,0.0,0.0,0.0,0.0,0.0,0.0,0.0,0.0,0.0,0.0,0.0,0.0,0.0,0.0,0.0,0.0,0.0,0.0,0.0,0.0,0.0,0.0,0.0,0.0,0.0,0.0,0.0,0.0,0.0,-0.7632,-0.9046,-1.0031,-1.0455,-1.1325,-1.1839,-1.1953,-1.1597,-1.0996,0.0,0.0,0.0,0.0,0.0,0.0,0.0,0.0,0.0,0.0,0.0,0.0,0.0,0.0,0.0,0.0,0.0,0.0,0.0,0.0,0.0,0.0,0.0,0.0,0.0,0.0,0.0,0.0,0.0,0.0,0.0,0.0,0.0,0.0,0.0,0.0,0.0,0.0,0.0,0.0,0.0,-1.3667,-1.322,-1.3607,-1.3828,0.0,0.0,-1.3447,-1.3447,-1.3447,0.0,0.0,0.0,0.0,0.0,0.0,0.0,0.0,0.0,0.0,0.0,0.0,0.0,0.0,0.0,0.0,0.0,0.0,0.0,0.0,0.0,0.0,0.0,0.0,0.0,0.0,0.0,0.0,0.0,0.0,0.0,0.0,0.0,0.0,0.0,0.0,0.0,0.0,0.0,0.0,0.0,0.0,0.0,0.0,0.0,0.0,0.0,0.0,0.0,0.0,0.0,0.0,0.0,0.0,0.0,-0.9165,-0.9009,-1.015,-1.0914,-1.1226,-1.1486,-1.1697,-1.1899,-1.1096,-1.0476,0.0,0.0,0.0,0.0,0.0,0.0,0.0,0.0,0.0,0.0,0.0,0.0,0.0,0.0,0.0,0.0,0.0,0.0,0.0,0.0,0.0,0.0,0.0,0.0,0.0,0.0,0.0,0.0,0.0,0.0,0.0,0.0,0.0,0.0,0.0,0.0,0.0,0.0,0.0,0.0,0.0,0.0,-1.3427,-1.3821,0.0,0.0,0.0,-1.3606,-1.3606,0.0,0.0,0.0,0.0,0.0,0.0,0.0,0.0,0.0,0.0,0.0,0.0,0.0,0.0,0.0,0.0,0.0,0.0,0.0,0.0,0.0,0.0,0.0,0.0,0.0,0.0,0.0,0.0,0.0,0.0,0.0,0.0,0.0,0.0,0.0,0.0,0.0,0.0,0.0,0.0,0.0,0.0,0.0,0.0,0.0,0.0,0.0,0.0,0.0,0.0,0.0,0.0,0.0,0.0,0.0,0.0,0.0,-0.9997,-1.0836,-1.1423,-1.1672,-1.143,-1.1423,-1.1658,-1.0648,0.0,0.0,0.0,0.0,0.0,0.0,0.0,0.0,0.0,0.0,0.0,0.0,0.0,0.0,0.0,0.0,0.0,0.0,0.0,0.0,0.0,0.0,0.0,0.0,0.0,0.0,0.0,-0.8484,0.0,0.0,0.0,0.0,0.0,0.0,0.0,0.0,0.0,0.0,0.0,0.0,0.0,0.0,-1.348,-1.3586,-1.3955,-1.4088,0.0,0.0,-1.3606,-1.3606,-1.336,-1.341,0.0,0.0,0.0,0.0,0.0,0.0,0.0,0.0,0.0,0.0,0.0,0.0,0.0,0.0,0.0,0.0,0.0,0.0,0.0,0.0,0.0,0.0,0.0,0.0,0.0,0.0,0.0,0.0,0.0,0.0,0.0,0.0,0.0,0.0,0.0,0.0,0.0,0.0,0.0,0.0,0.0,0.0,0.0,0.0,0.0,0.0,0.0,0.0,0.0,0.0,0.0,0.0,0.0,0.0,0.0,-0.974,-1.0581,-1.1029,-1.1049,-1.1035,-1.1029,-1.1042,-1.041,-1.0272,0.0,0.0,0.0,0.0,0.0,0.0,0.0,0.0,0.0,0.0,0.0,0.0,0.0,0.0,0.0,0.0,0.0,0.0,0.0,0.0,0.0,0.0,0.0,0.0,0.0,0.0,0.0,0.0,0.0,0.0,0.0,0.0,0.0,0.0,0.0,0.0,0.0,0.0,0.0,0.0,0.0,-1.3935,-1.364,-1.4086,-1.4389,0.0,0.0,-1.3606,-1.3606,-1.34,-1.3152,-1.2934,0.0,0.0,0.0,0.0,0.0,0.0,0.0,0.0,0.0,0.0,0.0,0.0,0.0,0.0,0.0,0.0,0.0,0.0,0.0,0.0,0.0,0.0,0.0,0.0,0.0,0.0,0.0,0.0,0.0,0.0,0.0,0.0,0.0,0.0,0.0,0.0,0.0,0.0,0.0,0.0,0.0,0.0,0.0,0.0,0.0,0.0,0.0,0.0,0.0,0.0,0.0,0.0,0.0,-0.9715,-0.9729,-1.0405,-1.0815,-1.0982,-1.0854,-1.0815,-1.0982,-1.0254,-1.0137,0.0,0.0,0.0,0.0,0.0,0.0,0.0,0.0,0.0,0.0,0.0,0.0,0.0,0.0,0.0,0.0,0.0,0.0,0.0,0.0,0.0,0.0,0.0,0.0,0.0,0.0,0.0,0.0,-0.8938,-0.9044,-0.9051,0.0,0.0,0.0,0.0,0.0,0.0,0.0,0.0,0.0,0.0,-1.38,-1.3901,-1.4108,0.0,0.0,-1.3988,-1.3848,-1.3633,-1.336,-1.3106,-1.2837,-1.2798,0.0,0.0,0.0,0.0,0.0,0.0,0.0,0.0,0.0,0.0,0.0,0.0,0.0,0.0,0.0,0.0,0.0,0.0,0.0,0.0,0.0,0.0,0.0,0.0,0.0,0.0,0.0,0.0,0.0,0.0,0.0,0.0,0.0,0.0,0.0,0.0,0.0,0.0,0.0,0.0,0.0,0.0,0.0,0.0,0.0,0.0,0.0,0.0,0.0,0.0,0.0,0.0,-0.9715,-0.9722,-1.0298,-1.0687,-1.0855,-1.0942,-1.0935,-1.0861,-1.0358,-1.0351,0.0,0.0,0.0,0.0,0.0,0.0,0.0,0.0,0.0,0.0,0.0,0.0,0.0,0.0,0.0,0.0,0.0,0.0,0.0,0.0,0.0,0.0,0.0,0.0,0.0,0.0,0.0,0.0,-0.9091,-0.9176,-0.9183,0.0,0.0,0.0,0.0,0.0,0.0,0.0,0.0,0.0,0.0,-1.368,-1.3921,-1.3955,-1.3948,-1.3955,-1.3881,-1.3788,-1.3626,-1.336,-1.3244,-1.3362,0.0,0.0,0.0,0.0,0.0,0.0,0.0,0.0,0.0,0.0,0.0,0.0,0.0,0.0,0.0,0.0,0.0,0.0,0.0,0.0,0.0,0.0,0.0,0.0,0.0,0.0,0.0,0.0,0.0,0.0,0.0,0.0,0.0,0.0,0.0,0.0,0.0,0.0,0.0,0.0,0.0,0.0,0.0,0.0,0.0,0.0,0.0,0.0,0.0,0.0,0.0,0.0,0.0,-0.9708,-0.9715,-1.0302,-1.0618,-1.067,-1.1382,-1.1375,-1.0706,-1.0769,-1.1118,-1.1647,0.0,0.0,0.0,0.0,0.0,0.0,0.0,0.0,0.0,0.0,0.0,0.0,0.0,0.0,0.0,0.0,0.0,0.0,0.0,0.0,0.0,0.0,0.0,0.0,0.0,0.0,-0.9164,-0.9204,-0.9204,0.0,0.0,0.0,0.0,0.0,0.0,0.0,0.0,0.0,0.0,-1.3267,-1.3606,-1.3654,-1.362,-1.364,-1.3633,-1.344,-1.3333,-1.3607,-1.3394,-1.3548,0.0,0.0,0.0,0.0,0.0,0.0,0.0,0.0,0.0,0.0,0.0,0.0,0.0,0.0,0.0,0.0,0.0,0.0,0.0,0.0,0.0,0.0,0.0,0.0,0.0,0.0,0.0,-0.9279,-0.9071,0.0,0.0,0.0,0.0,0.0,0.0,0.0,0.0,0.0,0.0,0.0,-0.9366,-0.9791,0.0,0.0,0.0,0.0,0.0,0.0,0.0,0.0,0.0,0.0,0.0,0.0,-1.0687,-1.0515,-1.061,-1.1159,-1.2158,-1.1707,-1.1571,-1.1797,-1.1623,-1.1636,-1.1783,0.0,0.0,0.0,0.0,0.0,0.0,0.0,0.0,0.0,0.0,0.0,0.0,0.0,0.0,0.0,0.0,0.0,0.0,0.0,0.0,0.0,0.0,0.0,0.0,0.0,-0.9104,0.0,0.0,0.0,0.0,0.0,0.0,0.0,0.0,0.0,0.0,0.0,-1.3983,-1.3976,-1.4576,-1.4907,-1.4617,-1.4214,-1.3935,0.0,0.0,0.0,0.0,0.0,0.0,0.0,0.0,0.0,0.0,0.0,0.0,0.0,0.0,-1.8838,-1.8144,-1.7676,-1.7416,-1.7416,0.0,0.0,0.0,0.0,0.0,0.0,0.0,0.0,0.0,0.0,0.0,0.0,0.0,0.0,-0.9573,0.0,-0.9371,0.0,0.0,0.0,0.0,0.0,0.0,0.0,0.0,-1.0134,-1.0174,-1.003,-1.0478,-1.0609,0.0,-1.071,-1.069,0.0,0.0,0.0,0.0,0.0,0.0,0.0,0.0,-1.1212,-1.1051,-1.1035,-1.1542,-1.247,-1.2091,-1.1949,-1.2151,-1.2078,-1.1956,-1.1816,-1.251,-1.2915,0.0,0.0,0.0,0.0,0.0,0.0,0.0,0.0,0.0,0.0,0.0,0.0,0.0,0.0,0.0,0.0,0.0,0.0,0.0,0.0,0.0,0.0,0.0,-0.9541,0.0,0.0,0.0,0.0,0.0,0.0,0.0,0.0,0.0,-1.3304,-1.4531,-1.5506,-1.5428,-1.5916,-1.6069,-1.5574,0.0,0.0,0.0,0.0,0.0,0.0,0.0,-1.5473,-1.6653,-1.6644,-1.6549,-1.6747,-1.7424,-1.7859,-1.7719,0.0,0.0,-1.8555,-1.8115,-1.7861,-1.8018,-1.7812,-1.7646,-1.7793,-1.7695,-1.7598,0.0,0.0,0.0,0.0,0.0,0.0,0.0,0.0,-0.9755,-0.9719,0.0,-0.9693,0.0,0.0,0.0,0.0,0.0,0.0,0.0,0.0,-1.0483,-1.0656,-1.0706,-1.1461,-1.1826,-1.1896,-1.2572,-1.2786,-1.2535,-1.1487,0.0,0.0,0.0,0.0,0.0,0.0,-1.1323,-1.1356,-1.1579,-1.1722,-1.1855,-1.2512,-1.2531,-1.185,-1.2147,-1.2161,-1.1891,-1.2525,-1.2915,-1.2915,-1.2915,0.0,0.0,0.0,0.0,0.0,0.0,0.0,0.0,0.0,0.0,0.0,0.0,0.0,0.0,0.0,0.0,0.0,0.0,0.0,0.0,-0.976,0.0,0.0,0.0,0.0,0.0,0.0,0.0,0.0,0.0,0.0,-1.5642,-1.6363,-1.6977,-1.6921,0.0,0.0,0.0,0.0,-1.6037,-1.5634,-1.5614,-1.57,-1.6035,-1.6068,-1.6401,-1.7589,0.0,0.0,-1.8479,-1.8929,-1.9046,-1.8656,-1.889,-1.9238,-1.9199,-1.8848,-1.8685,-1.9092,-1.8525,-1.8174,-1.8432,-1.8178,-1.7978,-1.0695,0.0,0.0,0.0,0.0,-1.008,-1.0114,-1.0338,-1.0338,-1.0218,-0.9993,-0.9993,0.0,0.0,0.0,0.0,0.0,0.0,-1.0234,-1.049,-1.1152,-1.1469,-1.15,-1.2297,-1.2673,-1.2657,-1.2603,-1.2844,-1.3274,-1.2664,-1.2284,-1.221,0.0,0.0,0.0,0.0,-1.2344,-1.2149,-1.1912,-1.2297,-1.3394,-1.2895,-1.2749,-1.295,-1.2808,-1.2668,-1.2584,-1.2798,-1.2915,-1.2915,-1.2915,0.0,0.0,0.0,0.0,0.0,0.0,0.0,0.0,0.0,0.0,0.0,0.0,0.0,0.0,0.0,0.0,0.0,0.0,0.0,-1.0164,-1.0875,-1.17,0.0,0.0,0.0,0.0,0.0,0.0,0.0,0.0,0.0,-1.8601,-1.8504,-1.8276,0.0,0.0,-1.7842,-1.7342,-1.6577,-1.6035,-1.5899,0.0,0.0,0.0,-1.6933,-1.7177,-1.8635,-1.859,-1.8414,-1.8556,-1.8496,-1.833,-1.8203,-1.8291,-1.8379,-1.8389,-1.8525,-1.8627,-1.8724,-1.8379,-1.8057,-1.8144,-1.8052,-1.7998,-1.1236,-1.1002,-1.0713,-1.0586,-1.0573,-1.0405,-1.0394,-1.0586,-1.0586,-1.0492,-1.0294,-1.0294,-1.0127,-0.984,-0.9824,0.0,0.0,0.0,-1.0944,-1.1325,-1.1624,-1.1871,-1.2078,-1.2675,-1.2961,-1.2981,-1.3055,-1.3336,-1.3784,-1.3506,-1.3208,-1.2915,0.0,0.0,-1.2246,-1.2666,-1.2826,-1.2635,-1.2376,-1.2688,-1.3597,-1.2998,-1.2865,-1.3227,-1.3042,-1.2915,-1.2915,-1.2915,-1.2915,-1.2915,-1.2915,-1.2915,0.0,0.0,0.0,0.0,0.0,0.0,0.0,0.0,0.0,0.0,0.0,-1.028,-1.0457,0.0,0.0,0.0,-1.039,-1.0657,-1.1486,-1.2216,0.0,0.0,0.0,0.0,0.0,0.0,0.0,-1.8395,-1.9246,-1.9824,-1.9912,-1.9592,-1.9319,-1.9245,-1.9048,-1.8797,-1.8397,0.0,-1.6974,-1.6833,-1.6807,-1.7034,-1.7713,-1.7582,-1.7729,-1.8624,-1.8428,-1.8144,-1.8091,-1.7759,-1.7486,-1.7467,-1.751,-1.75,-1.75,-1.7681,-1.7925,-1.8096,-1.7949,-1.7725,-1.7549,-1.7467,-1.7477,-1.1483,-1.1002,-1.0713,-1.0586,-1.0586,-1.0586,-1.0586,-1.0586,-1.0586,-1.0586,-1.0586,-1.0586,-1.0419,-1.0097,-1.0472,0.0,0.0,-1.1335,-1.1866,-1.2327,-1.1946,-1.1999,-1.2435,-1.2814,-1.3004,-1.3032,-1.3717,-1.4029,-1.4055,-1.398,-1.3812,-1.3441,-1.3457,-1.3262,-1.2925,-1.2915,-1.2915,-1.2915,-1.2915,-1.2915,-1.2915,-1.2915,-1.2915,-1.2915,-1.2915,-1.2915,-1.2915,-1.2915,-1.2915,-1.2915,-1.2915,-1.2915,-1.2915,0.0,0.0,0.0,0.0,0.0,0.0,0.0,0.0,0.0,0.0,0.0,0.0,0.0,0.0,0.0,-1.2383,0.0,-1.3321,-1.3752,0.0,0.0,0.0,-1.5456,-1.7338,-1.7892,-1.8424,-1.9204,0.0,0.0,0.0,0.0,-2.001,-2.0449,-2.0078,-1.9668,-1.9287,-1.8776,-1.8412,-1.7968,-1.7954,-1.7935,-1.7862,-1.7818,-1.777,-1.7891,-1.7588,-1.7363,-1.7344,-1.7061,-1.6746,-1.6755,-1.6707,-1.6716,-1.6707,-1.6775,-1.6824,-1.7217,-1.7314,-1.7207,-1.6853,-1.6765,-1.6785,-1.1122,-1.0969,-1.0713,-1.0586,-1.0586,-1.0586,-1.0586,-1.0586,-1.0586,-1.0586,-1.0586,-1.0586,-1.0305,-0.9822,-1.0089,-1.0306,-1.0414,-1.0786,-1.1277,-1.1886,-1.2398,-1.2664,-1.2807,-1.3486,-1.38,-1.3807,-1.3694,-1.3662,-1.3633,-1.334,-1.316,-1.3027,-1.3027,-1.2978,-1.2915,-1.2915,-1.2915,-1.2915,-1.2915,-1.2915,-1.2915,-1.2915,-1.2915,-1.2915,-1.2915,-1.2915,-1.2915,-1.2915,-1.2915,-1.2915,-1.2915,-1.2915,-1.2915,-1.2915,0.0,0.0,0.0,0.0,0.0,0.0,0.0,0.0,0.0,-1.1939,-1.1535,0.0,-1.1686,0.0,-1.4164,-1.4715,-1.4659,-1.5185,0.0,0.0,-1.7048,-1.7259,-1.8666,-1.8621,-1.8691,-1.9248,-1.9473,-1.9551,-1.9453,-1.9434,-1.9473,-1.958,-1.9209,-1.887,-1.8754,-1.8428,-1.8125,-1.7998,-1.7734,-1.7529,-1.751,-1.7246,-1.7028,-1.6999,-1.6953,-1.6894,-1.6885,-1.6775,-1.6697,-1.6697,-1.6697,-1.6697,-1.6677,-1.6697,-1.658,-1.6465,-1.6641,-1.6855,-1.6716,-1.6687,-1.6687,-1.0915,-1.0821,-1.066,-1.0586,-1.0586,-1.0586,-1.0586,-1.0586,-1.0586,-1.0586,-1.0586,-1.0452,-1.0137,-0.9751,-1.0054,-1.0377,-1.0774,-1.1059,-1.1668,-1.2493,-1.2774,-1.2976,-1.317,-1.342,-1.3549,-1.3574,-1.334,-1.3232,-1.3213,-1.2998,-1.2915,-1.2915,-1.2915,-1.2915,-1.2915,-1.2915,-1.2915,-1.2915,-1.2915,-1.2915,-1.2915,-1.2915,-1.2915,-1.2915,-1.2915,-1.2915,-1.2915,-1.2915,-1.2915,-1.2915,-1.2915,-1.2915,-1.2915,-1.2915,-1.2915,0.0,0.0,0.0,0.0,0.0,0.0,0.0,0.0,0.0,0.0,0.0,-1.3014,0.0,-1.5314,0.0,-1.5583,-1.6383,-1.7217,-1.7939,-1.7969,-1.8223,-1.889,-1.8955,-1.9014,-1.9248,-1.9277,-1.9277,-1.9277,-1.9121,-1.9004,-1.8994,-1.8432,-1.8213,-1.8471,-1.8135,-1.7734,-1.7715,-1.7373,-1.71,-1.71,-1.6863,-1.6697,-1.6687,-1.6531,-1.6436,-1.6426,-1.6269,-1.6112,-1.6112,-1.6112,-1.6112,-1.6112,-1.6112,-1.6055,-1.5898,-1.5967,-1.6093,-1.6112,-1.6112,-1.6112,-1.0788,-1.0593,-1.0586,-1.0573,-1.0539,-1.0533,-1.0539,-1.0533,-1.0492,-1.0479,-1.0466,-1.0174,-0.99,-0.967,-1.0007,-1.0547,-1.1249,-1.1548,-1.2298,-1.3363,-1.3047,-1.3101,-1.3408,-1.3081,-1.2915,-1.2915,-1.2915,-1.2915,-1.2915,-1.2915,-1.2915,-1.2915,-1.2915,-1.2915,-1.2915,-1.2915,-1.2915,-1.2915,-1.2915,-1.2915,-1.2915,-1.2915,-1.2915,-1.2915,-1.2915,-1.2915,-1.2915,-1.2915,-1.2915,-1.2915,-1.2915,-1.2915,-1.2915,-1.2915,-1.2915,0.0,-1.2915,0.0,0.0,0.0,0.0,0.0,0.0,0.0,0.0,-1.4383,-1.4473,-1.5157,-1.6211,-1.6708,-1.6394,-1.7359,-1.8008,-1.8018,-1.8305,-1.852,-1.8539,-1.8896,-1.9121,-1.9121,-1.9121,-1.9111,-1.8984,-1.8711,-1.8432,-1.8276,-1.7773,-1.7578,-1.811,-1.7734,-1.7295,-1.7305,-1.6902,-1.6621,-1.6512,-1.6512,-1.6473,-1.6463,-1.623,-1.6016,-1.6016,-1.5693,-1.5439,-1.5439,-1.542,-1.5361,-1.5332,-1.5303,-1.5254,-1.5225,-1.5234,-1.5245,-1.5342,-1.5371,-1.5312,-1.064,-1.0586,-1.0586,-1.0445,-1.02,-1.017,-1.02,-1.018,-0.9983,-0.9876,-0.9876,-0.9816,-0.9606,-0.9304,-0.9369,-0.9943,-1.0895,-1.0973,-1.1703,-1.2998,-1.2944,-1.2944,-1.3023,-1.2935,-1.2915,-1.2915,-1.2915,-1.2915,-1.2915,-1.2915,-1.2915,-1.2915,-1.2915,-1.2915,0.0,0.0,0.0,0.0,-1.2915,-1.2915,-1.2915,-1.2915,-1.2915,-1.2915,-1.2915,0.0,-1.2915,-1.2915,-1.2915,-1.2915,-1.2915,0.0,0.0,0.0,0.0,0.0,0.0,0.0,0.0,0.0,0.0,0.0,-1.4424,-1.4277,-1.4044,-1.5284,-1.6343,-1.6886,-1.741,-1.7735,-1.7658,-1.7857,-1.8008,-1.8018,-1.8086,-1.8125,-1.8135,-1.8213,-1.8252,-1.8252,-1.8252,-1.8115,-1.7832,-1.7666,-1.749,-1.7184,-1.6931,-1.6882,-1.7038,-1.6931,-1.6833,-1.6826,-1.6445,-1.6075,-1.5713,-1.5674,-1.5634,-1.5615,-1.5586,-1.5527,-1.5498,-1.5469,-1.5391,-1.5342,-1.5137,-1.4902,-1.4902,-1.4619,-1.4406,-1.4358,-1.4367,-1.4455,-1.4824,-1.4893,-1.4805,-1.0499,0.0,-1.0372,-1.0198,0.0,-0.9746,-0.9657,-0.9657,-0.9686,-0.9599,-0.9466,-0.9466,-0.9305,-0.9025,-0.9335,-0.9971,-1.0813,-1.1141,-1.1882,-1.2881,-1.2915,-1.2915,-1.2915,-1.2915,-1.2915,-1.2915,-1.2915,-1.2915,-1.2915,-1.2915,-1.2915,-1.2915,-1.2915,-1.2915,-1.2915,-1.2915,-1.2915,-1.2915,-1.2915,-1.2915,-1.2915,-1.2915,-1.2915,-1.2915,0.0,0.0,0.0,0.0,0.0,0.0,0.0,0.0,0.0,0.0,0.0,-1.2915,-1.2915,-1.2993,-1.3193,-1.3574,-1.3977,-1.4424,-1.4853,-1.5071,-1.4943,-1.6036,-1.6914,-1.7344,-1.7764,-1.793,-1.7725,-1.7881,-1.7808,-1.7451,-1.7568,-1.7627,-1.7389,-1.734,-1.735,-1.734,-1.735,-1.7285,-1.71,-1.7061,-1.6982,-1.6726,-1.6523,-1.6318,-1.6122,-1.6269,-1.6338,-1.6083,-1.5713,-1.539,-1.5137,-1.4864,-1.4767,-1.4747,-1.4775,-1.4747,-1.4747,-1.4747,-1.4747,-1.4747,-1.4572,-1.4463,-1.4453,-1.425,-1.4114,-1.4114,-1.4114,-1.4075,-1.4199,-1.4316,-1.4377,-1.0365,-1.0114,-1.003,-0.9873,-0.9586,-0.9311,-0.915,-0.9158,0.0,0.0,0.0,-0.9138,-0.9011,-0.8837,-0.9387,-0.9987,-1.0644,-1.1191,-1.1832,-1.252,-1.2666,-1.2642,-1.2544,-1.2676,-1.2715,-1.2715,-1.2715,-1.2774,-1.2915,-1.2915,-1.2915,-1.2915,-1.2915,-1.2915,-1.2915,-1.2915,-1.2915,-1.2915,-1.2915,-1.2915,-1.2915,-1.2915,-1.2915,-1.2915,-1.2915,-1.2915,-1.2915,-1.2915,-1.2915,-1.2915,-1.2915,-1.2915,-1.2915,-1.2915,-1.2915,-1.2915,-1.2915,-1.2944,-1.3023,-1.3633,-1.4065,-1.4211,-1.4933,-1.5596,-1.6065,-1.6406,-1.6797,-1.7227,-1.7588,-1.7603,-1.7314,-1.7568,-1.7477,-1.6775,-1.7051,-1.7119,-1.6765,-1.6697,-1.6736,-1.6697,-1.6736,-1.6668,-1.6599,-1.658,-1.6533,-1.6326,-1.6006,-1.5713,-1.5342,-1.5449,-1.5566,-1.5196,-1.4912,-1.4687,-1.4619,-1.4387,-1.4124,-1.4182,-1.4153,-1.4114,-1.4114,-1.4114,-1.4114,-1.4182,-1.4065,-1.4007,-1.3997,-1.3899,-1.3899,-1.389,-1.389,-1.3809,-1.3535,-1.3646,-1.3893,-1.0154,-1.0063,-0.9846,-0.9573,-0.9271,-0.9224,-0.9071,-0.8878,-0.8918,-0.8911,-0.8845,-0.8871,-0.8825,-0.8778,-0.8883,-0.9309,-0.9935,-1.0038,-1.044,0.0,-1.1699,-1.1649,-1.1149,-1.1699,-1.1947,-1.1947,-1.1956,-1.2295,-1.2832,-1.2905,-1.2915,-1.2915,-1.2915,-1.2915,-1.2915,-1.2915,-1.2915,-1.2915,-1.2915,-1.2915,-1.2915,-1.2915,-1.2915,-1.2915,-1.2915,-1.2915,-1.2915,-1.2915,-1.2915,-1.2915,-1.2915,-1.2915,-1.2915,-1.2915,-1.2915,-1.2915,-1.2915,-1.3062,-1.3389,-1.351,-1.3916,-1.4629,-1.5137,-1.5596,-1.6046,-1.6144,-1.6348,-1.6746,-1.6872,-1.6863,-1.6794,-1.6863,-1.6863,-1.6697,-1.6746,-1.6755,-1.6648,-1.6648,-1.6638,-1.6629,-1.6697,-1.6533,-1.6191,-1.6123,-1.588,-1.5264,-1.5049,-1.4814,-1.4455,-1.4338,-1.4348,-1.4299,-1.425,-1.4202,-1.4182,-1.4153,-1.4036,-1.4114,-1.4055,-1.4007,-1.3997,-1.3997,-1.4007,-1.4075,-1.3782,-1.3588,-1.3584,-1.3281,-1.3184,-1.3179,-1.3164,-1.3096,-1.3027,-1.3145,-1.3293,-0.9757,-0.9604,-0.9471,-0.9251,-0.8984,-0.8978,-0.8904,-0.8811,-0.8778,-0.8778,-0.8778,-0.8778,-0.8778,-0.8831,-0.9185,-0.951,-0.9814,-1.0167,-1.0517,-1.0813,-1.1116,-1.1116,-1.0838,-1.1116,-1.1266,-1.1233,-1.1266,-1.1625,-1.227,-1.2295,-1.251,-1.2881,-1.2915,-1.2915,-1.2915,-1.2915,-1.2915,-1.2915,-1.2915,-1.2915,-1.2915,-1.2915,-1.2915,-1.2915,-1.2915,-1.2915,-1.2915,-1.2915,-1.2915,-1.2915,-1.2915,-1.2915,-1.2915,-1.2915,-1.2915,-1.2915,-1.2915,-1.2969,-1.3154,-1.3379,-1.3769,-1.4358,-1.4824,-1.5146,-1.5381,-1.5831,-1.6173,-1.6357,-1.6551,-1.6599,-1.6416,-1.656,-1.6512,-1.6034,-1.6221,-1.6269,-1.6024,-1.5976,-1.5985,-1.6016,-1.5985,-1.585,-1.5459,-1.54,-1.5185,-1.4531,-1.4268,-1.4023,-1.3782,-1.3603,-1.3607,-1.3987,-1.3929,-1.3792,-1.3763,-1.3594,-1.3477,-1.3447,-1.3457,-1.3447,-1.3457,-1.3457,-1.3467,-1.3447,-1.3281,-1.3184,-1.3174,-1.3027,-1.2935,-1.2915,-1.2915,-1.2915,-1.2905,-1.3128,-1.3467,-0.9424,-0.9183,-0.911,-0.8984,-0.8785,-0.8778,-0.8778,-0.8778,-0.8778,-0.8778,-0.8778,-0.8778,-0.8778,-0.8857,-0.9342,-0.9562,-0.9666,-1.0108,-1.0346,-1.0372,-1.0517,-1.0491,-1.0364,-1.0491,-1.0644,-1.0788,-1.0813,-1.1216,-1.1947,-1.2055,-1.231,-1.2856,-1.2915,-1.2915,-1.2915,-1.2915,-1.2915,-1.2915,-1.2915,-1.2915,-1.2915,-1.2915,-1.2915,-1.2915,-1.2915,-1.2915,-1.2915,-1.2915,-1.2915,-1.2915,-1.2915,-1.2915,-1.2915,-1.2915,-1.2915,-1.2915,-1.2915,-1.2915,-1.2935,-1.3271,-1.3627,-1.3938,-1.4394,-1.4639,-1.4687,-1.5263,-1.5752,-1.5948,-1.6211,-1.6239,-1.6016,-1.6201,-1.6083,-1.54,-1.5586,-1.5596,-1.5205,-1.5127,-1.5089,-1.5127,-1.5117,-1.4972,-1.4727,-1.4629,-1.4463,-1.4036,-1.3607,-1.3389,-1.333,-1.3066,-1.3203,-1.3545,-1.3564,-1.3379,-1.335,-1.3135,-1.2974,-1.2915,-1.2944,-1.2983,-1.2983,-1.2944,-1.2925,-1.2974,-1.2954,-1.2944,-1.2925,-1.2915,-1.2915,-1.2915,-1.2915,-1.2915,-1.2929,-1.3358,-1.3755,-0.921,-0.9171,-0.8931,-0.8831,-0.8778,-0.8778,-0.8778,-0.8778,-0.8778,-0.8778,-0.8778,-0.8778,-0.8778,-0.8811,-0.8883,-0.8936,-0.8929,-0.8956,-0.9035,-0.9113,-0.9614,-0.9562,-0.9133,-0.9614,-1.021,-1.0695,-1.0737,-1.1334,-1.2569,-1.274,-1.2832,-1.2905,-1.2915,-1.2915,-1.2915,-1.2915,-1.2915,-1.2915,-1.2915,-1.2915,-1.2915,-1.2915,-1.2915,-1.2915,-1.2915,-1.2915,-1.2915,-1.2915,-1.2915,-1.2915,-1.2915,-1.2915,-1.2915,-1.2915,-1.2915,-1.2915,-1.2915,-1.2915,-1.2935,-1.3271,-1.3506,-1.3584,-1.3929,-1.4172,-1.4172,-1.425,-1.464,-1.5264,-1.5498,-1.5498,-1.5478,-1.5488,-1.5342,-1.4932,-1.4902,-1.4736,-1.4387,-1.4211,-1.4221,-1.4204,-1.4328,-1.4211,-1.4192,-1.4143,-1.3977,-1.3588,-1.3262,-1.3042,-1.3032,-1.2959,-1.2915,-1.3042,-1.2983,-1.3003,-1.2993,-1.2954,-1.2915,-1.2915,-1.2915,-1.2915,-1.2915,-1.2915,-1.2915,-1.2915,-1.2915,-1.2915,-1.2915,-1.2915,-1.2915,-1.2895,-1.2886,-1.2876,-1.2958,-1.3267,-1.3593,-0.8567,-0.8951,-0.8858,-0.8778,-0.8778,-0.8778,-0.8778,-0.8778,-0.8778,-0.8778,-0.8778,-0.8778,-0.8778,-0.8778,-0.8778,-0.8778,-0.8778,-0.8778,-0.8778,-0.8837,-0.9087,-0.9061,-0.8857,-0.9061,-0.9361,-0.9588,-0.9614,-1.0328,-1.1592,-1.2495,-1.2915,-1.2915,-1.2915,-1.2915,-1.2915,-1.2915,-1.2915,-1.2915,-1.2915,-1.2915,-1.2915,-1.2915,-1.2915,-1.2915,-1.2915,-1.2915,-1.2915,-1.2915,-1.2915,-1.2915,-1.2915,-1.2915,-1.2915,-1.2915,-1.2915,-1.2915,-1.2915,-1.2915,-1.2915,-1.3047,-1.3145,-1.3145,-1.3525,-1.3743,-1.3779,-1.3958,-1.427,-1.4543,-1.4621,-1.463,-1.464,-1.463,-1.4562,-1.4434,-1.4394,-1.4316,-1.4143,-1.4104,-1.4114,-1.4114,-1.4104,-1.3987,-1.3753,-1.3545,-1.334,-1.3154,-1.2959,-1.2915,-1.2915,-1.2915,-1.2915,-1.2915,-1.2915,-1.2915,-1.2915,-1.2915,-1.2915,-1.2915,-1.2915,-1.2915,-1.2915,-1.2915,-1.2915,-1.2905,-1.2876,-1.2876,-1.2915,-1.2915,-1.2915,-1.2861,-1.2602,-1.2502,-1.2526,-1.2511,-1.2681,-0.8289,-0.8752,-0.8778,-0.8778,-0.8778,-0.8778,-0.8778,-0.8778,-0.8778,-0.8778,-0.8778,-0.8778,-0.8778,-0.8778,-0.8778,-0.8778,-0.8778,-0.8778,-0.8778,-0.8778,-0.8778,-0.8778,-0.8778,-0.8778,-0.891,-0.9061,-0.9133,-0.9692,-1.0821,-1.1974,-1.2618,-1.2608,-1.2798,-1.2915,-1.2915,-1.2915,-1.2915,-1.2915,-1.2915,-1.2915,-1.2915,-1.2915,-1.2915,-1.2915,-1.2915,-1.2915,-1.2915,-1.2915,-1.2915,-1.2915,-1.2915,-1.2915,-1.2915,-1.2915,-1.2915,-1.2915,-1.2915,-1.2915,-1.2915,-1.2915,-1.2915,-1.2935,-1.3184,-1.334,-1.3379,-1.3588,-1.3753,-1.3789,-1.3773,-1.3821,-1.4094,-1.4114,-1.4065,-1.3968,-1.3938,-1.3899,-1.3799,-1.3763,-1.3734,-1.3789,-1.3711,-1.3665,-1.3379,-1.3105,-1.2954,-1.2935,-1.2925,-1.2915,-1.2915,-1.2915,-1.2915,-1.2915,-1.2915,-1.2915,-1.2915,-1.2915,-1.2915,-1.2915,-1.2915,-1.2915,-1.2915,-1.2915,-1.2764,-1.2676,-1.2715,-1.2588,-1.2396,-1.2455,-1.2638,-1.2639,-1.2444,-1.2258,-1.2561,-1.2307,-1.2616,-0.8778,-0.8778,-0.8778,-0.8778,-0.8778,-0.8778,-0.8778,-0.8778,-0.8778,-0.8778,-0.8778,-0.8778,-0.8778,-0.8778,-0.8778,-0.8778,-0.8778,-0.8778,-0.8778,-0.8778,-0.8778,-0.8778,-0.8778,-0.8804,-0.914,-0.9562,-0.964,-1.009,-1.0864,-1.1541,-1.1848,-1.1947,-1.2593,-1.2915,-1.2915,-1.2915,-1.2915,-1.2915,-1.2915,-1.2915,-1.2915,-1.2915,-1.2915,-1.2915,-1.2915,-1.2915,-1.2915,-1.2915,-1.2915,-1.2915,-1.2915,-1.2915,-1.2915,-1.2915,-1.2915,-1.2915,-1.2915,-1.2915,-1.2915,-1.2915,-1.2915,-1.2915,-1.2954,-1.2954,-1.3003,-1.3052,-1.3081,-1.3003,-1.3071,-1.3311,-1.388,-1.3958,-1.3851,-1.3584,-1.3535,-1.3369,-1.3052,-1.3101,-1.2983,-1.3023,-1.3081,-1.3081,-1.2974,-1.2925,-1.2915,-1.2915,-1.2915,-1.2915,-1.2915,-1.2915,-1.2915,-1.2915,-1.2915,-1.2915,-1.2905,-1.2905,-1.2905,-1.2817,-1.2744,-1.2827,-1.2886,-1.2866,-1.2598,-1.2412,-1.2305,-1.21,-1.179,-1.176,-1.1951,-1.2051,-1.214,-1.2162,-1.2223,-1.3293,-1.3489,-0.8374,-0.8778,-0.8778,-0.8778,-0.8778,-0.8778,-0.8778,-0.8778,-0.8778,-0.8778,-0.8778,-0.8778,-0.8778,-0.8778,-0.8778,-0.8778,-0.8778,-0.8778,-0.8778,-0.8778,-0.8778,-0.8778,-0.8778,-0.8778,-0.891,-0.9185,-0.9614,-1.0372,-1.145,-1.2172,-1.2501,-1.2535,-1.2749,-1.2915,-1.2915,-1.2915,-1.2915,-1.2915,-1.2915,-1.2915,-1.2915,-1.2915,-1.2915,-1.2915,-1.2915,-1.2915,-1.2915,-1.2915,-1.2915,-1.2915,-1.2915,-1.2915,-1.2915,-1.2915,-1.2915,-1.2915,-1.2915,-1.2915,-1.2915,-1.2915,-1.2915,-1.2915,-1.2915,-1.2915,-1.2915,-1.2915,-1.2915,-1.2915,-1.2915,-1.3101,-1.3223,-1.334,-1.3271,-1.3154,-1.313,-1.3091,-1.2964,-1.2915,-1.2915,-1.2915,-1.2915,-1.2915,-1.2915,-1.2915,-1.2915,-1.2915,-1.2915,-1.2915,-1.2915,-1.2915,-1.2886,-1.2905,-1.2905,-1.2798,-1.2461,-1.2758,-1.2837,-1.2568,-1.2398,-1.2246,-1.224,-1.2191,-1.1976,-1.1917,-1.1829,-1.1751,-1.1479,-1.1439,-1.1561,-1.1446,-1.1541,-1.1827,-1.1672,-1.2611,-1.2881,-0.8342,-0.8752,-0.8778,-0.8778,-0.8778,-0.8778,-0.8778,-0.8778,-0.8778,-0.8778,-0.8778,-0.8778,-0.8778,-0.8778,-0.8778,-0.8778,-0.8778,-0.8778,-0.8778,-0.8778,-0.8778,-0.8778,-0.8778,-0.8778,-0.8778,-0.8857,-0.9237,-0.9987,-1.0813,-1.1534,-1.1884,-1.1859,-1.228,-1.2535,-1.2584,-1.2749,-1.2915,-1.2915,-1.2915,-1.2915,-1.2915,-1.2915,-1.2915,-1.2915,-1.2915,-1.2915,-1.2915,-1.2915,-1.2915,-1.2915,-1.2915,-1.2915,-1.2915,-1.2915,-1.2915,-1.2915,-1.2915,-1.2915,-1.2915,-1.2915,-1.2915,-1.2915,-1.2915,-1.2915,-1.2915,-1.2915,-1.2915,-1.2915,-1.2915,-1.2915,-1.2915,-1.2925,-1.2915,-1.2915,-1.2915,-1.2915,-1.2915,-1.2915,-1.2915,-1.2915,-1.2915,-1.2915,-1.2915,-1.2915,-1.2915,-1.2915,-1.2915,-1.2915,-1.2915,-1.2754,-1.2676,-1.267,-1.2504,-1.2318,-1.2103,-1.221,-1.2322,-1.2093,-1.2002,-1.1797,-1.1653,-1.1577,-1.1479,-1.142,-1.1361,-1.1312,-1.1263,-1.1193,-1.1089,-1.0924,-1.1323,-1.1737,-1.1743,-1.1841,-1.2263,-0.8778,-0.8778,-0.8778,-0.8778,-0.8778,-0.8778,-0.8778,-0.8778,-0.8778,-0.8778,-0.8778,-0.8778,-0.8778,-0.8778,-0.8778,-0.8778,-0.8778,-0.8778,-0.8778,-0.8778,-0.8778,-0.8778,-0.8778,-0.8778,-0.8857,-0.891,-0.8883,-0.8929,-0.929,-0.9994,-1.0295,-1.0269,-1.1475,-1.2052,-1.187,-1.2555,-1.2895,-1.2866,-1.2876,-1.2905,-1.2905,-1.2876,-1.2846,-1.2856,-1.2856,-1.2856,-1.2876,-1.2895,-1.2895,-1.2866,-1.2895,-1.2905,-1.2915,-1.2915,-1.2915,-1.2915,-1.2915,-1.2915,-1.2915,-1.2915,-1.2915,-1.2915,-1.2915,-1.2915,-1.2915,-1.2915,-1.2915,-1.2915,-1.2915,-1.2915,-1.2915,-1.2915,-1.2915,-1.2915,-1.2915,-1.2915,-1.2915,-1.2915,-1.2915,-1.2915,-1.2915,-1.2915,-1.2915,-1.2915,-1.2915,-1.2915,-1.2915,-1.2915,-1.2866,-1.2578,-1.2281,-1.2174,-1.2064,-1.1861,-1.1724,-1.1616,-1.1596,-1.1567,-1.1565,-1.1477,-1.133,-1.1213,-1.1076,-1.1007,-1.0939,-1.088,-1.0773,-1.0724,-1.0785,-1.0762,-1.1246,-1.1558,-1.169,-1.1799,-1.221,-0.8778,-0.8778,-0.8778,-0.8778,-0.8778,-0.8778,-0.8778,-0.8778,-0.8778,-0.8778,-0.8778,-0.8778,-0.8778,-0.8778,-0.8778,-0.8778,-0.8778,-0.8778,-0.8778,-0.8778,-0.8778,-0.8778,-0.8778,-0.8778,-0.9061,-0.9413,-0.9484,-0.9718,-1.0167,-1.0771,-1.1166,-1.1366,-1.2039,-1.2349,-1.204,-1.2609,-1.2764,-1.25,-1.2725,-1.2915,-1.2876,-1.2588,-1.2441,-1.2408,-1.2432,-1.2408,-1.2418,-1.2715,-1.2725,-1.2447,-1.2715,-1.2915,-1.2905,-1.2915,-1.2915,-1.2915,-1.2915,-1.2915,-1.2915,-1.2915,-1.2915,-1.2915,-1.2915,-1.2915,-1.2915,-1.2915,-1.2915,-1.2915,-1.2915,-1.2915,-1.2915,-1.2915,-1.2915,-1.2915,-1.2915,-1.2915,-1.2915,-1.2915,-1.2915,-1.2915,-1.2915,-1.2915,-1.2915,-1.2915,-1.2905,-1.2876,-1.2886,-1.2886,-1.2807,-1.2412,-1.2233,-1.2174,-1.1848,-1.141,-1.1232,-1.1115,-1.1076,-1.1066,-1.1076,-1.1085,-1.0958,-1.087,-1.0733,-1.0655,-1.0586,-1.0498,-1.0361,-1.0361,-1.0467,-1.0466,-1.0697,-1.1048,-1.1412,-1.1728,-1.2031,-0.799,-0.8023,-0.8295,-0.8401,-0.8427,-0.8672,-0.8778,-0.8778,-0.8778,-0.8778,-0.8778,-0.8778,-0.8778,-0.8778,-0.8778,-0.8778,-0.8778,-0.8778,-0.8778,-0.8778,-0.8778,-0.8778,-0.8778,-0.8778,-0.8982,-0.9342,-0.9413,-0.964,-1.0038,-1.0466,-1.0669,-1.0788,-1.1509,-1.1718,-1.1556,-1.2095,-1.2285,-1.2223,-1.2334,-1.2504,-1.252,-1.2207,-1.1982,-1.1973,-1.1982,-1.1982,-1.1979,-1.2256,-1.2367,-1.2262,-1.2476,-1.2637,-1.2646,-1.2773,-1.2915,-1.2915,-1.2915,-1.2915,-1.2915,-1.2915,-1.2915,-1.2915,-1.2915,-1.2915,-1.2915,-1.2915,-1.2915,-1.2915,-1.2915,-1.2915,-1.2915,-1.2915,-1.2915,-1.2915,-1.2915,-1.2915,-1.2915,-1.2915,-1.2915,-1.2915,-1.2915,-1.2915,-1.2915,-1.2915,-1.2803,-1.2705,-1.2646,-1.2529,-1.2406,-1.1992,-1.1843,-1.1648,-1.126,-1.0939,-1.0753,-1.0635,-1.0566,-1.0566,-1.0566,-1.0596,-1.0537,-1.0538,-1.044,-1.0449,-1.04,-1.041,-1.0322,-1.0322,-1.037,-1.0312,-1.03,-1.0672,-1.1099,-1.1291,-1.1521,-0.6669,-0.6804,-0.7423,-0.7803,-0.7963,-0.8533,-0.8778,-0.8778,-0.8778,-0.8778,-0.8778,-0.8778,-0.8778,-0.8778,-0.8778,-0.8778,-0.8778,-0.8778,-0.8771,-0.8751,-0.8744,-0.8758,-0.8798,-0.8778,-0.8831,-0.8857,-0.8883,-0.8883,-0.9061,-0.9211,-0.887,-0.9231,-1.0056,-1.0259,-1.0544,-1.1152,-1.173,-1.1931,-1.18,-1.1868,-1.2135,-1.1758,-1.1567,-1.1545,-1.1545,-1.1545,-1.1555,-1.1604,-1.1768,-1.2096,-1.2106,-1.2086,-1.2246,-1.2598,-1.2749,-1.2719,-1.2827,-1.2788,-1.2817,-1.2842,-1.2866,-1.2807,-1.2866,-1.2915,-1.2915,-1.2915,-1.2915,-1.2915,-1.2915,-1.2915,-1.2915,-1.2915,-1.2915,-1.2915,-1.2915,-1.2915,-1.2915,-1.2915,-1.2915,-1.2915,-1.2915,-1.2886,-1.2837,-1.2817,-1.2598,-1.2314,-1.2164,-1.2031,-1.179,-1.1496,-1.1055,-1.0859,-1.0791,-1.0635,-1.0498,-1.0488,-1.043,-1.0371,-1.0303,-1.0224,-1.0215,-1.0205,-1.0146,-1.0166,-1.0175,-1.0215,-1.0254,-1.0215,-1.0175,-1.0107,-1.0239,-1.0499,-1.0633,-1.0776,-1.0839,-0.7235,-0.8156,-0.7863,-0.8023,-0.848,-0.8752,-0.8778,-0.8778,-0.8752,-0.8699,-0.8778,-0.8778,-0.8752,-0.8778,-0.8778,-0.8778,-0.8778,-0.8798,-0.8671,-0.8536,-0.8516,-0.8617,-0.8771,-0.8798,-0.8798,-0.8804,-0.8738,-0.8778,-0.8831,-0.9169,-0.9321,-0.9288,-0.9858,-1.0235,-1.0264,-1.0706,-1.106,-1.1264,-1.1526,-1.1594,-1.1653,-1.133,-1.1084,-1.1084,-1.1074,-1.1074,-1.1074,-1.1084,-1.1289,-1.1682,-1.1416,-1.1426,-1.1709,-1.1885,-1.1992,-1.2067,-1.2227,-1.2246,-1.2142,-1.2524,-1.2686,-1.2447,-1.2637,-1.2905,-1.2915,-1.2905,-1.2905,-1.2915,-1.2915,-1.2915,-1.2915,-1.2915,-1.2915,-1.2915,-1.2856,-1.2856,-1.2915,-1.2915,-1.2915,-1.2915,-1.2905,-1.2715,-1.252,-1.2383,-1.2227,-1.1865,-1.1751,-1.1682,-1.1389,-1.1164,-1.0801,-1.0762,-1.0664,-1.0469,-1.0342,-1.0342,-1.0303,-1.0263,-1.0127,-0.9941,-0.9941,-0.9941,-0.9835,-0.9767,-0.9766,-0.9785,-0.9922,-0.998,-0.9923,-0.9806,-0.9776,-0.9845,-0.993,-1.0032,-1.0053,-0.6231,-0.6983,-0.6821,-0.7009,-0.7439,-0.7744,-0.7883,-0.7883,-0.7889,-0.8076,-0.8268,-0.8348,-0.8513,-0.8778,-0.8778,-0.8778,-0.8798,-0.8684,-0.8556,-0.8415,-0.825,-0.8357,-0.853,-0.8524,-0.8532,-0.8758,-0.8532,-0.8517,-0.8615,-0.8896,-0.8894,-0.8868,-0.9486,-0.9787,-0.971,-1.0293,-1.0702,-1.0886,-1.1046,-1.1115,-1.1261,-1.089,-1.0674,-1.0645,-1.0665,-1.0645,-1.0645,-1.0665,-1.0778,-1.087,-1.0719,-1.0711,-1.0961,-1.116,-1.1346,-1.1572,-1.1807,-1.1848,-1.1731,-1.2093,-1.221,-1.2041,-1.224,-1.2426,-1.2539,-1.2607,-1.2637,-1.2876,-1.2905,-1.2915,-1.2915,-1.2915,-1.2915,-1.2856,-1.2632,-1.2584,-1.2822,-1.2915,-1.2915,-1.2876,-1.2715,-1.2506,-1.2213,-1.2057,-1.1748,-1.1447,-1.1289,-1.1162,-1.0997,-1.0801,-1.0664,-1.0596,-1.0518,-1.0342,-1.0136,-1.0068,-0.9893,-0.9863,-0.9687,-0.9541,-0.9482,-0.9494,-0.9455,-0.9348,-0.9348,-0.9377,-0.9484,-0.9561,-0.9482,-0.9348,-0.924,-0.9192,-0.9291,-0.9293,-0.9314,-0.4598,-0.4763,-0.53,-0.5542,-0.5842,-0.634,-0.675,-0.6642,-0.6723,-0.7106,-0.7585,-0.7676,-0.807,-0.8691,-0.8578,-0.8691,-0.8671,-0.8417,-0.8328,-0.8161,-0.7976,-0.7925,-0.8183,-0.8085,-0.8232,-0.8517,-0.8125,-0.8119,-0.8255,-0.8125,-0.7936,-0.81,-0.8648,-0.8909,-0.9029,-0.9634,-1.0218,-1.037,-1.0207,-1.0235,-1.0436,-1.0278,-1.0194,-1.0204,-1.0361,-1.0293,-1.0264,-1.0264,-1.026,-0.9963,-1.0034,-1.0213,-1.0257,-1.0591,-1.0928,-1.1303,-1.1418,-1.1477,-1.1467,-1.1538,-1.1626,-1.1565,-1.1606,-1.1731,-1.2047,-1.2145,-1.2275,-1.2573,-1.274,-1.2614,-1.2666,-1.2749,-1.2691,-1.2564,-1.2126,-1.2113,-1.2526,-1.2686,-1.2657,-1.2623,-1.222,-1.2037,-1.1911,-1.1681,-1.1295,-1.0968,-1.084,-1.0762,-1.0665,-1.0547,-1.0449,-1.04,-1.0312,-1.0215,-1.0,-0.9806,-0.9562,-0.9377,-0.915,-0.8975,-0.8831,-0.885,-0.8936,-0.8936,-0.8936,-0.8936,-0.8975,-0.8984,-0.9023,-0.8926,-0.8838,-0.8742,-0.8695,-0.8647,-0.8628,-0.5117,-0.6122,-0.5678,-0.5842,-0.634,-0.6534,-0.6561,-0.6556,-0.6556,-0.6775,-0.7272,-0.7372,-0.7646,-0.807,-0.8127,-0.8099,-0.8139,-0.8056,-0.7903,-0.7645,-0.7348,-0.7395,-0.7662,-0.7766,-0.7965,-0.8079,-0.7999,-0.7939,-0.7952,-0.7885,-0.7772,-0.7652,-0.7832,-0.7976,-0.8242,-0.8511,-0.868,-0.9072,-0.9105,-0.9183,-0.9365,-0.962,-0.9736,-0.9804,-1.0098,-1.0069,-0.9843,-1.0088,-0.987,-0.9446,-0.9784,-1.0241,-1.022,-1.0316,-1.0494,-1.0672,-1.0919,-1.0929,-1.0772,-1.1165,-1.1439,-1.1103,-1.132,-1.1636,-1.1682,-1.1721,-1.176,-1.1837,-1.1705,-1.184,-1.2063,-1.2043,-1.2046,-1.1947,-1.1589,-1.1316,-1.1489,-1.143,-1.1356,-1.1138,-1.0995,-1.0757,-1.0671,-1.068,-1.0499,-1.0418,-1.044,-1.0391,-1.0352,-1.0322,-1.0244,-1.0205,-1.0029,-0.9902,-0.9658,-0.9396,-0.9075,-0.886,-0.8643,-0.8496,-0.8344,-0.8334,-0.8451,-0.8506,-0.8522,-0.8506,-0.8516,-0.8721,-0.8809,-0.863,-0.845,-0.8331,-0.8229,-0.8104,-0.818,-0.4928,-0.5555,-0.5195,-0.525,-0.5578,-0.5605,-0.5558,-0.549,-0.5481,-0.5793,-0.6263,-0.6552,-0.6998,-0.7541,-0.7763,-0.7912,-0.7866,-0.7762,-0.7548,-0.7295,-0.7073,-0.71,-0.7221,-0.7426,-0.7586,-0.7799,-0.7586,-0.7582,-0.7649,-0.7552,-0.7373,-0.7325,-0.75,-0.783,-0.7955,-0.8098,-0.848,-0.8692,-0.8695,-0.8695,-0.8777,-0.9219,-0.9677,-0.9843,-1.0137,-1.0147,-0.9981,-1.0118,-0.999,-0.9745,-0.9981,-1.0157,-0.9961,-0.9942,-1.0049,-1.0312,-1.0449,-1.0527,-1.0518,-1.0674,-1.086,-1.0624,-1.088,-1.1066,-1.1203,-1.1271,-1.1398,-1.1511,-1.1513,-1.1504,-1.1691,-1.171,-1.1635,-1.1261,-1.0836,-1.0426,-1.0297,-1.0701,-1.1139,-1.0944,-1.0881,-1.0704,-1.051,-1.0102,-1.0162,-1.0312,-1.0381,-1.0342,-1.0342,-1.0273,-1.0097,-0.9971,-0.9767,-0.9562,-0.9316,-0.8984,-0.8564,-0.834,-0.8119,-0.8032,-0.7954,-0.7983,-0.8051,-0.809,-0.8154,-0.8076,-0.809,-0.8324,-0.8431,-0.8188,-0.7993,-0.7905,-0.7916,-0.8035,-0.8123,-0.4491,-0.4491,-0.4491,-0.4491,-0.4491,-0.4543,-0.4508,-0.4327,-0.423,-0.4716,-0.5083,-0.5634,-0.6152,-0.6766,-0.7177,-0.7448,-0.7372,-0.7218,-0.6834,-0.6853,-0.6815,-0.6893,-0.7017,-0.7113,-0.7273,-0.7672,-0.7313,-0.7235,-0.7288,-0.7146,-0.71,-0.7104,-0.7461,-0.7629,-0.7829,-0.8144,-0.8267,-0.8259,-0.8259,-0.828,-0.839,-0.8857,-0.9359,-0.9765,-0.9863,-0.9804,-0.9677,-0.9795,-0.9961,-1.0059,-1.0147,-0.9981,-0.9736,-0.9558,-0.9578,-1.004,-0.996,-0.9911,-0.9862,-0.9969,-1.0028,-1.0059,-1.0166,-1.034,-1.0581,-1.0738,-1.0864,-1.1012,-1.1022,-1.0969,-1.1183,-1.0961,-1.0809,-1.0485,-0.9868,-0.9325,-0.9249,-1.0281,-1.082,-1.0578,-0.9929,-0.9584,-0.9834,-0.9763,-0.9986,-1.0167,-1.0254,-1.0312,-1.0302,-1.0215,-1.002,-0.9756,-0.9542,-0.8999,-0.8694,-0.8577,-0.8164,-0.8047,-0.7788,-0.7759,-0.7715,-0.7773,-0.7851,-0.7783,-0.7783,-0.7763,-0.7773,-0.7919,-0.7919,-0.7705,-0.7715,-0.7754,-0.7866,-0.8,-0.8062,-0.4491,-0.4491,-0.4491,-0.4487,-0.4487,-0.4487,-0.4457,-0.4406,-0.424,-0.4466,-0.4886,-0.4955,-0.5231,-0.5596,-0.5689,-0.5782,-0.5952,-0.6007,-0.6108,-0.6349,-0.6456,-0.6626,-0.6958,-0.7,-0.7086,-0.7093,-0.702,-0.7053,-0.7094,-0.702,-0.7,-0.7042,-0.7126,-0.721,-0.7231,-0.7266,-0.7433,-0.7516,-0.7474,-0.7474,-0.7579,-0.8028,-0.8602,-0.9059,-0.9159,-0.8938,-0.8635,-0.8797,-0.8958,-0.899,-0.9399,-0.9755,-0.9784,-0.9578,-0.9319,-0.9219,-0.9139,-0.9171,-0.9151,-0.905,-0.8999,-0.9059,-0.9379,-0.9617,-0.9827,-1.0084,-1.0158,-0.9949,-0.9848,-0.9687,-0.9373,-0.9686,-0.9434,-0.9166,-0.8986,-0.8572,-0.8628,-0.9065,-0.9443,-0.8852,-0.8449,-0.8553,-0.9114,-0.9555,-0.9712,-0.9904,-1.0022,-1.0108,-1.0156,-1.0087,-0.9941,-0.9639,-0.9309,-0.8655,-0.8016,-0.7968,-0.7812,-0.7856,-0.7725,-0.7725,-0.7705,-0.7695,-0.7695,-0.7695,-0.7695,-0.7715,-0.7715,-0.7695,-0.7695,-0.7695,-0.7695,-0.7695,-0.7783,-0.787,-0.7827,-0.4351,-0.4324,-0.4351,-0.4324,-0.4324,-0.4348,-0.4256,-0.4139,-0.4036,-0.4073,-0.4271,-0.4453,-0.4657,-0.4888,-0.5195,-0.5308,-0.5329,-0.568,-0.5916,-0.6221,-0.6477,-0.6711,-0.6964,-0.6951,-0.6993,-0.7,-0.7,-0.6951,-0.6993,-0.7,-0.6993,-0.6993,-0.6993,-0.6993,-0.6993,-0.7035,-0.6993,-0.6993,-0.6993,-0.6993,-0.7042,-0.76,-0.816,-0.8541,-0.8675,-0.8561,-0.8451,-0.85,-0.8716,-0.8777,-0.8967,-0.9059,-0.9039,-0.8926,-0.8817,-0.8958,-0.8797,-0.8675,-0.8695,-0.8695,-0.8736,-0.8736,-0.8958,-0.9059,-0.9119,-0.9268,-0.935,-0.9163,-0.9072,-0.9081,-0.9274,-0.9147,-0.9088,-0.8826,-0.86,-0.8239,-0.7923,-0.8105,-0.7864,-0.7638,-0.8587,-0.9062,-0.9049,-0.9366,-0.9487,-0.9622,-0.9763,-0.9858,-0.9942,-0.9814,-0.9648,-0.9182,-0.8785,-0.8325,-0.7758,-0.7695,-0.7681,-0.7695,-0.7695,-0.7695,-0.7695,-0.7695,-0.7695,-0.7695,-0.7695,-0.7695,-0.7695,-0.7695,-0.7695,-0.7695,-0.7695,-0.7695,-0.7695,-0.7695,-0.7695,-0.3994,-0.3994,-0.4124,-0.415,-0.415,-0.4176,-0.4048,-0.3863,-0.3819,-0.3774,-0.3719,-0.4028,-0.4228,-0.4347,-0.4657,-0.4918,-0.5005,-0.5421,-0.555,-0.576,-0.6054,-0.6422,-0.6613,-0.6656,-0.655,-0.6437,-0.6507,-0.6782,-0.6972,-0.6993,-0.6993,-0.6993,-0.6993,-0.6993,-0.6993,-0.6993,-0.6993,-0.6993,-0.6993,-0.6993,-0.7126,-0.7468,-0.7904,-0.83,-0.8341,-0.8288,-0.8157,-0.8185,-0.8349,-0.8431,-0.8492,-0.8447,-0.8139,-0.7981,-0.8324,-0.8918,-0.8655,-0.8411,-0.8321,-0.828,-0.8177,-0.8185,-0.8431,-0.8513,-0.8541,-0.8574,-0.8553,-0.8533,-0.8365,-0.8422,-0.863,-0.9013,-0.89,-0.8692,-0.8528,-0.8398,-0.7768,-0.7614,-0.7746,-0.8106,-0.9189,-0.916,-0.8649,-0.8647,-0.8663,-0.8928,-0.9067,-0.9342,-0.9402,-0.9328,-0.9102,-0.8571,-0.816,-0.7898,-0.7612,-0.7563,-0.7598,-0.7695,-0.7695,-0.7695,-0.7695,-0.7695,-0.7681,-0.7652,-0.7695,-0.7695,-0.7695,-0.7695,-0.7695,-0.7695,-0.7695,-0.7695,-0.7695,-0.7695,-0.7695,-0.3237,-0.3288,-0.3792,-0.4024,-0.3968,-0.3968,-0.3979,-0.3884,-0.3731,-0.3788,-0.3671,-0.3696,-0.3685,-0.3796,-0.3818,-0.3862,-0.3928,-0.4162,-0.4508,-0.4843,-0.5017,-0.5319,-0.5518,-0.5502,-0.569,-0.5755,-0.5674,-0.6124,-0.6592,-0.6825,-0.6894,-0.6873,-0.6803,-0.693,-0.674,-0.6719,-0.6993,-0.6951,-0.6951,-0.6951,-0.6979,-0.7091,-0.7231,-0.7273,-0.7314,-0.7349,-0.7412,-0.7433,-0.7565,-0.7953,-0.7995,-0.8201,-0.8439,-0.8139,-0.7974,-0.7884,-0.7586,-0.721,-0.7308,-0.7391,-0.7412,-0.7516,-0.7731,-0.7933,-0.7966,-0.7974,-0.7995,-0.7974,-0.7607,-0.7502,-0.7773,-0.7925,-0.7995,-0.8221,-0.8357,-0.8275,-0.7884,-0.7669,-0.7731,-0.7738,-0.8561,-0.8078,-0.7532,-0.7641,-0.7783,-0.8096,-0.8384,-0.8681,-0.8738,-0.8577,-0.8434,-0.7904,-0.7602,-0.7344,-0.727,-0.724,-0.7338,-0.751,-0.7525,-0.7525,-0.7427,-0.7383,-0.7598,-0.7583,-0.7613,-0.7666,-0.7695,-0.7695,-0.7695,-0.7695,-0.7695,-0.7695,-0.7695,-0.7695,-0.7695,-0.2098,-0.2507,-0.275,-0.2871,-0.2871,-0.2871,-0.2833,-0.2749,-0.27,-0.2862,-0.3129,-0.313,-0.3258,-0.349,-0.36,-0.3622,-0.3667,-0.3877,-0.4154,-0.4434,-0.4696,-0.4978,-0.5265,-0.5308,-0.5308,-0.5221,-0.5329,-0.5518,-0.599,-0.6033,-0.606,-0.6081,-0.606,-0.5969,-0.6145,-0.606,-0.6017,-0.6103,-0.6322,-0.6535,-0.6626,-0.681,-0.6972,-0.6972,-0.6951,-0.6972,-0.6972,-0.6993,-0.7084,-0.7384,-0.7384,-0.7461,-0.7641,-0.7502,-0.7384,-0.7363,-0.7189,-0.7042,-0.7014,-0.6972,-0.6993,-0.7014,-0.7231,-0.7356,-0.7377,-0.7405,-0.7426,-0.7384,-0.7168,-0.7126,-0.7405,-0.7725,-0.7836,-0.7995,-0.8214,-0.8152,-0.807,-0.809,-0.8005,-0.7924,-0.7746,-0.7274,-0.6963,-0.7171,-0.7329,-0.7454,-0.7694,-0.79,-0.7779,-0.7453,-0.7346,-0.7196,-0.6987,-0.6822,-0.6829,-0.6829,-0.6865,-0.6978,-0.6993,-0.6978,-0.6948,-0.6993,-0.7309,-0.7403,-0.7344,-0.7432,-0.7613,-0.7695,-0.7695,-0.7695,-0.7695,-0.7695,-0.7695,-0.7695,-0.7695,-0.1004,-0.1521,-0.1802,-0.1941,-0.1939,-0.1941,-0.1934,-0.1834,-0.1854,-0.2075,-0.2384,-0.2495,-0.2743,-0.3129,-0.3239,-0.3328,-0.3372,-0.3935,-0.4154,-0.4391,-0.4613,-0.4744,-0.4748,-0.4814,-0.4814,-0.4853,-0.4705,-0.4809,-0.4831,-0.4918,-0.5005,-0.5286,-0.5717,-0.5524,-0.5373,-0.5416,-0.5459,-0.548,-0.5782,-0.5959,-0.6029,-0.6322,-0.6465,-0.6571,-0.6704,-0.681,-0.681,-0.6979,-0.7,-0.7021,-0.7063,-0.7105,-0.7119,-0.6958,-0.6831,-0.6747,-0.6577,-0.6422,-0.655,-0.6698,-0.693,-0.6993,-0.6993,-0.7077,-0.7035,-0.6993,-0.6993,-0.7084,-0.7042,-0.7231,-0.7558,-0.7746,-0.7899,-0.7981,-0.8098,-0.8077,-0.8039,-0.7992,-0.7852,-0.7635,-0.7329,-0.6832,-0.6661,-0.6856,-0.6922,-0.6902,-0.7003,-0.717,-0.6984,-0.6684,-0.6673,-0.6693,-0.65,-0.6503,-0.6745,-0.6684,-0.6631,-0.657,-0.6594,-0.6745,-0.6889,-0.7023,-0.727,-0.7261,-0.7163,-0.7261,-0.7456,-0.7583,-0.7695,-0.7695,-0.7695,-0.7695,-0.7695,-0.7695,-0.7695,-0.009,-0.0226,-0.1324,-0.1751,-0.1753,-0.1815,-0.177,-0.1628,-0.1717,-0.1763,-0.194,-0.194,-0.2053,-0.2164,-0.2652,-0.2829,-0.2785,-0.3372,-0.3571,-0.3641,-0.3711,-0.3744,-0.3766,-0.3792,-0.3704,-0.3707,-0.381,-0.381,-0.3818,-0.4096,-0.4526,-0.5173,-0.5329,-0.5502,-0.5329,-0.5005,-0.5026,-0.507,-0.5281,-0.5346,-0.5373,-0.5497,-0.5567,-0.5653,-0.5959,-0.6264,-0.6264,-0.6662,-0.6803,-0.6803,-0.6852,-0.6761,-0.6662,-0.6428,-0.6258,-0.6173,-0.5881,-0.5721,-0.5779,-0.6292,-0.6868,-0.6965,-0.6904,-0.685,-0.692,-0.6973,-0.6986,-0.696,-0.6953,-0.7014,-0.728,-0.7496,-0.7704,-0.7765,-0.7831,-0.798,-0.7939,-0.7843,-0.7675,-0.7364,-0.6974,-0.6528,-0.6114,-0.6241,-0.6303,-0.6267,-0.6253,-0.6395,-0.656,-0.6385,-0.6384,-0.6345,-0.6106,-0.6237,-0.679,-0.6706,-0.6336,-0.6457,-0.6648,-0.6904,-0.719,-0.7279,-0.7112,-0.727,-0.7216,-0.727,-0.7299,-0.7442,-0.7554,-0.7652,-0.7695,-0.7695,-0.7695,-0.7695,-0.7695,0.056,0.0515,0.0045,-0.0358,-0.0694,-0.0695,-0.0694,-0.0694,-0.0694,-0.1162,-0.1784,-0.2162,-0.2339,-0.2384,-0.2472,-0.2472,-0.2228,-0.2364,-0.2724,-0.2812,-0.2746,-0.2743,-0.279,-0.2724,-0.2499,-0.2613,-0.2812,-0.3034,-0.3098,-0.352,-0.3899,-0.4399,-0.4548,-0.4451,-0.4298,-0.436,-0.4338,-0.4421,-0.4591,-0.4739,-0.4822,-0.5151,-0.5308,-0.5351,-0.5437,-0.5653,-0.5717,-0.6221,-0.6215,-0.6167,-0.6365,-0.6301,-0.6103,-0.5809,-0.568,-0.5604,-0.5265,-0.5126,-0.5131,-0.5597,-0.5947,-0.628,-0.628,-0.6341,-0.6612,-0.674,-0.6733,-0.6767,-0.6859,-0.6851,-0.7056,-0.721,-0.7308,-0.7349,-0.7462,-0.7666,-0.7722,-0.7591,-0.7441,-0.7076,-0.6724,-0.6343,-0.5924,-0.5564,-0.5614,-0.5628,-0.5617,-0.5656,-0.5905,-0.6021,-0.6006,-0.5975,-0.5765,-0.5719,-0.6213,-0.6114,-0.5936,-0.6298,-0.6648,-0.6762,-0.6927,-0.6859,-0.6783,-0.7017,-0.724,-0.7255,-0.7285,-0.7329,-0.7388,-0.7417,-0.7544,-0.7695,-0.7695,-0.7666,-0.7695,0.1163,0.1185,0.1163,0.0917,0.056,0.0538,0.0449,0.0269,0.0247,-0.0291,-0.1274,-0.1717,-0.1895,-0.194,-0.2073,-0.194,-0.1674,-0.1784,-0.2073,-0.2162,-0.2142,-0.2073,-0.2095,-0.196,-0.1736,-0.1782,-0.1936,-0.2178,-0.2472,-0.324,-0.3246,-0.3098,-0.3084,-0.3217,-0.3689,-0.36,-0.36,-0.3711,-0.3902,-0.418,-0.4242,-0.4508,-0.4727,-0.4766,-0.4918,-0.5022,-0.5173,-0.5567,-0.5717,-0.5653,-0.5674,-0.5696,-0.5416,-0.5156,-0.5043,-0.4933,-0.4761,-0.4609,-0.4631,-0.4963,-0.5181,-0.5556,-0.5536,-0.5713,-0.5967,-0.6116,-0.5972,-0.6083,-0.633,-0.6569,-0.6628,-0.6672,-0.6767,-0.6784,-0.6735,-0.6908,-0.713,-0.7121,-0.6998,-0.6805,-0.6428,-0.6074,-0.577,-0.5394,-0.5419,-0.5456,-0.5454,-0.5475,-0.557,-0.5617,-0.5522,-0.5507,-0.5435,-0.5444,-0.5507,-0.5703,-0.5936,-0.6252,-0.6481,-0.6298,-0.6328,-0.6366,-0.6503,-0.6715,-0.6933,-0.7142,-0.7225,-0.7225,-0.7187,-0.7139,-0.7334,-0.753,-0.7515,-0.75,-0.7652,0.183,0.1784,0.1806,0.1806,0.1806,0.1739,0.1385,0.0918,0.0872,0.0492,-0.009,-0.0224,-0.0202,-0.0336,-0.0759,-0.0781,-0.0781,-0.1159,-0.1492,-0.1425,-0.1203,-0.1538,-0.1402,-0.1089,-0.0689,-0.1425,-0.1288,-0.1198,-0.1649,-0.1866,-0.1847,-0.1916,-0.1982,-0.2433,-0.3442,-0.3556,-0.3556,-0.3578,-0.3575,-0.3615,-0.3751,-0.3862,-0.3906,-0.399,-0.4246,-0.4417,-0.4565,-0.5,-0.5151,-0.5048,-0.5178,-0.5195,-0.5022,-0.4635,-0.4461,-0.44,-0.3808,-0.3519,-0.3501,-0.4349,-0.4713,-0.4853,-0.4821,-0.4939,-0.4977,-0.5018,-0.5132,-0.533,-0.5506,-0.5679,-0.5834,-0.6027,-0.6174,-0.6317,-0.6277,-0.6256,-0.6514,-0.6498,-0.6341,-0.6282,-0.6055,-0.5772,-0.5519,-0.5322,-0.5329,-0.5338,-0.5316,-0.534,-0.5381,-0.5372,-0.5309,-0.5309,-0.5309,-0.5372,-0.5475,-0.5688,-0.5952,-0.6244,-0.629,-0.6098,-0.6121,-0.6336,-0.6442,-0.6488,-0.6669,-0.691,-0.7023,-0.7092,-0.6859,-0.6646,-0.7103,-0.7305,-0.7305,-0.7388,-0.7583,0.3537,0.3494,0.3102,0.3174,0.3331,0.2271,0.1674,0.1517,0.145,0.1159,0.0668,0.0579,0.0579,0.0489,0.0489,0.0467,0.0713,0.078,0.0489,0.0,0.02,0.0267,0.0266,0.0378,0.0667,0.0556,0.0511,0.0222,0.0022,-0.04,-0.0599,-0.0666,-0.0933,-0.1625,-0.2186,-0.2455,-0.2544,-0.2921,-0.3034,-0.317,-0.3534,-0.3556,-0.3578,-0.3556,-0.377,-0.3899,-0.3943,-0.4461,-0.457,-0.4399,-0.4504,-0.45,-0.4286,-0.3877,-0.3854,-0.3771,-0.3347,-0.3096,-0.303,-0.3355,-0.366,-0.3917,-0.4098,-0.4212,-0.4469,-0.4554,-0.4593,-0.4647,-0.4843,-0.5117,-0.5555,-0.5644,-0.5789,-0.6102,-0.6109,-0.5947,-0.5979,-0.5781,-0.5621,-0.5621,-0.5489,-0.5507,-0.5372,-0.5309,-0.5309,-0.5309,-0.5309,-0.5309,-0.534,-0.534,-0.5309,-0.5309,-0.5325,-0.5372,-0.5475,-0.5585,-0.5617,-0.575,-0.5882,-0.5851,-0.5991,-0.6167,-0.6183,-0.6137,-0.6412,-0.6669,-0.673,-0.6693,-0.6252,-0.616,-0.673,-0.7142,-0.7225,-0.7383,-0.7627,0.47,0.4656,0.4287,0.4335,0.4452,0.307,0.2319,0.2119,0.1895,0.1558,0.1267,0.1199,0.1221,0.1266,0.1463,0.1443,0.1851,0.2002,0.176,0.1332,0.1558,0.1358,0.1402,0.1781,0.1692,0.1827,0.169,0.142,0.1088,0.0799,0.0644,0.0511,0.0222,0.0,-0.06,-0.1157,-0.2051,-0.2339,-0.243,-0.2541,-0.2857,-0.3081,-0.3258,-0.3328,-0.3464,-0.3622,-0.3689,-0.3818,-0.3965,-0.3748,-0.3656,-0.3693,-0.3369,-0.3103,-0.3037,-0.2878,-0.2736,-0.2435,-0.2281,-0.2458,-0.2791,-0.3082,-0.3201,-0.3448,-0.3742,-0.3724,-0.3783,-0.3899,-0.4205,-0.4495,-0.4807,-0.4912,-0.5287,-0.5574,-0.5685,-0.5504,-0.5511,-0.5328,-0.532,-0.5268,-0.5293,-0.5309,-0.5277,-0.5309,-0.5309,-0.5309,-0.5309,-0.5293,-0.5277,-0.5309,-0.5309,-0.5309,-0.5309,-0.534,-0.5356,-0.5372,-0.5372,-0.5325,-0.5444,-0.5594,-0.5578,-0.5719,-0.575,-0.582,-0.606,-0.6275,-0.6412,-0.6305,-0.6114,-0.6191,-0.6602,-0.6912,-0.7092,-0.7235,-0.7383,0.5367,0.5367,0.5367,0.5367,0.5178,0.414,0.3322,0.2738,0.2184,0.196,0.194,0.2069,0.2222,0.218,0.2573,0.2617,0.2423,0.2774,0.2598,0.2313,0.2512,0.2224,0.2291,0.2559,0.2561,0.2361,0.2273,0.2315,0.1917,0.1893,0.1849,0.1806,0.1625,0.1447,0.0823,-0.0089,-0.1157,-0.1447,-0.1581,-0.1782,-0.214,-0.2361,-0.2539,-0.2696,-0.2968,-0.3195,-0.3262,-0.3328,-0.3372,-0.3217,-0.299,-0.2785,-0.2495,-0.2117,-0.1917,-0.1799,-0.1745,-0.1647,-0.1577,-0.188,-0.1964,-0.2239,-0.2519,-0.264,-0.2833,-0.3026,-0.3109,-0.3187,-0.3392,-0.3538,-0.3704,-0.4131,-0.4537,-0.481,-0.5044,-0.5074,-0.5155,-0.5151,-0.5182,-0.5214,-0.5261,-0.5261,-0.5166,-0.5166,-0.5087,-0.5103,-0.5071,-0.5087,-0.5119,-0.5293,-0.5293,-0.5309,-0.5309,-0.5309,-0.5309,-0.5309,-0.5309,-0.5309,-0.5309,-0.5419,-0.5356,-0.5356,-0.546,-0.5594,-0.5727,-0.5867,-0.5975,-0.6129,-0.6229,-0.6374,-0.6306,-0.6511,-0.6633,-0.6715,-0.685,0.7147,0.7119,0.6679,0.6525,0.6334,0.5303,0.4482,0.3902,0.3701,0.3661,0.3657,0.4117,0.4091,0.4313,0.4491,0.4396,0.4374,0.4422,0.4444,0.4243,0.4,0.392,0.3814,0.373,0.3514,0.33,0.3214,0.3303,0.3126,0.3081,0.3037,0.3037,0.261,0.2475,0.2051,0.1314,0.0378,-0.0289,-0.0445,-0.0868,-0.1246,-0.1443,-0.1644,-0.1892,-0.214,-0.2297,-0.2319,-0.2364,-0.2364,-0.2275,-0.2164,-0.2051,-0.2029,-0.189,-0.1784,-0.1678,-0.1609,-0.1541,-0.1372,-0.1421,-0.149,-0.159,-0.1959,-0.2377,-0.2563,-0.2669,-0.2693,-0.2824,-0.2882,-0.3094,-0.3305,-0.3638,-0.3978,-0.4226,-0.4441,-0.457,-0.465,-0.4746,-0.4778,-0.4858,-0.4922,-0.4953,-0.4874,-0.4794,-0.473,-0.4778,-0.4816,-0.481,-0.4906,-0.5065,-0.5166,-0.5182,-0.5198,-0.5182,-0.5277,-0.5309,-0.5309,-0.5309,-0.5309,-0.5309,-0.5325,-0.5325,-0.5309,-0.5388,-0.5522,-0.5538,-0.5522,-0.5703,-0.5898,-0.5719,-0.5663,-0.5929,-0.6167,-0.6244,-0.6373,0.8214,0.8172,0.7841,0.766,0.7515,0.6681,0.6062,0.5679,0.5072,0.486,0.511,0.5406,0.561,0.5647,0.5983,0.6025,0.5562,0.602,0.6014,0.5449,0.5695,0.5137,0.4904,0.4761,0.4548,0.4338,0.425,0.4308,0.4184,0.3943,0.3854,0.3486,0.3148,0.3101,0.281,0.2317,0.1781,0.1224,0.0801,0.0289,-0.0044,-0.031,-0.051,-0.0733,-0.0912,-0.109,-0.1135,-0.1224,-0.1402,-0.1447,-0.1447,-0.1428,-0.1294,-0.1068,-0.0536,-0.0301,-0.0176,-0.0259,-0.0343,-0.0652,-0.0837,-0.1156,-0.1609,-0.2061,-0.2364,-0.2533,-0.262,-0.2723,-0.2736,-0.2819,-0.301,-0.3212,-0.3462,-0.3691,-0.3858,-0.4005,-0.414,-0.4253,-0.4312,-0.4393,-0.4441,-0.45,-0.4473,-0.4393,-0.4361,-0.4377,-0.4377,-0.4377,-0.4522,-0.473,-0.4842,-0.4912,-0.4953,-0.5001,-0.5112,-0.5198,-0.5214,-0.523,-0.5309,-0.5309,-0.5309,-0.5309,-0.5309,-0.5309,-0.5325,-0.5356,-0.5388,-0.5356,-0.5435,-0.5309,-0.5309,-0.5554,-0.575,-0.5765,-0.5944,0.891,0.891,0.8869,0.882,0.8659,0.809,0.787,0.7775,0.6428,0.5861,0.6241,0.631,0.6437,0.6716,0.7259,0.7176,0.6988,0.728,0.7217,0.6346,0.6569,0.6238,0.5701,0.5432,0.5303,0.5324,0.52,0.494,0.5022,0.4739,0.4268,0.3755,0.3796,0.3832,0.3763,0.3426,0.3064,0.2951,0.2485,0.2021,0.1514,0.1223,0.0998,0.082,0.0466,0.0133,0.0022,-0.0266,-0.0687,-0.0667,-0.0646,-0.0558,-0.0223,0.0223,0.0934,0.1154,0.108,0.0868,0.0502,0.0167,-0.0168,-0.067,-0.1377,-0.1644,-0.1845,-0.243,-0.2646,-0.2679,-0.2712,-0.2712,-0.2874,-0.2986,-0.3183,-0.3298,-0.3417,-0.3516,-0.3597,-0.3777,-0.3988,-0.407,-0.4199,-0.4199,-0.3995,-0.3914,-0.3902,-0.3935,-0.3935,-0.3935,-0.4016,-0.4269,-0.4419,-0.4522,-0.4586,-0.4644,-0.4778,-0.4874,-0.5039,-0.5119,-0.5166,-0.5293,-0.5293,-0.5293,-0.5309,-0.5309,-0.5309,-0.5309,-0.5325,-0.5293,-0.5293,-0.5309,-0.5309,-0.5309,-0.5356,-0.5404,-0.5538,1.0358,1.0377,1.0367,0.9963,0.9266,0.9078,0.905,0.901,0.8633,0.8059,0.7596,0.7865,0.8064,0.8159,0.8444,0.8383,0.833,0.8488,0.8317,0.8105,0.8003,0.737,0.6763,0.6573,0.6192,0.5518,0.5308,0.554,0.5427,0.5216,0.5048,0.4874,0.4792,0.4705,0.4727,0.4426,0.4408,0.4321,0.4164,0.3259,0.2248,0.2228,0.2113,0.1781,0.1379,0.1379,0.129,0.1224,0.1112,0.1158,0.1158,0.1159,0.1204,0.1449,0.1558,0.1602,0.1695,0.1509,0.12,0.0838,0.0504,0.0118,-0.0419,-0.0789,-0.1325,-0.2195,-0.2646,-0.2646,-0.2679,-0.2679,-0.2712,-0.2812,-0.2858,-0.2924,-0.2957,-0.299,-0.3043,-0.3286,-0.356,-0.3691,-0.3842,-0.374,-0.3507,-0.3474,-0.3458,-0.3458,-0.3474,-0.347,-0.3474,-0.3616,-0.3821,-0.3951,-0.4102,-0.4194,-0.4377,-0.4505,-0.4656,-0.472,-0.4752,-0.496,-0.5198,-0.5119,-0.5007,-0.523,-0.5309,-0.5151,-0.5087,-0.5246,-0.5246,-0.5151,-0.5103,-0.5007,-0.5119,-0.5198,-0.5309,1.1294,1.1294,1.1294,1.0985,1.0512,1.0484,1.0549,1.0699,1.0726,1.0506,1.004,0.9858,0.968,0.9768,0.9933,0.9768,0.9748,1.0011,0.9729,0.9521,0.9253,0.8622,0.8154,0.7743,0.7515,0.691,0.6805,0.6756,0.6143,0.6,0.5979,0.554,0.5389,0.5432,0.5394,0.5351,0.5411,0.5265,0.5411,0.4617,0.3259,0.3372,0.3183,0.2763,0.2588,0.2588,0.2477,0.2408,0.2206,0.2051,0.1851,0.194,0.1949,0.2097,0.218,0.2243,0.2227,0.2015,0.1673,0.1375,0.1075,0.0655,0.0134,-0.0385,-0.0874,-0.1659,-0.2092,-0.2161,-0.2613,-0.2679,-0.2679,-0.2762,-0.256,-0.251,-0.2427,-0.2377,-0.2358,-0.2424,-0.2468,-0.2382,-0.26,-0.2821,-0.2739,-0.297,-0.2986,-0.3039,-0.3035,-0.3064,-0.3064,-0.3114,-0.3266,-0.3417,-0.3593,-0.3875,-0.4118,-0.4183,-0.4221,-0.4285,-0.4312,-0.4441,-0.4586,-0.465,-0.4714,-0.4794,-0.48,-0.4656,-0.4672,-0.4832,-0.4752,-0.4559,-0.4592,-0.464,-0.4784,-0.4912,-0.496,1.1884,1.1883,1.1878,1.1924,1.1964,1.1921,1.2171,1.2535,1.2577,1.2778,1.2841,1.1893,1.1421,1.131,1.1546,1.1332,1.1228,1.1284,1.1033,1.0628,1.0436,0.9856,0.9334,0.8913,0.859,0.8415,0.8272,0.7812,0.7245,0.7155,0.6799,0.5915,0.5728,0.5792,0.5728,0.5792,0.6064,0.6192,0.6192,0.5915,0.5374,0.4908,0.4308,0.3946,0.3818,0.3818,0.3634,0.3429,0.3089,0.276,0.2536,0.2497,0.2599,0.2673,0.2711,0.2776,0.2744,0.2481,0.2197,0.1928,0.151,0.1022,0.0451,0.0,-0.0436,-0.0871,-0.1305,-0.169,-0.2139,-0.2547,-0.253,-0.2596,-0.2364,-0.2211,-0.2078,-0.1978,-0.1909,-0.1876,-0.174,-0.159,-0.1809,-0.2114,-0.2297,-0.2527,-0.263,-0.2663,-0.2679,-0.2679,-0.2729,-0.2825,-0.2957,-0.3039,-0.3151,-0.3446,-0.3712,-0.3728,-0.3651,-0.3842,-0.3886,-0.3923,-0.4021,-0.4231,-0.4296,-0.4183,-0.414,-0.4188,-0.4172,-0.428,-0.414,-0.4058,-0.4221,-0.435,-0.4334,-0.4447,-0.4511,1.2359,1.2374,1.2361,1.2601,1.2903,1.2736,1.3126,1.3792,1.3657,1.3792,1.4135,1.4221,1.3569,1.2135,1.2194,1.2129,1.2135,1.2336,1.2031,1.1549,1.1553,1.1068,1.0531,1.0041,0.9432,0.9182,0.9002,0.8586,0.8297,0.8325,0.8252,0.7826,0.7867,0.7908,0.7936,0.7867,0.766,0.7619,0.7578,0.7508,0.6821,0.6174,0.526,0.5005,0.4983,0.4983,0.4913,0.4865,0.4517,0.4081,0.3529,0.3262,0.315,0.3116,0.306,0.2916,0.2913,0.2766,0.2467,0.2236,0.1811,0.1628,0.117,0.0918,0.0485,0.0067,-0.03,-0.055,-0.1083,-0.1857,-0.2059,-0.2411,-0.2364,-0.2328,-0.2228,-0.2159,-0.2109,-0.2125,-0.2092,-0.2042,-0.2109,-0.2278,-0.2364,-0.253,-0.2613,-0.2663,-0.2679,-0.2679,-0.2679,-0.2679,-0.2679,-0.2692,-0.2742,-0.2775,-0.2928,-0.299,-0.3006,-0.3233,-0.3409,-0.3392,-0.3544,-0.3956,-0.3972,-0.3728,-0.3814,-0.3928,-0.3912,-0.3728,-0.3826,-0.381,-0.3961,-0.4058,-0.3993,-0.3993,-0.407]}]]